GFSSW_sfc_rhum_000.txt.gz
RH
78 78 77 78 77 77 77 78 81 81 82 83 84 85 85 88 84 34 13 24 30 70 62 13 10 9 7 8 7 7 7 9 10 9 9 8 8 18 21 21 27 28 32 40 48
76 77 75 77 79 79 79 79 81 82 83 84 85 86 87 91 40 14 38 56 58 60 13 10 10 8 9 9 8 6 8 12 13 11 9 8 10 14 17 20 29 34 34 36 39
80 79 80 79 79 78 80 81 82 83 84 86 86 86 89 79 16 15 59 54 58 45 14 13 12 9 10 10 12 12 12 12 14 16 14 9 11 16 14 14 19 26 32 31 31
83 82 81 81 80 80 83 87 85 84 85 87 86 88 91 42 20 13 65 59 57 25 13 12 12 13 14 14 14 15 18 18 18 16 14 14 14 14 15 18 22 25 27 26 26
88 89 87 87 86 87 90 90 89 88 89 87 88 89 56 18 19 15 56 39 16 12 12 14 13 14 15 15 16 17 20 22 20 18 18 18 17 18 17 20 22 22 23 22 20
89 89 89 88 88 88 90 90 89 90 89 86 88 92 20 24 18 16 15 14 13 12 13 13 15 15 19 20 18 23 23 24 21 20 20 21 18 19 18 20 22 22 20 19 20
89 90 90 88 88 87 88 90 89 90 88 85 88 45 18 21 15 14 16 15 14 14 15 13 14 17 18 26 24 22 22 23 21 20 21 19 19 18 16 20 20 21 20 19 19
87 90 91 90 90 88 88 89 89 88 88 86 88 27 20 16 13 14 14 16 15 14 14 16 17 20 25 25 22 23 20 16 17 18 21 19 12 14 15 18 18 18 20 20 19
89 90 91 90 90 89 89 89 88 88 88 84 34 20 21 23 16 14 16 18 17 17 18 16 17 21 20 21 18 16 15 18 16 17 18 18 15 10 15 18 16 14 16 19 19
89 90 91 90 92 93 91 87 88 79 49 30 19 20 18 21 17 16 15 18 19 19 18 18 17 15 15 14 19 22 20 20 22 14 17 16 15 10 9 11 15 15 14 16 19
89 91 90 89 91 90 68 35 22 21 21 24 24 23 19 17 15 15 18 20 17 20 23 23 18 24 22 23 22 23 23 18 14 16 22 18 17 13 11 12 14 16 17 17 18
89 91 90 88 88 80 47 31 46 38 26 27 22 20 20 19 18 16 16 21 21 21 23 21 26 23 22 22 23 21 23 20 17 18 23 20 18 13 12 13 17 18 17 18 19
90 91 90 87 82 61 44 52 54 50 22 25 24 21 20 17 21 20 19 23 22 21 22 25 25 22 23 22 23 22 25 23 24 22 17 21 12 13 13 15 18 17 19 20 20
90 92 89 84 52 46 46 50 54 58 27 27 23 20 17 18 22 19 18 24 22 24 23 23 24 24 23 24 25 26 24 25 26 27 21 23 18 15 15 14 15 18 19 18 19
91 91 86 73 50 35 48 49 58 57 55 33 23 17 18 21 24 21 20 21 26 25 26 27 25 24 24 27 25 26 25 27 29 30 28 25 25 17 18 16 16 16 18 19 20
91 89 77 42 51 51 52 60 56 59 51 33 23 25 24 24 26 22 21 20 22 23 21 24 23 24 24 23 26 25 27 27 31 31 41 28 26 18 16 18 18 16 19 21 20
92 87 57 50 48 60 65 53 57 53 37 32 30 28 30 30 28 28 29 30 28 29 31 22 25 24 26 27 27 27 31 45 48 46 37 28 31 23 19 18 20 21 22 22 22
89 79 78 56 51 65 54 59 45 46 37 29 30 30 33 33 31 29 28 28 31 32 29 36 33 24 29 30 35 31 32 51 86 48 39 26 34 18 18 18 19 22 22 23 23
85 57 52 61 64 60 46 61 55 38 32 31 32 34 36 35 33 31 34 33 32 33 41 44 35 30 30 32 32 37 42 33 47 58 58 32 25 21 17 20 22 20 22 24 25
48 46 48 65 67 49 68 53 37 34 32 35 36 38 37 37 34 34 36 33 33 32 34 42 54 37 33 33 32 35 30 51 50 94 74 31 31 26 24 23 22 23 24 27 28
57 39 55 63 59 39 68 48 36 32 33 36 39 40 40 41 40 39 41 34 32 34 34 39 52 45 38 36 41 42 45 38 39 48 72 68 39 24 26 25 26 25 26 28 29
58 44 56 61 44 52 55 37 52 34 34 38 38 39 42 43 44 41 42 39 33 32 44 44 55 65 48 34 35 38 44 42 64 57 58 74 59 27 26 26 28 28 27 27 28
43 42 50 59 79 78 49 46 44 38 40 38 44 43 43 46 55 46 45 43 36 36 48 47 64 72 46 39 39 42 40 41 49 74 84 95 57 24 24 25 26 28 27 28 30
42 90 58 52 52 48 51 55 54 50 48 46 46 47 48 52 48 54 49 45 48 42 67 58 58 68 64 46 40 56 46 43 56 96 78 65 51 38 33 31 27 28 29 31 31
50 72 61 80 70 56 54 53 56 57 49 44 51 52 54 71 60 58 49 45 44 61 57 56 78 56 52 48 51 54 54 51 56 59 86 64 47 38 34 31 31 30 32 34 34
56 64 65 68 57 47 63 55 53 50 48 49 53 55 52 59 54 61 51 54 57 50 55 53 84 78 84 57 56 66 56 53 51 51 48 50 51 36 32 28 30 32 34 36 43
58 56 70 86 66 60 55 50 48 49 51 47 50 56 77 54 46 45 48 50 50 58 67 75 89 99 96 60 78 100 80 55 44 42 49 61 47 34 32 33 37 38 39 51 47

GFSSW_sfc_rhum_003.txt.gz
RH
77 76 76 76 77 78 78 79 81 82 82 83 85 85 86 88 86 32 12 25 29 70 62 12 7 6 5 5 4 4 6 7 7 7 7 6 6 9 10 9 11 13 15 27 36
78 77 78 77 78 79 80 82 81 82 83 85 86 86 87 91 26 12 37 56 59 61 11 7 7 6 5 5 5 6 7 8 7 6 6 5 6 8 9 11 13 17 24 30 34
79 79 79 78 79 80 80 82 83 82 83 85 87 87 90 77 17 13 70 65 61 47 12 9 8 6 7 7 8 8 8 7 8 9 8 7 7 8 8 10 10 14 20 28 29
86 85 83 83 82 82 83 85 86 85 85 88 87 87 91 40 19 13 59 62 65 23 11 8 8 10 10 10 9 11 10 10 11 11 10 10 10 10 10 10 12 13 16 22 26
87 86 86 85 86 87 88 90 88 87 88 88 87 89 63 18 17 12 45 36 11 10 9 9 10 10 11 11 11 13 13 14 13 14 14 14 13 14 12 12 14 16 20 21 21
87 87 87 87 86 88 89 91 89 88 88 88 86 91 37 20 12 12 12 12 11 10 11 11 12 12 14 14 14 14 15 16 15 14 14 16 11 12 11 13 15 16 17 16 16
88 88 87 87 86 86 87 89 90 88 89 88 87 51 17 19 12 11 12 13 12 12 12 10 12 15 15 20 17 16 17 15 14 12 13 13 11 14 9 13 13 15 16 15 14
86 89 89 88 87 87 87 87 88 88 89 89 89 32 19 13 11 11 11 12 12 12 12 12 12 15 19 17 17 15 15 10 10 12 12 11 10 8 8 11 13 12 13 15 15
89 89 89 89 88 84 84 85 86 86 89 85 37 17 18 23 14 12 12 14 13 13 13 12 11 13 18 16 15 10 12 13 12 9 11 10 12 7 7 9 11 11 10 12 14
89 89 89 88 89 88 88 85 82 81 53 20 12 17 15 17 14 13 12 14 14 14 15 13 12 13 10 12 16 15 16 15 14 10 12 13 13 10 8 8 8 9 10 10 11
89 89 88 87 88 88 67 29 22 18 18 19 17 16 14 13 12 12 13 15 13 15 16 14 15 17 16 17 17 17 17 16 13 13 17 16 15 11 8 8 10 10 12 12 12
90 89 87 84 83 76 54 24 38 30 22 16 15 14 14 14 15 12 11 16 16 15 14 18 21 17 16 16 16 15 18 17 15 13 17 16 14 10 10 11 11 12 13 14 15
90 89 85 82 83 57 33 37 36 35 20 18 17 15 16 14 16 16 14 15 15 15 14 17 20 17 17 16 19 16 21 21 21 18 15 16 13 11 12 11 12 13 15 14 16
90 89 85 82 52 35 36 38 41 46 28 20 18 16 14 14 18 14 14 18 17 18 15 18 18 18 18 17 20 21 20 22 22 23 21 16 16 12 12 12 12 14 15 16 16
90 88 85 77 40 28 39 37 47 51 62 23 18 13 14 16 17 16 14 17 20 19 19 24 18 18 18 21 21 23 22 25 24 26 24 19 19 12 13 13 13 14 15 16 17
90 88 80 39 44 41 39 47 52 54 49 27 19 20 19 18 18 15 16 16 15 17 15 15 15 18 19 20 22 22 24 21 23 26 37 24 21 14 13 14 14 14 15 18 18
90 86 51 39 40 46 52 47 49 54 29 25 24 21 22 23 21 20 21 24 23 28 25 18 19 18 21 23 22 23 28 42 44 40 36 21 26 20 14 14 14 16 17 18 20
90 87 69 44 41 54 48 40 57 38 28 24 24 23 26 26 24 22 22 23 25 26 26 28 32 20 23 27 33 30 30 51 71 44 37 22 26 17 13 13 14 17 18 20 20
92 46 42 55 55 54 39 57 49 29 26 26 24 27 28 26 26 24 27 27 28 28 37 38 30 23 25 28 27 32 40 31 47 44 56 33 20 16 14 14 17 18 18 21 23
37 36 42 56 56 52 51 46 31 26 25 25 29 28 29 27 26 27 30 28 29 30 31 38 48 30 28 28 27 32 28 48 51 90 65 32 31 25 20 18 17 19 22 24 24
50 36 50 50 53 32 53 40 29 26 26 30 30 30 30 31 31 31 33 30 29 30 31 35 49 41 33 32 33 35 39 36 33 44 68 63 37 22 24 24 23 22 23 24 25
47 40 47 49 42 38 42 30 49 29 28 31 30 32 35 36 39 36 37 35 31 31 39 41 49 64 43 27 26 29 35 36 58 55 53 61 57 24 24 23 23 24 24 25 25
33 33 42 50 76 67 37 38 34 31 34 33 38 38 37 40 50 40 40 38 33 34 42 40 56 66 39 33 32 34 29 32 39 54 70 93 60 20 21 24 23 23 24 25 26
34 81 45 39 38 38 41 42 45 40 39 37 39 38 40 44 40 47 43 38 40 39 68 53 52 62 66 48 38 49 38 35 42 87 68 61 48 34 28 27 26 26 26 26 27
32 53 46 72 54 42 41 39 43 47 40 37 42 41 43 63 54 44 40 38 37 54 47 50 70 52 45 39 38 40 41 38 40 44 65 51 40 32 29 27 27 27 28 29 31
44 50 46 48 42 39 53 41 39 40 37 40 44 41 41 49 48 53 43 44 46 39 48 47 82 69 80 52 45 54 42 39 38 37 36 38 39 27 26 27 28 33 34 39 37
40 40 58 68 49 51 47 37 37 38 42 36 39 44 61 48 40 40 43 43 43 49 61 69 92 98 92 55 77 98 71 48 40 32 34 46 38 28 30 33 37 39 40 41 43

GFSSW_sfc_rhum_006.txt.gz
RH
76 76 76 77 78 79 80 81 83 83 83 84 85 86 87 89 87 39 15 27 32 70 66 17 11 5 5 4 4 4 7 7 7 7 7 5 6 8 8 8 9 10 17 33 39
77 77 77 79 79 80 81 82 84 83 83 84 86 87 89 92 40 11 36 61 62 63 16 8 7 5 6 5 6 7 9 8 6 6 7 6 6 7 7 8 10 14 16 24 33
78 79 78 79 79 80 81 83 84 84 84 85 87 89 91 83 26 13 58 61 60 48 13 10 8 6 8 7 8 8 9 8 8 10 7 8 7 8 8 9 12 12 17 20 24
85 84 82 82 83 83 84 87 85 84 86 86 88 88 91 41 21 13 48 53 60 24 13 10 8 10 10 10 9 11 10 10 11 11 11 12 12 11 10 10 11 12 13 18 22
85 85 84 84 85 87 89 90 89 87 86 86 87 88 57 22 16 12 40 38 15 10 10 10 10 12 11 10 11 12 12 12 12 13 12 12 12 12 11 10 12 11 16 18 20
86 85 85 85 85 86 89 90 90 88 87 86 86 91 43 20 11 11 11 11 10 10 10 11 12 12 13 14 15 13 13 13 12 11 11 14 12 10 9 10 12 13 17 18 19
87 88 86 85 85 85 87 87 88 89 88 86 86 51 19 17 10 10 11 12 10 11 11 10 12 14 15 18 14 13 16 15 14 10 9 11 10 10 10 11 12 12 15 16 16
86 89 88 87 86 86 86 86 87 88 89 88 87 45 20 12 11 10 10 11 11 10 10 10 12 13 17 14 17 15 14 11 9 10 10 10 12 8 8 9 12 12 13 15 16
89 89 88 88 86 84 84 85 86 87 88 85 54 41 18 22 13 11 11 13 12 12 13 10 12 13 16 21 17 12 14 14 13 9 10 10 13 9 8 8 10 12 12 12 15
90 88 87 86 87 80 82 83 82 76 63 34 20 18 14 16 13 12 11 13 14 14 15 14 14 16 13 16 23 20 19 17 17 12 13 16 16 12 10 9 10 10 11 12 13
90 89 86 84 84 83 66 33 24 26 16 18 15 15 13 12 12 10 10 13 13 14 16 12 19 19 16 17 15 15 16 16 15 12 15 17 16 13 9 9 12 13 14 15 16
90 89 85 82 83 77 59 30 35 36 22 14 13 13 12 12 14 12 10 14 15 16 12 14 22 16 14 13 15 13 16 19 17 15 18 18 17 12 11 12 12 13 16 17 17
91 89 85 81 80 68 34 35 31 36 32 16 15 14 14 14 14 14 13 14 14 14 13 15 20 14 14 15 19 16 23 24 24 20 16 16 14 13 12 12 13 15 16 16 18
91 89 88 81 50 32 35 33 40 48 37 20 17 16 13 12 17 13 11 15 17 17 14 17 15 16 16 16 19 23 19 23 25 26 29 20 22 13 12 14 14 16 21 22 21
91 88 88 81 45 29 38 36 43 55 69 22 16 12 13 15 14 15 12 15 19 17 16 24 18 16 18 20 19 24 23 26 24 27 26 20 20 15 13 13 14 17 18 23 24
90 89 82 41 51 40 38 48 53 66 62 25 17 18 18 17 16 14 15 14 14 16 14 13 14 16 18 18 19 21 24 23 22 27 51 24 24 21 15 14 14 14 17 22 25
90 89 56 41 50 44 54 52 59 59 24 23 23 19 19 21 19 18 19 24 26 33 27 18 17 17 20 24 20 25 32 57 64 61 55 22 26 25 18 14 15 18 21 26 31
88 91 65 46 45 55 53 46 60 34 26 22 21 20 23 22 22 20 21 23 25 28 28 32 36 20 22 26 32 30 33 69 73 57 52 30 31 19 13 13 14 16 22 24 30
91 55 48 60 57 58 48 59 49 28 24 24 21 24 26 23 23 22 26 27 29 30 40 43 32 22 24 24 27 32 41 32 55 58 68 43 28 20 15 15 18 19 20 28 29
48 39 48 56 58 61 58 51 29 24 22 22 28 25 29 26 26 26 28 27 30 30 30 36 53 29 26 26 27 31 29 51 67 92 66 38 40 34 25 27 26 26 26 29 31
61 42 51 48 58 45 57 38 27 23 24 30 29 28 28 31 31 30 30 30 29 30 30 35 48 46 36 32 34 33 39 41 37 55 76 77 48 31 32 30 30 28 28 30 31
58 54 48 50 48 44 42 28 49 27 25 29 30 32 36 35 39 35 36 36 32 32 39 43 52 73 48 31 25 27 35 36 79 69 65 71 62 31 30 28 29 28 27 28 30
37 38 44 53 80 66 34 33 30 28 32 32 36 35 34 39 50 40 39 38 34 34 48 45 61 70 45 35 31 37 33 33 40 71 70 95 68 29 30 30 27 28 31 31 32
37 85 48 41 35 39 38 38 41 37 35 33 35 35 37 41 37 46 40 37 39 39 67 55 52 61 74 56 44 53 41 38 44 71 62 60 49 35 30 30 28 32 36 34 34
34 53 45 75 50 41 38 35 39 42 36 33 37 37 40 67 56 43 38 41 38 62 42 49 76 55 50 45 46 51 49 44 44 44 58 49 40 32 29 28 34 36 38 38 37
54 51 43 44 37 36 50 36 36 36 33 37 41 36 38 50 48 56 46 48 49 39 49 54 88 85 85 58 51 57 50 47 44 40 39 40 39 28 26 32 37 40 41 45 53
39 38 64 66 49 53 49 34 34 34 40 34 38 44 68 47 46 45 46 46 47 53 63 65 92 100 88 65 76 92 65 49 42 35 37 51 39 30 32 43 48 50 46 61 61

GFSSW_sfc_rhum_009.txt.gz
RH
76 77 78 78 83 83 82 84 88 87 86 85 86 88 89 91 84 45 24 30 36 62 73 32 22 19 15 11 8 10 15 17 14 11 12 10 12 14 14 14 15 22 54 54 57
78 78 77 78 80 81 85 87 88 88 86 86 88 90 92 92 55 21 36 58 70 77 27 21 17 13 11 11 12 14 17 13 14 14 14 12 11 12 11 12 20 28 49 52 55
80 80 79 79 81 84 86 87 88 87 88 90 90 92 93 91 48 20 46 69 73 70 26 19 16 15 13 13 15 16 18 16 16 16 14 15 17 13 15 17 21 23 37 52 56
85 85 82 83 84 86 88 89 89 88 88 89 88 91 94 65 28 21 44 53 60 46 22 18 16 17 16 18 15 18 15 16 17 16 17 20 19 17 20 20 16 17 28 29 33
87 86 85 84 85 88 91 91 90 91 90 88 89 90 68 42 21 16 41 38 28 19 17 15 18 20 19 18 18 19 18 18 15 16 18 17 17 18 17 14 16 16 22 28 31
88 88 87 86 87 89 90 90 91 90 88 88 89 94 60 35 15 14 14 14 14 15 13 14 18 18 22 21 23 21 18 19 17 17 16 18 19 20 13 15 17 17 25 36 30
89 88 87 86 86 87 87 88 88 88 88 86 87 63 55 28 16 16 14 17 14 14 17 15 17 21 23 29 21 18 22 22 18 16 15 17 16 17 13 17 17 18 21 23 24
89 88 88 87 86 85 85 85 86 87 88 87 88 65 33 17 20 14 14 18 16 15 17 17 15 21 28 23 24 24 27 27 19 15 16 14 19 15 14 18 19 18 20 21 22
90 88 87 87 85 82 80 83 85 86 86 86 80 62 29 24 17 14 17 18 18 16 18 13 20 24 26 34 36 24 31 24 21 15 17 20 22 18 16 15 18 19 18 21 23
90 88 86 85 84 79 81 83 82 73 68 44 36 43 21 21 18 16 14 14 20 22 23 26 26 29 27 30 37 29 28 23 29 20 20 24 25 21 17 18 19 20 21 23 24
90 89 85 82 84 80 69 58 38 48 48 26 22 20 16 14 16 15 14 16 19 23 28 21 31 32 26 27 24 22 22 27 27 21 26 28 27 22 21 18 20 22 24 24 23
91 88 86 84 85 79 80 56 55 62 49 22 17 17 17 18 19 16 15 20 22 26 21 25 35 23 18 19 22 23 29 35 28 24 28 29 27 24 18 19 20 25 24 25 24
91 89 86 87 83 81 52 54 53 65 65 24 21 19 20 19 21 19 17 20 24 22 20 29 27 17 19 24 25 27 34 36 36 32 29 31 30 20 21 18 21 22 23 23 23
90 89 90 84 55 58 57 50 62 76 75 26 25 22 18 19 28 17 18 23 28 26 20 28 20 19 22 25 25 31 30 31 34 42 48 32 46 24 22 21 22 22 28 28 28
90 90 88 81 76 57 53 57 62 78 86 32 22 17 16 20 20 22 18 24 25 22 25 32 25 23 26 26 24 30 31 34 37 44 47 35 37 25 24 25 24 28 30 31 32
91 89 91 62 76 68 66 75 78 90 82 33 22 25 27 23 23 18 23 24 23 26 21 21 20 24 28 24 27 28 38 40 44 44 66 40 41 39 27 23 24 28 31 32 32
91 89 75 63 78 68 83 84 88 85 33 30 30 25 27 28 26 24 27 36 45 54 50 33 26 26 28 33 33 36 52 80 73 77 74 35 41 38 28 24 26 29 31 31 31
90 92 78 74 80 81 87 80 80 44 34 28 28 27 34 29 31 28 32 40 38 42 49 52 57 34 28 37 42 43 47 87 81 87 76 43 52 34 24 21 23 25 28 33 32
90 79 78 84 80 87 86 90 76 40 30 33 29 35 37 34 33 34 40 42 40 42 56 65 50 35 29 32 36 44 66 46 64 76 89 66 44 26 29 29 29 30 30 35 35
80 82 77 74 77 89 89 59 41 31 28 33 42 36 44 36 40 38 42 38 42 40 43 50 67 45 40 37 37 40 41 68 85 94 88 61 59 49 43 36 34 39 38 40 42
90 78 72 66 82 84 89 55 34 27 31 40 43 43 41 47 46 45 46 45 40 43 44 54 68 64 51 50 54 49 55 55 52 75 94 98 78 44 40 38 44 33 34 40 41
85 81 68 74 81 87 72 40 47 35 37 41 43 47 50 50 53 51 55 51 44 44 60 56 66 88 58 41 38 36 48 48 88 92 89 92 75 38 42 41 33 35 39 43 41
88 80 73 73 96 92 48 44 46 42 41 42 49 45 48 55 67 55 54 52 41 52 61 58 78 90 68 51 51 54 47 51 61 79 76 96 75 36 36 37 39 47 47 46 45
82 89 86 78 71 56 54 51 52 49 45 42 44 47 51 56 54 58 52 54 52 52 68 61 69 78 89 71 61 68 58 54 63 91 80 74 60 43 37 43 48 53 53 53 56
77 78 67 90 78 61 58 49 53 57 49 44 51 48 52 72 66 62 55 57 54 72 58 61 83 74 68 62 58 54 55 56 62 62 75 62 56 45 42 51 58 55 54 53 61
83 88 83 75 56 58 63 53 48 41 44 51 53 52 52 68 68 78 69 71 70 61 71 68 86 88 89 70 65 73 66 61 58 59 58 56 50 42 42 61 65 62 61 70 69
73 71 93 90 71 80 76 51 50 49 56 44 50 59 70 68 65 66 66 65 66 71 79 80 88 99 88 81 84 89 69 62 58 48 54 72 63 68 68 66 69 70 74 75 70

GFSSW_sfc_rhum_012.txt.gz
RH
78 76 77 77 79 85 84 86 89 88 86 86 87 88 91 92 84 41 23 27 32 73 67 33 23 22 21 20 13 13 16 21 21 16 16 12 16 15 15 14 22 49 50 55 50
78 76 77 78 79 83 86 88 90 89 87 88 89 92 93 93 51 22 31 51 68 78 21 21 21 19 15 14 14 15 20 26 16 14 20 19 19 15 13 19 34 59 63 65 67
80 79 79 80 83 85 89 90 90 88 89 90 91 92 92 89 35 20 41 59 72 68 31 26 22 21 15 15 17 40 25 19 20 20 21 24 20 18 17 24 34 62 71 71 73
86 86 85 82 84 88 91 91 90 88 90 89 88 91 91 62 29 20 48 61 66 45 23 20 18 22 19 20 19 21 21 19 20 20 21 24 24 21 42 18 19 55 62 68 67
89 89 87 86 87 90 91 92 91 90 89 88 90 90 59 32 26 16 49 34 17 19 18 17 21 24 27 24 22 23 22 20 18 18 20 20 20 19 20 18 19 32 40 55 56
89 88 88 88 89 89 90 90 90 90 88 87 88 90 49 32 17 16 17 16 16 17 16 17 21 21 26 23 24 25 22 21 19 20 22 21 22 22 18 19 20 28 31 34 36
88 88 87 86 87 87 88 89 89 87 88 85 87 60 57 25 19 21 19 18 16 20 20 18 20 20 25 29 24 22 25 22 22 22 18 17 19 18 16 19 20 25 28 28 29
88 88 87 85 85 85 86 86 86 86 85 87 87 69 30 19 22 15 17 19 18 18 19 18 18 24 30 27 28 28 28 31 22 22 16 17 20 15 18 21 22 22 26 28 28
88 88 87 86 85 83 81 82 84 85 86 88 72 59 31 23 18 16 17 18 19 21 22 16 23 28 25 33 32 29 32 30 24 18 22 22 23 20 22 20 22 23 24 26 28
88 87 86 85 87 85 83 83 79 71 81 62 43 43 23 23 19 16 15 16 21 25 24 29 30 31 30 31 37 33 30 26 34 24 30 31 28 26 24 22 21 22 23 23 23
89 86 85 85 87 84 62 54 54 40 45 28 26 25 20 16 19 16 16 18 22 30 34 27 30 33 28 29 27 30 32 37 32 27 32 36 35 29 23 26 27 30 30 31 32
91 89 86 87 83 80 74 56 60 58 50 23 21 20 18 20 22 18 17 21 27 27 22 33 35 26 20 25 27 27 38 39 34 29 37 36 35 28 22 24 28 29 30 30 32
90 90 90 86 82 69 58 61 64 66 64 25 24 23 20 20 25 21 20 24 30 26 28 34 29 22 23 28 28 32 41 41 40 39 39 36 35 24 23 27 26 28 28 27 29
91 91 90 85 56 68 63 54 64 73 62 33 28 24 20 20 29 19 20 25 26 29 26 31 23 21 29 30 30 35 30 35 39 46 51 38 55 34 25 26 27 28 29 29 30
90 90 90 79 74 63 59 68 77 68 77 34 26 18 19 22 23 22 20 25 28 24 27 33 27 24 31 29 31 32 33 40 44 53 53 43 46 31 25 26 29 34 35 37 36
91 91 88 74 75 72 75 84 75 82 79 36 26 28 29 27 23 23 30 28 31 35 32 26 24 26 30 29 36 34 42 48 52 53 70 47 46 42 37 32 36 37 33 35 39
90 88 70 73 71 81 89 76 82 77 38 36 35 29 33 31 30 29 39 43 49 47 54 41 32 29 32 38 38 43 59 81 69 80 73 46 50 42 36 31 29 32 38 38 35
92 85 85 81 89 86 80 72 68 54 40 31 32 32 38 32 32 36 39 46 43 49 59 66 64 42 32 42 46 47 57 85 82 88 77 51 58 42 34 36 35 29 33 33 35
86 88 82 79 84 92 77 82 72 48 36 36 35 40 41 34 34 39 49 49 46 48 60 70 57 43 38 36 40 47 64 52 67 83 90 70 54 36 32 39 37 39 40 42 43
76 85 74 78 83 83 79 64 46 38 37 42 48 44 50 47 47 44 50 49 48 48 52 58 73 53 47 43 43 46 45 68 84 87 91 75 68 57 45 46 41 43 52 53 52
91 70 62 78 82 74 76 62 40 33 38 44 51 54 52 57 54 54 58 52 47 47 54 60 71 64 53 56 60 54 66 62 62 84 97 98 86 54 46 48 54 47 50 53 53
89 63 56 79 72 91 67 44 48 40 41 46 50 52 56 56 60 61 63 56 49 53 64 62 74 88 63 50 47 53 61 65 91 84 92 90 74 40 49 42 48 51 49 52 53
84 79 71 67 87 90 54 49 51 47 47 49 54 51 51 59 68 61 60 55 46 57 61 60 77 87 59 49 58 62 54 59 71 86 86 97 80 41 38 42 52 61 58 58 64
76 87 82 82 81 58 56 59 56 50 50 47 49 50 55 63 57 62 61 59 58 55 67 63 73 72 80 63 71 76 62 56 70 95 85 78 69 53 50 63 65 68 68 66 68
82 77 73 88 77 64 64 59 58 61 53 47 52 54 57 72 69 79 71 68 62 72 65 66 82 79 73 67 69 67 67 68 71 70 90 70 66 57 76 77 73 68 66 67 70
78 84 87 80 66 58 72 58 57 48 54 56 63 64 61 73 70 81 76 79 75 68 78 75 88 89 87 77 78 84 72 71 71 69 67 68 64 77 70 71 73 70 67 69 75
92 87 87 88 76 79 78 58 57 54 58 48 54 63 71 70 67 66 66 67 68 76 82 82 90 98 79 93 93 92 79 71 61 59 62 79 71 79 78 79 78 74 73 73 79

GFSSW_sfc_rhum_015.txt.gz
RH
81 79 77 78 79 83 84 86 89 88 86 86 88 88 89 93 89 60 21 26 32 77 70 26 25 22 23 18 13 15 20 24 21 18 23 16 18 17 17 36 38 61 54 53 64
78 79 79 80 84 85 85 88 90 89 86 88 89 90 92 93 62 25 29 53 68 71 23 24 22 22 14 16 17 17 24 25 19 16 21 20 28 18 22 52 62 62 68 65 74
84 82 81 80 82 85 87 90 90 88 88 90 90 91 93 95 26 19 41 59 74 70 33 30 27 22 17 18 19 25 25 19 20 19 19 26 24 22 20 47 56 47 68 79 82
86 87 86 85 83 86 91 92 91 88 88 90 89 90 93 65 19 16 55 65 67 55 24 20 21 22 25 24 24 21 24 20 22 20 23 26 43 25 43 18 37 46 64 81 79
89 89 87 86 87 91 92 92 91 90 90 88 89 91 69 28 27 18 54 36 19 19 18 20 23 28 29 26 24 23 24 21 21 20 23 22 21 22 20 19 23 58 70 76 74
89 89 88 88 88 90 90 89 90 90 89 88 88 91 46 31 18 19 20 18 17 18 18 18 23 26 28 30 25 26 24 22 23 22 24 25 24 25 20 21 24 60 71 74 67
88 88 87 87 87 87 88 89 89 88 87 86 86 58 43 27 22 21 18 22 22 21 20 22 22 20 30 32 27 26 26 25 26 26 23 22 19 19 19 22 24 47 59 59 56
87 88 88 87 87 86 86 87 88 87 85 85 84 66 30 20 23 17 18 19 18 20 21 19 22 24 28 30 30 26 28 30 22 26 20 19 23 16 20 22 23 30 36 37 40
87 86 85 87 86 85 86 90 89 86 87 84 60 53 34 25 18 19 16 17 18 22 25 18 22 30 27 28 30 31 34 33 26 27 30 24 24 19 27 22 22 25 29 33 35
87 85 85 86 87 86 89 86 88 86 71 54 44 36 22 22 20 16 17 20 22 24 25 27 32 31 32 31 38 37 34 31 34 28 35 39 32 29 29 26 25 28 29 28 30
88 87 87 86 84 84 70 63 52 35 44 33 29 26 21 17 19 17 18 20 24 24 32 31 31 31 32 31 30 31 39 45 37 31 37 43 42 35 33 29 31 33 30 35 38
89 88 87 85 81 80 63 61 62 54 42 33 25 23 21 22 21 19 18 22 26 29 27 34 35 29 26 28 28 35 42 40 37 33 43 41 40 26 24 27 34 36 37 36 40
90 90 89 83 77 64 64 72 72 68 45 29 25 24 23 21 26 23 21 28 28 26 34 37 32 23 27 31 30 34 42 42 41 41 43 43 39 28 26 28 28 29 32 33 39
90 92 90 80 64 72 64 62 74 64 52 34 28 24 20 23 25 22 21 28 25 30 30 34 24 25 32 32 35 40 33 40 41 49 53 44 51 35 28 29 32 34 35 38 33
90 90 86 72 66 64 66 78 83 59 72 34 27 20 22 23 25 23 27 24 31 34 31 37 26 30 30 31 35 37 39 46 49 55 62 45 47 39 36 30 38 42 36 38 39
91 89 85 75 73 76 85 86 73 76 75 38 28 30 29 28 27 31 35 32 38 39 38 38 27 29 33 33 38 37 48 52 57 58 68 55 51 51 43 40 40 38 37 39 37
91 88 76 80 59 85 89 72 76 75 42 38 36 31 36 33 32 38 44 48 55 41 58 48 42 38 35 41 41 46 64 76 65 79 72 53 52 50 40 37 36 34 36 33 37
92 83 90 86 92 87 73 70 66 58 47 35 34 34 37 32 36 44 45 54 49 54 68 68 61 49 38 45 49 52 61 85 70 89 82 56 64 46 35 40 37 37 37 44 47
83 92 80 78 88 88 68 80 69 56 42 41 39 42 46 43 40 45 56 56 56 54 63 76 60 48 48 49 46 53 67 58 74 85 92 76 60 45 40 46 48 48 50 57 58
85 78 71 83 87 66 76 68 49 41 42 47 48 52 54 54 51 50 56 54 53 56 57 66 78 57 50 48 47 47 50 72 87 88 88 79 76 64 51 54 46 51 58 59 59
92 56 59 86 73 68 73 64 44 36 42 50 56 57 58 62 60 62 63 55 52 50 55 62 73 65 53 54 61 62 70 69 68 86 97 98 85 61 56 55 55 60 60 63 66
81 58 56 76 70 91 67 46 52 46 46 48 54 55 62 61 66 66 65 58 52 57 63 67 76 87 66 52 56 56 67 69 91 86 92 93 78 48 51 55 63 69 66 66 63
84 79 74 62 84 89 59 56 56 50 52 53 57 54 59 66 70 64 64 57 48 58 63 62 79 84 56 50 53 65 66 68 77 88 85 94 79 50 45 65 69 74 71 67 63
70 83 80 82 81 60 60 63 58 56 53 50 52 54 59 64 61 68 68 64 63 60 72 64 75 70 80 58 71 78 73 71 72 95 87 80 66 55 59 77 75 76 72 70 68
79 73 79 87 76 72 66 62 60 61 54 52 61 62 62 73 73 83 75 69 65 73 68 68 81 82 76 71 73 72 76 73 83 81 89 76 75 64 74 81 78 74 75 67 63
81 84 87 86 72 61 72 61 63 56 57 63 66 67 64 71 66 80 77 81 76 72 80 80 86 90 91 82 83 88 79 81 82 81 83 79 74 70 78 79 82 82 72 74 75
95 89 83 89 80 79 80 61 57 57 59 55 61 66 72 69 69 70 70 68 70 77 80 82 92 96 86 94 94 84 81 83 73 63 68 82 72 87 88 84 76 73 75 80 78

GFSSW_sfc_rhum_018.txt.gz
RH
83 83 82 79 78 81 84 85 90 88 86 85 86 88 88 93 90 67 22 24 30 68 71 28 23 25 22 16 14 18 19 22 19 19 28 20 34 21 24 45 44 64 64 67 71
82 78 79 80 86 88 85 87 91 89 87 87 89 90 91 93 71 24 35 51 68 71 32 28 23 21 16 19 19 19 22 36 18 17 46 33 26 17 31 59 66 68 74 81 81
83 80 81 82 84 84 88 91 91 88 88 90 91 90 92 96 27 20 58 68 77 67 34 31 28 18 22 23 22 44 24 23 23 20 22 26 24 22 39 60 49 41 70 87 87
86 87 86 84 84 85 90 92 91 88 88 90 89 90 93 73 30 18 62 63 69 48 21 21 22 24 28 23 25 22 24 22 23 24 24 26 42 27 32 19 28 46 70 87 86
90 89 88 87 87 91 93 92 91 90 91 89 88 90 81 29 28 19 56 38 22 18 19 22 23 29 31 26 25 24 26 23 24 20 23 24 25 23 21 18 26 56 76 86 84
89 89 89 88 89 90 90 90 90 90 88 88 88 90 54 31 21 22 21 19 22 21 20 20 25 28 30 31 26 29 29 28 26 27 27 27 26 30 21 23 26 63 74 85 85
88 88 87 87 88 88 88 89 88 87 86 87 88 77 31 31 24 22 18 24 25 25 23 23 24 24 32 33 32 30 27 24 24 28 24 36 22 21 22 23 24 53 72 78 78
87 87 86 86 85 86 86 87 86 86 87 87 87 65 31 23 27 19 16 16 18 23 24 25 24 26 27 32 26 26 28 30 24 26 25 20 28 19 21 26 22 28 64 72 70
87 87 85 84 83 83 86 88 88 86 87 85 62 46 31 26 19 20 17 18 19 21 26 21 25 30 27 26 30 33 38 38 28 33 36 34 34 25 25 28 26 27 37 54 54
87 86 85 85 86 87 89 86 85 86 72 51 38 29 22 22 21 19 20 21 21 27 25 26 30 28 33 31 35 45 35 37 40 31 38 47 38 36 35 33 30 30 31 38 40
86 84 84 84 86 87 86 71 40 33 37 30 29 27 22 18 21 19 22 22 22 23 31 34 32 34 35 34 32 33 40 47 43 37 42 49 47 34 29 32 36 34 33 33 35
89 86 84 81 81 81 69 65 69 55 34 31 26 24 23 23 23 21 20 24 26 29 32 35 35 31 30 31 33 37 42 39 38 39 48 45 44 32 31 36 40 42 42 43 44
90 90 88 84 74 68 71 78 76 68 35 29 26 26 24 21 27 24 22 31 27 29 34 38 33 29 30 34 36 40 40 42 42 43 47 46 39 33 28 32 32 33 37 39 41
90 92 86 80 61 76 67 71 82 56 51 34 27 25 22 25 27 24 27 28 27 31 33 35 26 30 34 34 39 47 36 40 43 54 54 48 49 41 39 34 36 34 34 36 36
92 90 86 63 68 66 69 84 84 50 58 34 27 22 25 24 28 30 33 25 39 39 36 38 29 34 38 38 39 41 48 54 53 60 65 50 46 38 41 39 40 39 39 40 38
90 90 82 68 76 80 88 84 69 63 67 40 31 31 30 31 32 33 39 36 41 42 44 47 33 34 38 37 45 42 54 51 61 61 68 61 54 54 49 44 42 42 39 37 38
88 89 81 80 58 87 87 72 70 73 44 40 38 34 35 36 40 41 47 54 59 40 63 52 47 46 39 46 45 49 62 68 67 78 72 57 57 56 45 41 45 48 49 55 57
86 86 89 91 93 87 70 67 62 60 51 41 37 38 40 39 44 49 51 59 54 57 72 72 55 53 43 50 54 56 64 80 61 89 84 62 64 53 45 46 45 47 58 60 62
86 88 80 82 91 79 66 79 69 57 44 42 43 47 49 50 46 51 62 61 61 60 64 79 61 52 53 55 51 60 72 63 78 86 92 79 65 52 52 55 53 60 59 64 66
90 70 78 88 88 63 76 69 52 46 45 49 52 55 57 58 55 54 62 57 58 61 61 70 78 61 53 52 49 52 53 72 88 88 87 79 78 64 62 59 58 65 70 67 64
85 56 61 90 67 66 73 64 46 43 46 52 58 60 61 63 60 65 65 58 55 58 57 65 75 60 55 57 66 65 72 73 73 88 96 98 83 64 64 63 68 76 73 74 66
70 60 64 75 66 89 67 48 55 53 49 54 55 58 63 65 68 69 68 62 52 61 66 71 77 86 63 56 62 66 70 71 87 80 94 95 81 57 57 64 73 78 74 74 70
80 78 72 63 81 89 64 61 58 53 56 56 59 59 62 70 71 66 66 62 58 61 71 68 79 82 47 57 55 69 72 73 79 89 86 92 77 52 52 61 74 80 77 75 73
71 85 79 86 80 62 63 65 62 56 55 55 59 57 62 68 68 75 76 68 67 68 76 67 78 67 73 55 64 80 78 75 79 93 86 80 66 54 54 70 81 81 81 78 78
78 80 81 86 77 73 68 62 63 62 55 58 63 61 63 75 78 84 78 70 64 72 75 70 82 83 78 73 77 78 81 81 87 83 89 71 79 68 71 83 82 79 79 76 71
78 85 89 89 75 62 72 70 66 62 58 66 65 69 67 69 65 76 79 82 75 76 82 82 85 93 94 88 90 95 84 84 86 88 85 83 88 70 82 85 80 81 82 80 88
97 90 84 90 80 76 79 61 58 58 63 59 63 66 71 69 71 75 70 71 79 78 79 83 91 94 89 93 92 78 68 84 81 75 69 77 62 82 86 81 80 83 85 94 82

GFSSW_sfc_rhum_021.txt.gz
RH
80 82 83 83 84 82 82 86 90 88 87 85 86 88 88 92 91 65 19 22 27 75 61 23 20 20 13 12 11 12 13 14 12 13 14 13 12 13 22 36 31 40 46 46 57
82 80 79 80 86 88 89 88 90 89 88 87 89 90 91 93 57 21 31 67 79 73 23 19 19 15 15 14 16 14 16 15 12 12 14 15 12 12 20 32 39 43 51 60 66
83 81 81 80 82 88 87 91 91 89 89 90 90 90 91 91 26 19 59 72 75 60 24 22 18 17 19 18 18 18 17 17 16 12 15 17 16 15 23 22 25 23 47 66 68
86 86 85 83 84 86 89 92 93 89 90 90 89 89 92 65 28 15 60 67 66 37 20 20 20 21 21 18 18 18 18 16 15 18 17 15 15 16 20 13 17 29 49 64 67
90 89 87 87 87 90 92 93 92 90 90 89 88 89 71 28 23 17 55 36 18 17 18 20 21 23 22 20 20 19 18 17 17 17 16 17 16 15 16 14 18 37 62 63 62
89 89 90 89 90 91 92 91 89 89 89 88 88 89 39 30 19 20 18 17 17 17 17 18 20 22 26 22 22 21 20 20 19 19 18 18 18 17 14 14 23 45 55 61 62
88 88 89 89 89 89 89 88 89 88 87 86 88 75 29 29 19 20 16 20 17 19 19 17 19 20 24 25 25 22 18 19 21 20 18 18 17 15 14 14 17 34 48 60 63
87 87 87 87 87 87 88 88 87 86 86 87 87 54 31 21 22 16 15 16 17 19 20 21 22 24 23 24 21 20 21 20 19 22 22 18 22 16 17 18 16 20 29 51 57
86 85 84 85 85 85 87 88 87 84 86 87 58 37 31 24 18 18 16 18 19 21 24 19 23 26 22 21 20 22 20 23 23 26 26 25 23 21 21 26 24 23 22 33 50
85 84 84 85 84 87 89 85 83 79 69 49 30 30 21 20 19 18 17 20 22 26 23 24 24 24 25 19 22 26 24 28 28 24 29 31 29 25 22 24 25 24 23 24 34
86 85 82 83 85 88 75 59 33 34 35 29 31 26 21 17 19 19 19 20 20 26 29 30 25 27 24 25 24 24 28 30 28 28 31 35 32 23 25 27 30 30 28 25 26
90 88 86 85 82 88 74 58 50 48 32 31 26 25 22 21 23 21 20 22 27 28 26 27 30 24 26 25 24 27 29 27 29 30 35 33 27 24 25 28 30 29 30 30 29
89 88 88 86 79 73 72 72 71 58 34 29 26 26 23 21 27 25 23 29 25 30 31 34 23 27 27 31 33 33 29 31 32 33 35 32 28 28 23 25 25 27 28 29 31
88 90 88 78 61 71 64 65 76 61 48 34 27 22 21 24 26 24 29 25 29 27 28 28 23 30 33 31 32 37 29 36 40 40 36 37 30 31 31 28 30 32 31 29 28
90 86 85 62 68 61 64 79 81 51 56 33 26 18 24 24 27 27 30 30 35 33 30 30 29 34 36 32 32 37 41 43 42 44 42 39 31 32 31 33 34 33 35 37 37
90 85 79 64 78 77 85 76 67 52 54 38 28 30 29 32 34 33 38 35 33 39 39 37 30 30 31 33 37 39 43 42 48 47 50 46 39 41 37 40 38 38 45 49 46
91 90 80 73 61 86 82 67 62 63 42 38 34 32 34 37 39 40 45 51 50 38 57 43 38 38 36 38 38 42 45 49 54 58 53 47 42 47 45 41 42 48 50 52 51
91 86 88 88 91 85 69 63 58 58 46 38 34 39 38 38 42 48 46 51 50 50 59 55 42 42 42 40 42 47 49 63 55 62 59 53 50 46 44 43 46 48 49 50 52
86 78 80 84 90 76 64 74 64 53 40 38 39 42 44 45 43 48 56 52 53 56 54 65 48 44 46 45 40 46 59 51 66 73 74 53 50 44 48 47 47 49 50 51 51
77 72 75 86 83 67 73 66 51 47 42 43 48 50 50 53 49 51 52 49 48 56 50 59 64 49 45 42 43 43 46 57 67 77 68 51 58 44 51 48 51 55 57 56 51
73 67 66 89 69 64 70 62 47 46 47 47 52 56 54 56 53 56 54 50 47 50 52 52 63 49 44 53 55 52 57 62 60 72 83 88 53 49 49 49 49 58 61 58 56
70 73 72 75 62 80 65 46 54 51 49 52 54 55 58 60 62 60 60 51 52 52 57 58 66 66 47 50 50 52 57 56 67 64 77 79 62 42 49 51 55 62 62 58 57
75 75 72 66 80 86 63 59 55 52 54 53 58 58 59 64 67 62 60 62 57 55 57 56 68 60 35 48 45 58 57 61 67 75 76 87 56 41 49 53 61 61 58 56 60
68 89 77 80 74 65 63 64 61 56 56 58 57 56 60 65 66 67 65 64 66 61 78 67 68 54 52 40 50 64 65 64 65 90 68 69 52 44 43 50 59 58 54 58 61
77 80 79 85 73 68 64 59 60 58 55 57 58 57 60 72 71 74 66 61 60 70 67 64 77 71 66 62 67 69 69 68 72 68 80 60 57 50 48 56 58 53 60 61 59
75 84 87 85 71 63 72 66 63 60 56 62 64 64 58 63 57 69 65 69 64 63 70 72 81 86 90 77 76 81 66 69 72 71 72 70 71 51 56 64 63 60 59 64 74
96 85 84 89 76 74 73 63 59 59 63 59 62 63 68 62 60 62 65 69 62 65 76 79 87 90 82 80 79 78 58 67 65 68 64 64 47 62 70 63 58 58 66 78 69

GFSSW_sfc_rhum_024.txt.gz
RH
84 79 80 82 85 86 82 85 89 88 86 86 86 86 87 91 89 36 14 24 31 72 57 15 14 13 7 8 8 7 7 8 9 8 9 8 9 9 16 19 23 23 24 29 37
83 81 79 81 79 86 88 89 90 88 87 88 88 88 90 91 31 13 38 72 80 79 16 11 10 8 8 9 9 6 7 9 8 8 8 8 8 10 13 14 16 22 30 35 42
81 82 78 80 80 81 89 90 91 88 89 90 89 90 90 71 16 13 62 72 73 58 14 11 10 9 10 10 10 9 9 10 9 9 8 8 9 8 9 11 10 11 22 35 42
84 85 83 81 81 85 90 90 91 89 89 89 88 89 89 34 18 12 57 64 66 22 14 12 10 10 9 9 9 10 10 8 9 10 9 9 8 10 9 9 11 13 18 30 35
89 88 87 87 87 88 91 91 91 91 89 87 87 87 51 16 15 11 51 31 12 11 11 11 10 10 10 10 11 12 13 12 12 12 12 13 12 12 10 9 11 16 24 26 28
89 90 90 88 90 91 92 92 91 90 88 87 86 90 25 18 13 11 10 10 11 11 12 11 12 11 14 15 13 15 14 14 14 14 14 14 13 12 11 10 12 19 21 24 26
88 88 89 89 89 90 90 89 90 88 88 84 84 51 16 16 11 10 10 11 12 13 13 13 13 13 15 18 17 15 15 14 15 14 16 13 12 11 12 11 11 17 20 22 24
85 87 87 87 88 88 88 89 88 87 85 84 85 35 17 13 11 10 9 11 12 13 14 14 12 15 16 15 14 13 13 13 16 15 17 14 14 12 14 14 13 12 16 24 26
84 84 84 85 86 86 88 89 87 83 83 80 37 20 16 20 12 11 11 13 14 15 15 14 13 16 14 13 12 11 10 13 16 16 16 16 14 15 14 16 16 15 15 15 20
83 81 81 82 85 86 88 86 81 74 52 34 17 16 13 14 13 13 11 14 14 16 14 14 13 13 12 9 11 14 14 17 16 16 16 18 18 15 16 16 17 16 16 16 19
85 82 77 80 85 90 75 39 24 21 17 18 17 16 14 12 13 13 13 13 12 15 15 17 14 17 16 17 16 15 17 17 15 19 22 22 17 17 17 16 18 17 18 19 20
88 87 85 82 85 90 54 26 36 30 21 18 16 15 15 14 14 14 13 14 15 16 18 15 21 18 17 17 18 19 19 19 20 21 26 21 18 17 18 20 20 18 20 19 19
87 87 85 80 88 67 44 50 51 41 18 19 18 16 16 15 22 19 16 17 15 17 17 17 18 19 19 22 23 23 23 27 26 23 24 22 21 19 19 18 18 19 19 19 22
88 88 86 84 58 44 44 48 52 43 21 21 18 16 15 15 21 19 19 17 18 20 17 19 20 23 23 25 26 24 24 30 29 28 20 26 22 23 20 22 23 25 27 28 25
89 84 83 78 49 32 48 52 56 43 37 24 18 13 16 18 19 21 20 17 21 22 22 22 22 24 26 27 28 30 32 32 33 30 27 25 21 27 21 27 27 30 32 32 30
89 83 79 48 54 56 56 56 52 36 37 26 20 20 22 23 24 20 22 20 24 23 20 24 22 24 28 27 28 31 32 32 33 32 39 32 29 26 24 31 30 32 35 36 35
91 88 60 48 45 63 61 44 34 37 31 26 24 22 25 28 28 27 30 34 29 29 32 25 27 26 29 26 29 27 32 36 45 45 39 33 31 36 33 32 32 35 36 37 36
88 81 82 59 58 66 48 38 35 40 31 25 25 25 28 29 31 32 30 31 32 31 28 31 36 30 32 33 35 35 35 49 50 40 35 36 30 34 32 30 32 33 35 36 37
85 55 55 66 67 57 33 47 44 31 27 25 25 28 32 32 30 32 39 37 37 36 36 38 33 33 34 32 33 37 43 39 52 59 57 29 35 34 34 36 35 35 34 36 37
40 43 51 69 64 48 43 49 35 32 30 26 31 32 34 34 34 34 38 38 38 39 38 43 43 36 31 33 34 35 35 48 48 79 49 24 33 26 42 36 37 36 37 39 38
48 35 56 66 55 36 48 41 33 34 33 31 34 36 37 39 36 40 42 40 37 40 35 34 44 36 33 36 40 38 41 43 40 54 64 58 27 33 32 34 38 38 42 41 41
54 41 58 63 41 43 41 32 49 36 35 37 37 38 39 43 44 45 46 41 41 39 39 44 45 42 31 37 38 37 41 38 56 52 56 56 39 28 30 36 40 40 44 42 40
44 47 52 56 67 62 44 42 39 36 38 37 43 40 42 46 52 46 45 48 41 40 43 43 48 37 35 39 40 42 40 42 43 58 58 82 41 28 34 38 31 42 38 36 36
42 76 46 42 44 40 43 44 45 41 43 40 42 39 43 47 44 52 50 50 50 46 75 58 46 35 34 27 32 36 32 37 44 74 51 47 36 28 25 27 32 37 38 36 38
46 62 59 70 52 42 41 39 42 44 42 39 41 40 42 59 49 53 48 50 48 62 53 48 52 45 39 36 35 40 42 38 43 46 60 48 34 29 28 31 34 39 39 39 39
52 59 58 59 50 42 56 44 40 44 38 42 41 42 37 43 35 49 42 44 40 49 51 52 60 66 67 45 42 50 41 39 42 43 41 42 44 29 31 33 42 42 41 43 45
65 57 58 76 56 53 50 42 40 41 49 41 40 45 59 43 38 46 46 46 43 46 56 63 72 77 85 57 62 87 49 39 41 38 43 51 36 33 36 43 45 44 45 48 53

GFSSW_sfc_rhum_027.txt.gz
RH
85 85 79 80 80 84 85 86 87 87 86 85 86 88 87 90 89 37 13 25 31 66 51 12 12 9 6 6 6 5 7 9 8 8 8 6 7 6 8 10 12 14 18 20 30
84 83 82 80 81 81 86 89 90 90 87 86 88 89 89 90 31 10 36 71 77 78 15 10 9 6 6 7 5 6 7 7 6 6 6 6 6 8 10 10 12 15 16 23 28
83 82 82 82 82 84 85 89 91 88 88 89 90 89 90 74 25 10 66 68 69 59 11 8 6 6 7 6 6 6 8 7 6 6 5 5 6 6 7 9 10 12 16 23 26
86 84 84 81 82 85 87 92 90 87 88 88 87 88 88 35 17 10 54 62 69 21 9 8 7 7 8 8 6 7 6 5 6 6 7 7 6 7 6 8 8 9 14 19 23
90 88 86 86 86 87 89 91 90 88 89 87 86 88 49 24 12 9 39 32 12 9 8 8 7 7 7 6 6 8 7 6 7 8 8 9 8 7 7 7 7 10 14 19 22
91 90 89 87 89 91 92 92 91 90 88 86 85 90 34 16 10 8 8 8 8 7 7 7 7 7 7 7 9 9 10 10 10 10 11 11 10 10 9 8 8 10 13 15 17
89 89 89 89 90 89 89 90 89 88 88 85 83 40 20 14 8 7 8 9 9 10 8 9 8 8 9 13 10 10 12 12 11 11 12 10 10 9 8 9 9 11 12 14 15
85 87 88 88 88 88 87 88 86 87 86 85 81 32 17 10 8 8 7 9 9 10 10 10 10 11 11 12 10 11 11 13 12 12 12 12 13 9 10 11 10 9 12 14 15
83 85 85 86 86 86 86 86 86 85 85 77 40 31 14 20 10 8 8 9 11 12 11 10 11 11 14 13 12 10 12 10 14 11 12 11 12 12 11 12 11 10 10 12 14
80 80 81 82 85 86 86 87 83 78 53 24 15 16 11 11 10 10 9 11 12 13 13 12 11 12 10 10 12 10 9 11 11 12 11 11 12 12 13 12 13 13 12 13 13
75 79 79 80 86 87 72 33 24 27 16 15 12 13 10 9 10 10 10 11 12 13 15 12 13 13 12 12 11 10 10 11 11 13 14 15 13 14 14 13 14 14 15 16 19
80 76 79 83 87 89 59 25 29 21 18 13 14 14 13 11 12 12 10 13 14 13 13 12 16 14 12 12 12 13 15 15 14 15 17 16 14 14 15 16 16 16 16 18 20
85 77 84 85 89 73 32 33 32 26 16 16 14 13 14 12 16 15 12 12 11 12 10 14 16 14 15 15 16 16 18 21 20 16 16 16 16 17 16 16 16 16 17 18 19
88 82 84 88 63 34 32 34 36 38 21 17 14 13 12 13 18 13 14 14 13 12 11 15 15 16 17 19 19 20 20 22 22 21 19 16 18 18 17 19 21 23 24 23 21
88 84 87 85 36 24 35 36 41 43 35 19 15 12 12 16 16 17 13 13 14 16 17 19 17 19 20 23 21 24 24 24 24 23 19 18 16 20 17 22 24 26 27 28 27
88 82 82 51 44 39 38 42 46 39 37 21 16 17 18 18 18 16 16 15 16 15 14 17 17 19 22 21 22 22 26 23 25 24 34 18 20 22 19 22 26 28 29 30 29
89 83 61 38 35 46 49 40 28 38 21 21 20 18 19 21 22 19 21 24 22 26 26 20 21 21 23 22 22 21 25 37 41 40 39 24 24 28 26 25 26 29 31 30 30
87 81 71 45 41 53 43 28 37 31 20 18 18 18 22 21 24 24 21 24 24 22 20 24 35 24 22 26 28 27 28 47 46 41 31 24 22 28 25 25 27 27 28 29 30
88 50 45 58 55 50 29 38 29 21 19 20 19 22 24 24 24 26 28 28 29 28 29 28 29 24 26 24 26 30 35 29 40 52 49 21 27 28 26 28 29 28 28 30 30
32 33 38 59 57 46 34 41 27 23 20 18 24 25 26 25 26 26 28 30 30 28 27 30 36 27 23 25 27 26 27 42 41 71 45 18 21 21 35 32 30 30 30 31 31
38 29 53 53 52 26 38 32 28 24 23 23 25 26 26 30 26 30 32 32 28 30 25 23 31 30 22 27 25 26 31 33 31 39 53 46 26 24 24 24 26 27 29 30 32
43 35 50 51 30 27 36 27 43 27 28 28 27 27 29 30 32 34 35 35 32 30 30 32 32 38 22 24 27 27 30 30 49 42 45 53 41 22 22 25 28 27 29 32 31
31 38 46 50 53 42 35 34 28 29 27 28 34 30 31 33 41 35 38 40 32 33 38 34 39 38 28 32 32 32 28 29 33 49 51 73 44 21 24 28 28 30 29 30 30
32 64 39 37 33 30 35 34 37 34 34 30 32 31 34 36 33 42 42 42 42 38 70 52 34 33 39 28 23 29 25 23 29 55 53 44 31 23 22 25 24 24 27 30 30
32 46 42 52 41 33 31 31 33 36 32 29 33 30 33 43 38 40 37 44 41 62 42 40 49 32 31 25 23 25 27 27 30 30 50 40 32 27 26 28 28 27 31 31 31
34 44 43 45 36 36 48 34 31 32 30 32 33 31 29 41 30 38 32 32 34 38 39 38 55 58 55 31 25 30 27 28 27 30 30 32 34 28 26 24 28 31 31 34 40
42 44 42 65 43 42 40 33 30 34 40 27 30 31 46 33 33 34 36 33 32 36 45 50 63 61 80 51 56 82 45 28 28 29 32 46 35 26 28 33 39 45 47 51 63

GFSSW_sfc_rhum_033.txt.gz
RH
89 89 89 89 90 87 85 86 88 91 90 87 90 90 90 91 88 76 40 33 33 63 56 20 19 21 21 20 16 12 17 16 14 16 15 12 10 11 14 17 29 30 42 46 42
82 81 84 86 89 90 87 88 90 90 92 91 91 91 92 91 67 41 37 56 71 76 24 20 20 18 19 14 14 13 16 12 10 11 10 11 11 13 16 19 37 47 42 41 40
80 81 82 87 89 90 90 89 91 90 91 92 91 91 91 88 59 26 51 70 72 76 28 22 17 14 16 14 11 11 12 9 10 8 8 11 12 12 16 22 31 50 46 43 43
82 83 87 89 89 90 90 91 90 90 92 90 90 90 89 75 39 17 58 72 74 45 28 24 18 13 15 14 10 8 8 8 10 9 7 8 8 10 14 17 19 39 39 42 42
84 87 91 88 88 90 92 91 90 91 91 90 89 89 78 59 33 12 58 62 40 25 25 23 15 14 14 10 9 8 10 8 9 12 11 9 10 11 13 13 17 31 33 38 38
92 94 93 91 90 91 92 93 93 92 91 89 87 88 73 40 13 10 10 12 16 22 19 18 14 10 11 13 11 10 9 10 11 12 14 15 15 13 13 11 18 21 34 34 34
93 93 92 91 91 90 91 91 91 90 88 87 86 64 55 40 14 12 10 12 10 12 14 12 13 15 16 16 12 13 15 14 14 14 15 15 20 14 12 11 15 18 25 29 29
92 92 91 90 90 90 90 89 89 87 86 86 85 68 51 17 14 11 10 11 10 11 14 14 15 18 21 15 13 14 18 21 16 16 16 16 24 14 13 12 14 16 15 22 29
90 90 89 89 89 89 88 88 87 86 86 83 74 71 36 22 14 10 12 14 13 14 19 10 15 21 16 20 24 21 24 23 20 14 18 19 21 17 16 15 18 18 19 19 33
86 86 86 87 88 88 88 85 85 85 76 47 40 46 31 16 13 11 13 15 18 22 21 23 22 24 23 25 32 22 22 20 22 18 16 17 23 20 17 18 22 25 32 42 44
84 83 84 85 86 89 89 70 49 52 52 36 25 28 12 11 12 13 12 18 18 22 28 21 26 29 21 20 16 16 18 18 21 17 19 20 22 21 23 24 34 38 40 43 46
84 81 81 82 83 87 84 65 45 40 40 27 18 18 14 14 15 15 15 23 25 26 24 26 30 19 15 17 18 16 20 28 21 18 19 22 25 24 23 28 32 36 40 44 48
84 81 80 81 86 83 68 55 40 52 34 21 19 15 19 18 21 17 18 21 22 24 25 29 23 16 16 24 24 26 31 30 27 22 24 26 29 27 25 26 26 32 36 40 48
84 81 86 91 79 70 63 43 49 66 39 23 20 17 16 17 22 15 16 21 20 23 22 23 18 18 20 26 25 34 29 28 27 31 38 27 38 33 28 30 32 36 39 44 45
86 82 90 84 73 62 50 46 51 60 69 21 19 12 14 23 19 20 16 19 25 21 24 29 24 28 30 28 25 34 31 32 33 38 43 35 37 33 28 41 42 44 43 47 47
83 82 89 72 85 67 62 66 61 72 61 30 19 22 19 22 23 16 20 21 22 19 22 24 24 27 30 25 27 26 32 35 38 43 62 45 41 40 32 39 42 42 43 43 45
82 86 75 57 76 64 77 72 63 81 26 24 24 22 24 27 23 22 23 32 38 37 38 26 29 28 26 32 31 33 44 71 68 78 68 50 52 61 43 35 38 44 47 47 47
84 90 79 73 78 80 79 65 70 34 26 19 22 25 29 27 27 29 28 37 33 40 37 43 48 32 26 32 38 37 40 82 74 86 70 37 55 52 38 38 41 42 46 44 45
85 87 84 87 77 80 74 82 61 32 22 23 23 30 30 30 34 32 38 38 35 35 46 50 42 29 26 27 31 34 53 37 49 72 82 56 47 41 39 43 35 36 37 46 44
78 75 78 78 77 84 77 71 41 26 21 23 31 29 35 30 34 38 39 36 37 34 38 37 48 29 25 28 37 36 30 54 71 75 74 52 55 65 49 43 39 39 41 41 43
86 64 81 79 79 72 78 62 34 23 32 35 34 33 33 32 33 38 42 38 36 35 33 41 50 41 29 32 38 40 45 44 45 67 80 87 58 41 42 44 41 40 40 45 46
83 70 82 83 62 72 64 40 43 31 36 37 39 31 38 34 41 41 51 47 35 38 42 41 46 58 38 30 31 35 41 42 81 65 78 87 63 35 50 48 46 44 39 44 47
77 86 77 82 78 76 48 39 35 32 33 38 40 38 38 45 50 54 56 48 46 51 61 52 51 75 53 45 40 37 31 32 46 75 70 85 69 31 39 44 46 44 38 44 46
89 86 81 81 72 62 51 46 46 40 40 33 35 37 47 46 43 60 59 54 54 49 66 62 46 54 68 46 36 41 32 29 39 87 77 72 56 40 58 60 53 57 53 57 60
78 75 61 77 61 63 49 44 46 50 43 39 43 42 44 55 51 60 58 57 55 63 56 57 64 59 53 40 36 37 37 33 35 39 65 52 46 43 48 58 58 55 52 63 66
85 74 63 64 47 56 60 44 46 40 41 43 46 40 45 52 56 58 53 54 58 52 56 53 81 75 70 54 51 50 45 46 40 41 44 48 51 52 54 52 58 61 62 65 66
71 68 80 79 57 67 62 48 43 46 50 44 43 59 68 56 53 55 52 50 50 53 62 75 82 90 90 78 80 80 64 42 41 40 46 59 56 56 64 67 72 74 71 72 70

GFSSW_sfc_rhum_036.txt.gz
RH
87 85 87 89 91 92 92 89 90 90 88 88 89 90 89 92 90 78 45 31 50 70 47 23 22 23 27 28 21 16 21 22 17 18 16 12 15 15 26 39 45 44 51 46 43
81 80 81 81 86 92 92 92 90 92 91 91 92 91 92 91 77 54 46 61 70 68 23 21 20 21 24 21 19 19 22 18 13 14 12 11 14 15 38 56 60 57 49 45 38
81 81 81 82 85 92 92 93 91 91 91 92 92 91 91 90 62 35 52 60 71 71 24 23 21 20 22 18 15 14 13 13 11 10 10 12 14 15 38 62 55 57 53 46 40
84 81 82 84 87 92 92 93 92 91 91 92 89 90 90 82 40 19 51 69 80 53 30 27 29 28 17 15 14 11 12 10 13 11 10 11 11 13 21 35 46 45 45 48 44
84 83 85 87 89 92 92 93 92 91 91 90 89 88 84 63 39 20 64 69 56 34 28 26 25 17 14 13 10 11 11 10 14 13 11 9 12 15 16 32 44 43 42 44 40
93 92 94 94 93 91 91 93 93 93 92 89 88 88 72 47 20 14 21 41 25 23 22 25 21 15 17 12 10 11 10 10 14 16 15 13 16 14 16 35 46 43 44 43 40
95 94 94 93 92 92 91 91 91 91 90 87 86 71 67 42 25 21 12 12 13 19 18 20 19 17 23 14 13 12 13 14 18 17 16 16 19 15 13 34 43 43 42 42 40
93 93 93 93 92 91 91 90 89 89 88 86 86 74 47 25 22 13 13 12 12 15 18 16 15 22 16 18 14 17 20 23 18 18 19 17 22 17 14 22 35 40 40 40 45
91 91 91 91 90 89 89 89 89 87 86 82 80 77 29 26 15 11 12 16 16 15 16 11 16 22 18 22 24 23 23 25 24 18 21 22 24 19 17 16 20 30 51 50 55
89 88 88 89 89 88 90 88 84 86 83 60 46 52 33 28 14 13 14 17 21 20 19 18 26 27 27 26 30 26 22 24 24 20 19 22 26 23 24 40 49 55 55 54 56
86 86 85 86 86 89 90 80 51 55 57 30 33 36 20 15 14 14 14 19 21 23 30 26 27 30 21 22 19 19 24 24 25 20 19 24 26 31 43 47 53 56 58 60 60
84 83 82 83 84 87 88 65 46 41 38 29 33 30 24 14 20 18 17 24 28 30 29 27 30 21 17 22 24 23 28 30 24 21 20 28 30 32 42 47 50 54 59 62 61
84 82 81 83 86 83 66 57 48 53 56 23 24 19 19 20 24 20 20 26 27 28 29 32 23 19 24 29 30 37 34 37 31 29 28 27 33 39 35 40 44 50 56 56 58
84 83 87 89 74 70 53 39 47 53 41 28 23 19 19 20 24 17 18 23 28 29 24 25 20 24 31 30 33 44 35 33 32 35 34 30 43 38 41 44 45 51 60 62 59
86 86 90 84 69 71 53 63 59 54 55 25 23 15 17 24 22 22 18 24 28 26 26 31 34 34 33 34 30 35 34 36 39 42 47 42 41 40 46 50 51 56 57 59 63
89 85 91 72 84 73 73 78 47 70 52 29 22 23 22 26 25 20 22 22 27 26 25 28 28 30 34 30 31 32 38 45 46 50 62 47 50 49 52 51 52 52 54 56 60
88 93 79 65 74 75 80 54 54 78 30 28 27 23 26 29 28 26 30 37 45 38 40 32 35 31 29 36 32 34 52 71 70 78 72 52 63 66 50 41 48 54 54 54 53
90 90 81 77 87 82 70 53 69 46 34 26 27 31 31 30 31 34 36 43 37 46 41 47 52 35 29 36 41 42 50 78 68 80 64 48 71 59 51 47 49 48 51 48 48
90 88 90 87 80 81 66 80 64 43 26 26 28 36 39 34 31 37 43 43 40 40 45 52 46 35 31 32 35 38 54 41 62 77 77 62 57 45 50 43 43 48 48 55 48
82 82 79 83 84 72 77 76 51 34 30 27 35 35 39 34 38 42 47 42 41 37 43 45 51 36 31 29 33 36 35 54 70 70 73 59 66 70 58 54 51 48 52 50 44
85 61 68 85 69 66 77 69 42 33 35 34 41 34 36 36 38 48 51 46 42 39 37 46 53 44 37 37 42 42 48 49 52 69 80 87 62 55 55 52 52 52 47 51 49
84 68 80 64 46 84 65 45 42 34 35 37 41 45 38 39 50 59 56 51 50 53 44 49 54 57 45 35 36 39 45 52 79 58 82 87 65 48 53 47 45 44 50 53 53
77 91 82 59 56 72 53 43 39 38 39 40 46 43 45 49 62 63 60 61 48 53 60 50 55 72 57 50 44 41 39 42 63 76 69 81 66 39 48 59 56 62 62 65 62
88 86 80 89 76 57 56 50 50 48 43 40 41 40 46 52 56 64 64 58 54 49 72 62 55 56 68 53 45 43 38 35 52 84 75 74 58 53 67 68 66 70 74 75 72
93 74 60 67 62 68 58 47 51 52 46 42 42 45 47 62 63 69 66 63 54 61 56 58 67 65 58 51 46 44 44 42 43 43 61 55 62 71 70 70 69 67 69 67 66
90 84 78 65 47 54 68 53 51 49 45 49 49 52 50 60 56 67 60 65 62 56 62 65 79 74 61 67 63 53 46 54 50 44 48 63 77 66 64 68 72 72 71 74 71
79 76 76 85 55 68 67 48 51 48 51 54 56 65 67 62 63 65 64 57 56 55 73 77 83 80 62 85 70 75 59 48 47 55 55 62 71 71 76 76 81 83 79 80 78

GFSSW_sfc_rhum_039.txt.gz
RH
90 81 81 82 82 87 93 93 93 91 88 88 88 90 88 92 92 84 52 33 49 69 51 25 26 27 28 28 23 19 21 23 57 38 29 26 20 25 41 53 52 50 50 51 65
88 85 79 81 82 83 88 94 94 92 91 90 90 91 91 92 86 62 48 65 75 70 23 22 23 24 27 26 24 23 24 21 31 37 34 14 31 32 52 64 67 62 52 57 59
88 88 81 81 82 83 86 94 94 93 91 92 92 92 92 93 64 31 55 66 76 58 22 24 21 25 30 23 17 17 15 13 13 24 18 14 19 29 60 73 60 62 53 54 57
93 91 85 81 83 84 87 94 93 91 91 90 90 90 91 91 33 25 58 81 78 40 27 28 32 33 27 20 17 15 11 11 12 12 13 15 16 36 44 56 52 48 45 48 50
94 94 87 83 85 88 94 93 93 93 92 90 89 90 89 69 42 21 79 79 51 36 26 28 28 24 17 14 11 14 14 14 13 10 11 12 16 16 26 55 51 47 42 43 45
95 96 93 92 93 94 93 92 92 93 93 91 88 88 81 46 20 20 31 42 34 31 24 26 22 21 18 13 12 12 12 14 15 15 16 15 17 20 32 56 52 49 46 42 40
95 96 95 94 94 94 92 91 91 92 91 88 87 79 72 39 29 28 23 21 25 24 21 22 22 19 18 19 13 14 15 16 18 18 16 17 19 22 32 53 53 50 48 46 40
95 94 94 94 94 93 92 91 91 90 88 88 87 81 53 26 31 24 14 13 15 21 18 17 18 20 17 17 18 18 21 23 20 19 20 18 21 20 40 55 59 58 56 51 59
93 93 93 93 92 91 90 90 90 87 87 85 88 81 31 27 19 14 13 15 18 18 20 13 20 23 21 22 24 24 27 28 23 20 24 22 24 24 24 48 38 59 60 62 66
92 91 90 91 90 90 91 89 85 87 84 67 57 55 33 24 18 13 16 19 22 24 20 22 28 28 28 24 26 26 26 26 24 24 23 27 29 33 31 45 67 71 70 69 69
91 89 88 88 88 91 90 81 56 60 63 32 34 36 31 19 14 14 16 19 21 24 30 28 27 31 25 27 24 26 25 29 27 22 21 28 33 43 60 64 72 75 73 72 72
90 86 85 85 86 90 87 61 41 42 45 40 40 36 29 28 20 19 19 23 26 32 32 29 33 27 24 30 26 28 28 31 30 27 23 34 42 46 49 64 70 70 73 73 73
88 84 84 85 86 87 65 54 53 54 57 33 27 27 24 20 23 21 22 28 28 30 32 32 28 25 27 34 35 40 36 37 31 30 28 36 41 50 50 55 59 64 68 67 68
86 86 88 90 75 64 50 46 60 51 45 28 25 19 19 22 25 18 20 23 28 30 27 26 30 30 31 31 38 44 38 34 34 34 29 36 51 54 52 56 63 67 74 72 66
87 88 88 83 66 75 54 73 64 49 60 26 23 17 19 24 23 21 19 23 28 26 26 33 37 35 34 36 34 38 37 38 40 46 50 46 45 51 53 61 64 71 72 71 66
89 91 91 76 85 68 77 72 47 63 48 30 24 24 24 28 26 23 23 27 29 30 30 34 33 33 36 34 34 35 41 50 57 55 63 52 55 55 63 57 61 64 65 67 64
93 94 79 68 77 79 83 47 49 79 34 31 31 25 30 33 30 28 39 42 41 37 43 37 39 34 34 40 37 40 54 68 70 76 74 55 65 64 53 51 56 63 65 66 66
93 94 84 69 90 84 59 45 64 51 36 30 29 31 34 32 36 38 42 45 40 44 46 51 52 38 32 40 41 47 53 76 64 79 60 55 75 63 57 53 54 55 58 57 58
92 92 93 88 86 73 54 62 68 52 30 31 33 39 43 37 38 40 48 46 44 45 46 52 48 37 33 36 36 44 55 46 72 76 76 70 66 52 56 57 54 54 52 54 60
88 87 81 85 83 70 66 66 61 41 33 31 41 38 42 38 42 46 51 46 43 42 46 48 53 40 32 33 35 34 37 58 70 68 69 65 72 71 62 62 57 60 61 65 58
77 59 62 90 59 58 65 70 55 34 39 32 36 41 39 40 45 54 55 49 47 46 41 48 50 44 41 40 46 44 49 55 59 72 80 86 66 50 58 55 56 58 57 63 67
78 60 78 54 49 85 70 54 49 38 36 42 44 46 43 45 59 59 57 56 58 54 44 54 55 59 46 39 42 44 50 52 68 57 86 86 64 54 62 61 58 61 63 64 61
80 94 87 49 59 77 57 47 46 39 40 44 48 48 50 60 64 66 64 62 49 54 55 51 57 70 51 50 43 47 41 60 64 75 71 78 63 54 63 69 68 74 73 74 72
84 89 80 90 68 55 49 51 54 48 45 42 45 47 50 61 64 69 68 63 56 50 70 59 64 56 63 56 50 43 39 49 55 83 74 71 59 77 77 77 79 81 81 78 73
91 74 66 74 79 76 53 52 54 52 47 44 46 48 51 66 70 75 71 65 56 62 60 55 66 67 62 59 49 45 41 42 42 48 56 50 63 67 76 78 80 81 78 73 72
93 84 81 63 56 65 71 57 52 52 48 52 49 62 55 57 55 69 63 64 52 58 70 70 78 72 67 71 66 55 45 48 54 48 51 72 85 72 73 75 79 78 76 76 72
89 90 73 86 69 65 73 54 53 50 63 60 57 64 66 66 67 69 66 65 60 60 79 77 82 69 55 84 61 54 53 50 50 57 54 83 69 75 80 80 86 84 81 81 80

GFSSW_sfc_rhum_042.txt.gz
RH
90 90 90 81 81 81 83 83 94 94 91 89 89 88 89 92 93 94 63 34 51 67 59 30 30 31 34 32 26 21 21 52 62 50 44 28 44 31 48 56 56 56 71 74 84
87 84 83 86 85 80 83 83 92 94 92 91 90 89 92 93 95 71 54 66 72 70 24 25 27 31 31 30 25 24 27 27 42 39 40 32 25 40 56 66 66 65 74 77 80
88 88 87 85 88 81 83 82 90 93 92 92 91 92 93 94 69 31 59 69 77 55 24 24 25 26 29 24 22 22 20 18 27 34 21 29 34 41 61 70 64 63 80 79 80
93 91 90 89 86 82 84 86 94 92 91 90 89 90 91 94 34 26 80 82 76 32 26 27 30 32 28 22 20 18 14 13 23 38 32 20 23 60 60 46 54 56 70 71 71
93 93 93 91 86 84 85 92 94 93 93 90 89 90 89 71 44 42 80 78 47 32 26 31 34 28 23 18 13 13 15 15 13 18 16 16 20 45 29 62 52 53 62 63 58
93 94 96 95 93 93 94 95 92 92 93 91 89 89 84 48 22 39 47 42 36 30 28 29 28 27 22 16 14 13 15 16 13 12 13 15 20 20 42 64 57 51 58 56 53
94 95 96 95 95 95 94 93 92 92 91 88 86 83 80 43 28 32 27 32 32 28 24 27 25 22 22 17 16 15 16 16 18 17 19 17 21 26 55 61 61 53 51 51 52
94 96 95 94 94 94 94 92 92 91 89 88 86 87 64 30 36 28 24 16 24 28 23 20 21 24 22 19 19 19 22 20 19 18 23 17 20 22 68 64 71 65 60 64 70
95 95 94 93 94 93 92 91 90 88 87 86 91 88 44 28 25 16 17 16 22 21 21 16 21 24 21 23 24 24 27 30 26 22 23 22 26 23 71 66 61 61 68 70 74
94 94 92 91 92 92 92 90 87 88 86 72 63 63 33 24 24 14 16 19 23 26 20 22 28 27 28 23 28 26 26 28 27 26 23 26 37 57 56 55 70 78 80 80 81
94 92 90 89 90 92 93 90 65 64 76 43 37 34 32 26 18 16 17 22 24 25 31 30 27 28 26 26 23 24 24 28 30 25 24 41 55 64 72 74 82 86 86 84 80
94 91 88 88 88 92 92 68 42 41 56 47 44 41 34 30 26 19 19 25 28 32 34 32 32 26 32 28 30 29 30 34 33 29 27 49 60 65 63 76 83 85 86 83 81
93 89 88 87 88 93 80 58 55 55 62 39 38 30 23 25 26 22 23 27 28 30 32 33 31 28 33 36 36 41 35 40 34 34 33 42 49 63 62 68 70 73 76 74 80
93 90 90 91 86 70 55 41 63 53 44 30 28 22 21 24 27 20 22 24 27 30 28 31 34 31 33 34 40 42 40 36 36 33 39 39 46 63 64 71 74 75 79 80 78
92 90 91 85 72 76 46 76 75 44 54 29 26 19 22 23 23 22 24 24 27 31 28 38 40 36 35 39 36 43 37 40 43 48 55 50 47 53 64 71 75 78 78 79 76
91 91 92 85 90 74 81 63 45 62 67 34 24 24 27 29 28 25 30 29 28 34 35 40 37 36 39 38 37 38 47 52 60 59 64 62 61 59 70 64 68 70 72 71 72
92 94 85 67 78 86 77 44 53 66 37 35 32 27 32 35 32 34 41 45 37 41 48 41 41 36 36 40 40 45 53 70 72 74 74 60 66 60 57 58 61 68 71 72 73
94 95 89 75 92 85 54 41 49 47 47 32 31 34 35 36 41 42 45 47 43 41 50 53 52 42 33 42 43 53 51 76 65 82 65 59 77 63 61 58 60 62 65 68 72
96 97 96 93 88 67 50 55 49 56 37 34 35 40 46 40 40 45 52 47 47 48 46 53 50 40 36 43 39 51 57 51 76 78 76 71 67 61 66 68 64 64 65 68 65
93 96 89 90 83 66 55 52 50 54 40 35 40 42 46 43 46 50 54 52 45 46 48 49 54 42 34 36 38 39 43 61 69 64 59 68 72 73 74 70 66 66 67 65 67
80 71 69 89 56 56 59 56 60 47 42 32 41 45 43 44 50 58 55 53 52 50 45 51 50 45 43 43 48 47 52 60 65 73 78 84 65 58 64 64 65 63 63 68 75
75 67 84 57 52 84 70 57 56 39 44 45 44 42 45 51 61 60 56 55 62 58 44 57 56 58 47 42 48 48 52 50 65 57 86 85 70 65 70 62 62 69 72 73 70
87 97 89 49 65 78 60 49 50 42 46 46 51 49 55 63 65 67 67 63 52 56 51 48 57 67 51 44 45 50 51 63 64 74 74 78 57 61 70 75 76 80 79 80 74
88 95 87 84 66 55 48 49 54 52 51 46 49 49 58 69 67 71 70 63 56 54 70 59 63 55 58 48 53 46 42 60 56 81 70 69 59 76 78 79 85 86 84 79 76
89 81 75 85 86 61 44 47 54 53 50 46 48 50 58 70 75 77 72 67 54 65 66 54 64 69 71 66 55 47 44 48 48 52 53 51 63 55 74 84 88 86 82 76 73
94 79 74 70 76 64 68 58 52 55 54 53 50 66 58 62 55 70 64 62 45 64 73 70 76 72 75 75 68 60 50 49 50 50 54 64 62 72 80 81 89 86 81 76 76
96 90 68 86 80 74 75 60 54 56 66 61 55 62 67 66 70 74 71 70 61 65 80 75 79 72 72 78 57 57 52 52 57 55 57 70 61 82 87 84 89 87 81 77 76

GFSSW_sfc_rhum_045.txt.gz
RH
89 87 82 81 82 89 84 85 83 83 92 90 89 89 88 92 92 83 48 31 45 70 51 25 22 22 23 22 18 15 18 39 40 37 43 39 41 38 42 48 50 53 66 71 82
86 85 83 81 82 84 87 82 82 83 92 92 91 90 92 93 90 64 48 71 73 71 21 20 21 24 24 22 20 17 19 28 34 36 56 51 37 40 50 51 52 66 79 81 81
86 88 88 88 83 86 88 82 83 82 92 92 91 90 93 89 60 26 67 72 74 58 20 20 20 21 23 19 19 18 18 18 30 29 37 42 30 43 49 51 47 61 83 82 81
91 91 89 88 85 86 88 83 84 89 91 91 90 90 92 86 27 18 87 82 74 29 22 25 22 26 25 21 17 16 14 18 28 30 24 27 26 46 42 37 44 59 72 76 77
93 93 92 90 88 86 85 84 87 93 91 90 90 90 78 57 42 45 82 75 41 25 24 24 28 26 24 20 14 14 12 12 13 22 17 19 27 38 35 50 51 65 69 71 67
92 94 94 94 94 94 94 94 95 93 92 90 89 90 71 43 20 43 47 40 31 26 24 26 24 24 21 16 13 15 14 13 14 19 15 16 18 25 34 49 56 65 64 62 57
93 94 95 96 95 95 95 94 94 92 90 88 86 80 70 43 23 32 32 31 30 25 24 24 24 20 20 17 13 14 16 16 15 14 14 14 16 17 48 47 53 59 59 55 47
93 94 96 96 94 94 94 94 92 91 90 88 85 81 56 30 31 27 26 19 26 25 21 20 24 23 17 17 18 16 18 18 15 15 18 14 18 20 58 50 50 51 50 49 52
93 94 95 94 93 93 93 92 90 88 87 86 82 77 45 30 22 17 17 14 18 24 23 17 21 23 18 20 20 20 19 20 18 17 16 16 20 34 48 58 57 54 54 53 56
93 94 94 92 92 92 94 90 87 87 83 72 64 60 33 22 24 15 15 18 21 24 23 23 24 22 21 18 23 23 21 22 20 18 20 22 35 44 50 54 58 61 60 61 63
93 93 93 92 90 93 90 77 58 60 72 43 38 39 29 26 23 14 14 20 22 26 26 27 23 22 18 20 17 19 20 20 20 20 32 39 45 53 57 58 63 64 66 67 70
93 93 92 89 89 93 86 63 46 44 54 52 46 42 36 29 26 17 19 23 27 29 26 25 26 21 27 21 23 22 24 26 26 27 30 41 50 55 57 66 65 67 67 68 70
93 93 90 89 90 92 84 65 54 51 62 41 43 36 24 26 25 19 22 26 26 28 27 31 23 26 30 31 30 32 30 29 26 27 30 33 35 49 61 63 66 65 64 64 62
93 93 91 92 78 75 61 48 52 62 45 32 30 24 22 22 27 17 20 23 26 28 25 30 29 28 30 32 30 36 30 29 27 24 28 31 26 40 57 66 67 66 63 62 61
94 92 92 84 77 62 46 73 69 52 55 30 24 17 20 22 22 22 25 22 27 27 26 31 32 31 33 32 30 36 34 34 35 37 32 38 28 33 57 68 67 63 61 61 60
94 92 92 87 90 76 73 60 55 58 64 33 24 23 26 27 25 21 28 26 27 35 33 34 28 29 30 34 33 40 38 42 45 43 46 46 43 38 49 53 61 58 58 59 58
95 94 86 71 72 85 76 54 54 63 38 33 30 27 30 32 32 34 38 40 32 41 43 36 34 30 32 33 33 35 40 48 50 55 47 48 52 42 43 45 52 55 56 57 55
96 95 92 78 84 85 59 46 55 46 46 30 29 32 34 33 38 38 38 41 38 35 41 42 38 31 30 31 35 41 38 62 55 60 52 47 52 41 46 46 46 49 49 53 56
96 97 90 88 86 80 54 55 54 44 41 33 33 38 41 38 38 42 43 40 38 36 40 46 40 30 32 34 31 44 46 41 62 64 60 46 46 42 52 56 51 49 52 55 54
89 90 86 91 92 68 55 56 39 47 37 35 36 42 45 40 42 44 43 44 38 39 39 44 48 33 28 30 35 33 39 51 54 62 44 40 50 41 56 54 56 53 53 54 54
91 83 77 90 69 58 59 54 51 49 41 34 40 42 42 43 46 47 46 46 42 40 40 41 47 40 34 33 39 40 45 53 50 53 48 51 32 47 48 50 54 50 53 56 60
82 71 87 70 58 72 61 47 54 43 43 45 40 41 44 48 52 51 51 46 56 47 40 43 52 53 36 33 36 36 41 46 53 49 68 61 41 50 55 51 53 54 60 60 55
74 93 95 59 71 69 58 48 45 43 44 43 50 47 54 59 59 58 59 58 47 45 50 47 53 56 42 34 37 40 43 46 51 59 62 79 37 52 58 61 57 60 62 60 57
91 93 88 72 66 56 52 47 47 53 50 46 50 52 59 62 62 66 62 56 55 50 73 57 52 50 50 39 43 42 45 47 46 62 52 49 34 44 58 64 66 65 62 59 58
85 84 78 85 72 58 46 50 47 53 50 47 50 51 56 67 65 68 60 54 49 67 60 51 53 51 57 56 45 36 37 50 43 43 51 39 43 35 44 57 64 64 64 63 57
90 77 70 75 72 54 61 57 51 53 53 51 54 57 52 60 53 67 60 55 45 57 62 59 67 56 62 61 56 49 41 40 43 39 41 42 41 34 53 60 70 70 65 62 57
96 81 63 83 80 62 64 60 52 58 66 59 55 57 61 60 63 68 67 65 55 61 70 62 72 67 65 60 46 63 48 43 43 44 38 44 36 64 70 68 70 70 65 61 56

GFSSW_sfc_rhum_051.txt.gz
RH
86 86 87 88 88 87 86 85 87 88 82 82 83 88 88 90 89 43 29 20 25 68 64 12 12 10 8 8 7 7 11 12 30 40 25 30 32 66 29 24 29 27 30 29 57
83 84 84 86 90 92 86 87 87 88 85 83 88 89 91 92 50 24 24 62 68 76 14 12 11 8 8 8 8 8 11 16 17 37 66 32 24 25 26 27 29 33 45 53 56
83 85 86 86 89 91 87 86 88 86 84 83 90 90 92 77 34 13 69 70 73 57 11 10 8 8 9 7 8 8 12 13 12 24 22 20 26 28 29 25 25 28 52 52 45
88 88 87 85 88 91 88 90 84 86 84 88 88 88 90 48 25 14 78 79 74 20 14 12 10 10 10 9 8 11 10 9 18 31 16 21 20 25 26 47 17 36 37 43 40
91 91 88 86 88 92 93 94 92 90 90 88 86 87 56 32 19 24 72 73 27 16 14 12 13 10 10 8 10 11 12 18 36 14 18 19 19 39 22 18 19 31 33 36 35
90 90 90 90 92 93 94 94 94 92 90 87 85 90 46 29 10 14 17 18 14 14 13 12 12 9 11 10 10 11 15 19 16 18 18 20 21 20 21 19 29 34 33 31 30
90 89 90 91 92 93 93 93 93 92 89 85 84 51 35 23 10 13 16 14 13 13 14 12 11 13 14 15 10 11 20 17 14 17 18 17 19 20 21 22 28 29 27 26 23
89 89 90 92 92 93 92 92 91 89 86 84 83 41 32 12 10 11 11 12 13 13 13 12 13 16 18 11 12 15 15 18 12 14 16 15 18 17 22 24 25 25 25 25 23
88 88 89 92 92 92 91 91 89 86 83 79 62 41 25 24 13 9 9 11 12 14 14 13 16 18 16 14 14 12 17 16 14 12 12 15 15 17 19 22 26 26 26 26 25
88 87 89 92 92 91 90 88 80 81 65 37 30 40 26 14 11 11 8 9 13 16 18 18 18 17 15 14 17 14 13 13 14 14 11 10 14 21 22 18 24 27 27 28 30
87 87 90 91 91 89 79 42 39 44 37 23 20 18 15 12 11 10 8 10 11 16 22 17 19 19 15 11 10 10 9 10 9 8 9 10 14 16 21 22 27 29 32 32 32
87 87 90 90 89 88 62 32 26 37 39 21 17 18 16 14 16 10 8 12 14 22 16 17 23 16 10 9 10 12 13 12 10 10 13 12 15 18 28 28 27 28 30 32 35
87 88 89 89 88 76 42 31 28 32 40 20 15 16 15 13 14 9 10 11 13 14 18 21 20 15 12 12 12 13 15 16 14 13 12 14 18 22 23 24 26 26 27 30 36
87 89 89 91 80 38 37 27 25 35 43 21 18 14 12 14 15 9 9 11 13 14 14 30 23 14 13 12 13 17 15 13 14 16 17 14 18 22 24 30 32 33 33 34 36
88 90 91 98 57 34 36 27 30 49 53 15 12 9 10 13 12 11 10 11 15 14 17 18 16 15 14 16 16 22 16 15 13 14 21 16 13 25 25 29 31 34 35 35 36
91 92 92 73 61 40 36 44 50 51 48 17 13 16 16 14 12 11 11 11 14 15 14 26 15 15 17 18 17 18 19 18 17 17 25 15 16 17 22 20 26 30 32 35 37
93 93 85 40 40 38 50 55 48 46 17 16 16 15 16 15 14 13 15 15 15 20 22 18 16 18 17 19 18 17 20 32 33 28 28 20 21 15 21 21 20 31 34 37 38
94 93 84 45 38 55 53 55 48 23 21 13 13 15 17 14 14 14 14 14 12 14 16 20 28 18 16 18 19 19 18 28 31 29 21 22 17 18 23 21 23 28 32 36 35
94 73 64 58 56 60 51 56 41 22 15 16 16 17 17 14 15 17 18 15 13 14 20 22 21 18 19 18 17 21 23 20 26 31 39 16 17 26 24 25 27 29 32 36 31
57 57 53 54 60 62 59 48 28 17 17 16 21 16 19 18 19 19 17 14 17 19 18 17 24 19 20 19 20 21 19 28 26 41 32 14 15 18 26 26 28 29 34 32 30
54 56 42 49 58 57 58 40 25 17 22 20 18 18 16 18 18 18 16 21 18 22 22 16 21 26 22 21 16 24 23 21 22 26 35 24 15 17 17 22 25 27 30 29 30
62 62 58 57 47 51 50 31 28 18 24 26 22 17 19 18 21 19 17 17 20 19 21 20 22 26 24 18 18 19 20 21 38 29 30 37 22 16 19 21 22 23 26 26 28
65 62 86 55 54 63 39 31 22 21 22 26 22 17 18 21 25 21 19 36 25 26 22 25 24 32 28 24 23 24 19 19 22 30 34 53 25 18 21 21 21 21 24 26 30
49 80 98 79 37 46 44 36 30 23 24 22 20 18 23 22 20 26 26 35 34 26 59 41 23 25 34 24 20 30 22 20 23 42 32 21 16 17 19 19 19 22 24 29 36
56 45 55 67 46 55 38 32 29 25 27 26 26 25 26 29 26 29 28 37 35 58 33 31 35 25 22 24 23 21 21 21 24 22 32 21 14 9 11 16 18 19 23 32 36
59 39 40 38 40 51 50 38 27 20 24 31 29 21 22 27 28 28 28 33 33 37 35 30 37 35 40 28 28 28 22 20 18 19 15 15 15 11 12 13 16 20 25 32 34
59 48 44 55 48 45 42 33 24 21 36 30 25 21 29 29 33 31 26 25 26 36 39 38 39 46 41 32 31 62 34 22 18 17 19 25 18 17 19 19 18 22 28 31 34

GFSSW_sfc_rhum_054.txt.gz
RH
84 84 87 88 90 91 91 89 90 89 89 84 84 85 87 91 88 45 40 24 25 63 59 15 12 11 10 10 8 6 11 14 13 25 44 50 74 73 45 41 32 37 49 63 58
82 82 82 86 90 91 92 90 89 88 90 85 84 88 91 92 64 36 28 63 65 68 15 15 12 11 10 9 8 9 13 12 14 32 46 57 63 76 52 77 51 61 55 58 67
83 83 84 85 88 90 91 90 91 88 87 88 89 90 91 79 44 17 72 72 71 52 14 11 10 9 10 8 8 9 12 11 34 35 40 50 63 68 25 36 21 53 60 60 64
87 87 86 85 86 90 91 93 93 90 88 90 88 88 89 58 33 15 75 72 75 18 15 14 12 11 10 11 8 10 9 15 33 35 35 41 56 29 25 26 31 45 47 46 58
90 90 88 85 87 90 92 94 94 91 90 89 87 87 55 38 26 22 74 74 28 16 14 13 12 10 11 8 8 10 11 26 28 24 25 20 34 36 37 30 32 39 38 40 45
90 89 89 88 89 91 92 93 93 93 90 88 85 90 53 39 11 13 15 21 15 14 14 13 12 10 11 10 10 12 13 25 24 27 29 28 40 36 32 32 28 29 36 36 47
89 89 88 88 90 92 92 92 92 92 89 86 83 52 42 31 12 10 14 13 12 13 14 12 11 12 13 16 10 14 20 19 18 26 21 29 34 31 24 28 28 27 29 27 27
89 88 88 88 90 92 92 92 91 90 87 86 83 48 40 14 11 11 11 12 11 12 13 12 13 14 19 15 11 16 20 21 12 14 19 24 35 23 23 28 28 27 27 27 26
89 88 88 88 91 92 92 91 90 87 85 82 63 47 33 21 14 10 10 11 11 13 13 12 15 20 18 20 21 18 31 21 17 11 17 21 23 22 22 23 26 26 26 25 24
89 88 87 88 91 91 91 90 78 81 68 38 33 38 29 18 10 9 9 10 13 16 18 18 20 22 19 19 26 22 20 17 17 12 14 18 17 18 21 25 28 28 28 28 26
88 87 86 89 90 91 80 53 48 55 40 26 22 21 14 11 11 11 10 9 11 16 21 18 23 25 21 19 14 14 15 16 15 11 12 12 15 18 17 21 31 27 28 29 30
88 87 86 89 90 88 72 42 27 35 45 28 20 17 14 14 16 11 9 12 15 20 24 23 31 19 17 16 15 11 14 11 10 8 11 11 14 13 17 18 24 27 29 32 33
88 86 87 88 88 81 52 36 24 29 43 26 22 13 13 14 16 12 9 11 18 24 19 37 47 30 21 13 12 16 24 26 15 10 10 14 13 18 18 18 21 26 29 32 38
88 87 88 91 84 47 43 31 28 36 51 24 20 13 13 13 16 10 8 10 13 26 26 34 25 28 21 14 14 29 21 22 18 21 18 20 33 35 21 25 25 28 29 32 35
89 87 90 99 67 43 34 24 30 47 69 17 17 9 12 15 12 11 8 10 16 14 15 27 27 25 17 14 17 31 20 24 14 15 26 30 34 35 25 25 28 30 31 34 35
90 89 90 77 69 53 45 49 44 70 52 17 11 14 14 14 12 9 10 11 11 14 15 18 21 23 20 15 14 21 25 19 17 21 44 33 35 30 28 24 28 29 33 35 39
90 92 88 44 49 44 51 63 65 60 16 18 14 15 16 17 15 12 14 15 18 23 22 22 18 14 16 16 16 18 23 38 77 68 40 14 26 31 35 36 31 31 34 38 39
94 94 83 53 46 53 59 79 61 27 24 12 13 15 18 15 15 14 14 16 14 14 15 25 30 17 16 16 44 36 18 57 57 72 37 29 22 24 20 20 23 27 31 37 40
94 77 67 66 66 64 75 83 50 26 16 17 13 17 18 16 14 15 16 14 12 13 21 35 28 29 15 13 27 22 25 22 25 27 50 23 14 27 22 23 24 29 33 40 41
73 62 59 63 70 71 89 69 40 25 15 15 19 16 20 16 17 17 16 14 13 11 26 40 58 35 18 17 17 19 15 32 29 52 47 19 18 30 28 26 26 31 36 40 38
70 59 50 61 66 68 76 59 43 20 17 20 18 17 16 16 16 18 16 13 12 17 18 26 55 28 21 21 16 23 25 20 18 31 56 57 27 25 22 24 27 28 33 38 37
67 58 58 64 71 51 61 44 38 28 17 22 21 17 17 16 18 18 17 15 16 16 21 18 24 32 24 16 15 18 22 20 54 34 40 53 35 17 21 23 23 23 29 32 32
64 64 75 64 62 54 44 41 33 27 21 24 27 19 17 19 21 19 18 29 19 20 23 23 30 43 27 22 20 23 17 17 22 36 43 78 38 18 17 20 20 22 27 29 32
55 81 99 90 43 41 47 44 38 28 21 19 22 19 19 21 19 23 21 32 29 24 57 44 27 27 40 23 23 27 22 18 22 67 48 40 24 17 20 20 18 22 24 28 31
57 51 57 93 73 47 44 38 36 32 23 21 23 22 21 28 22 23 21 38 33 52 33 31 32 22 19 18 19 24 22 19 21 24 40 33 20 14 14 20 19 19 22 24 30
58 46 55 54 55 52 47 47 36 28 25 28 29 22 20 26 23 25 24 36 35 37 34 31 42 37 40 28 24 29 23 22 21 20 18 20 19 13 14 15 17 18 20 22 31
52 46 55 62 57 50 50 47 38 30 26 21 26 26 29 25 27 32 27 27 24 38 41 37 50 58 64 35 36 60 36 26 21 18 20 27 22 16 17 18 22 22 19 26 29

GFSSW_sfc_rhum_057.txt.gz
RH
88 88 87 88 90 91 91 92 92 91 89 88 88 86 88 92 91 60 64 50 47 62 57 22 20 23 18 20 16 18 20 18 17 41 67 56 62 61 66 61 60 74 68 65 75
86 85 83 87 90 91 91 92 92 92 92 89 91 91 92 92 85 54 49 55 62 67 22 19 20 20 22 19 17 18 23 20 38 47 62 59 61 65 59 59 63 70 75 76 77
87 87 85 88 89 90 91 92 93 93 93 92 92 92 92 91 68 30 72 73 69 56 20 17 16 16 19 16 14 15 18 30 44 46 52 59 60 60 60 66 58 70 67 81 66
89 89 89 88 88 89 91 93 93 93 92 92 91 91 90 85 42 26 74 77 76 29 20 20 20 24 20 16 13 15 28 41 46 47 51 61 62 52 63 49 47 59 67 78 69
89 90 90 89 88 89 92 93 93 93 92 90 89 90 80 62 47 27 79 74 38 24 20 22 22 19 18 14 14 13 33 34 37 37 39 38 42 38 43 64 60 57 72 79 74
89 90 89 89 88 90 91 92 93 92 92 90 89 90 86 62 20 32 37 37 26 20 17 18 20 17 18 17 20 18 29 33 34 32 36 31 37 42 63 65 75 61 67 81 85
90 90 89 88 88 89 91 92 92 92 91 88 86 70 61 47 21 20 18 20 20 18 19 18 18 22 25 23 17 23 28 32 32 33 32 41 46 48 45 63 73 50 61 73 80
90 89 89 88 88 89 92 92 92 91 91 90 86 72 70 26 28 22 20 17 18 18 18 18 20 24 30 26 20 24 26 32 29 27 31 30 42 43 40 41 45 40 54 54 80
90 89 89 89 88 90 92 91 92 90 90 87 86 76 62 30 30 19 15 16 16 17 23 13 24 30 27 34 28 25 38 30 28 30 31 33 38 38 38 38 42 43 39 44 38
91 89 88 88 88 92 92 90 86 89 75 56 48 61 43 27 18 14 14 14 19 28 27 29 29 33 28 25 37 31 32 26 26 41 34 34 33 37 34 34 39 40 36 34 36
91 89 88 86 88 91 92 73 72 78 62 50 39 35 20 17 15 16 13 15 16 29 35 29 32 34 27 25 23 22 23 25 21 18 25 26 32 33 36 48 43 57 38 34 35
93 89 87 86 88 89 94 78 50 53 68 43 36 31 23 18 22 18 14 22 26 34 33 32 40 28 24 22 23 23 25 27 18 16 18 22 23 24 43 43 32 38 55 40 54
94 90 87 86 88 94 83 60 39 46 73 43 33 36 29 17 22 21 16 18 28 30 36 39 36 31 32 35 34 28 33 29 26 23 16 18 26 31 26 47 45 35 45 40 52
94 90 86 91 90 76 75 51 52 56 90 43 29 29 23 15 25 16 14 15 29 32 32 38 31 27 33 35 28 39 26 27 27 33 32 28 54 39 32 28 45 42 45 56 51
95 90 89 86 96 82 57 59 50 63 95 33 28 16 13 22 21 19 14 16 22 26 38 34 36 37 35 31 26 36 25 30 32 33 39 37 50 40 31 36 34 40 43 48 52
95 91 90 90 96 77 60 59 68 93 90 30 21 19 23 21 20 16 15 18 17 20 23 31 26 28 34 23 22 26 29 37 46 44 53 34 42 46 38 32 36 37 44 51 56
94 91 90 56 76 61 67 81 96 99 28 24 21 20 23 24 21 20 18 22 26 32 38 26 28 22 26 34 28 31 38 63 72 77 67 32 42 39 36 42 38 42 47 58 64
96 94 92 64 68 79 84 94 99 44 42 20 19 22 25 22 22 21 20 27 23 25 29 41 44 33 26 29 36 37 44 65 70 82 61 44 48 39 33 34 33 37 47 54 58
96 95 90 73 71 81 97 93 73 46 27 28 18 26 27 22 23 24 25 24 21 20 31 45 41 35 27 25 26 47 65 43 49 57 59 45 41 37 32 40 46 44 50 57 53
98 93 84 71 81 90 99 74 62 36 30 32 31 24 30 25 26 26 26 20 20 18 28 54 55 48 40 31 25 30 38 48 54 48 55 40 39 51 40 37 44 47 56 58 55
97 95 70 63 79 96 89 72 58 39 33 36 30 26 25 28 24 26 27 21 19 29 36 47 53 51 41 42 37 34 35 32 34 55 62 73 46 40 40 38 42 49 50 56 55
97 95 67 70 97 87 84 60 58 44 38 42 30 38 36 26 28 28 29 25 23 26 30 41 59 72 52 38 24 24 31 44 65 44 58 68 53 26 31 35 35 41 44 51 47
97 84 76 65 73 83 62 58 50 46 43 39 41 37 36 36 37 35 30 43 28 29 34 42 45 57 48 34 33 34 27 26 35 61 53 75 58 25 26 32 32 34 46 48 46
96 91 96 90 45 58 62 52 54 42 46 40 33 34 39 38 31 35 53 47 42 42 62 47 42 48 57 38 34 40 32 28 35 77 60 58 45 32 28 28 28 26 40 48 42
98 64 78 96 90 62 52 47 52 53 44 39 35 36 38 42 36 32 50 52 46 59 47 43 47 41 32 30 32 30 35 33 33 39 56 44 38 31 26 30 26 28 26 39 44
96 69 80 84 70 78 59 49 46 44 43 41 40 37 35 38 35 36 44 52 50 54 48 44 57 50 58 43 39 42 34 35 33 31 31 34 34 26 26 23 24 25 31 35 48
77 80 60 84 79 82 73 48 44 41 41 34 35 43 46 36 40 43 42 43 44 54 54 56 60 74 74 48 47 60 43 36 34 33 33 40 33 28 28 27 28 29 30 34 46

GFSSW_sfc_rhum_060.txt.gz
RH
88 88 89 88 90 91 91 91 93 92 91 90 90 90 89 92 91 74 69 44 56 69 56 27 25 28 28 23 21 19 25 26 21 39 68 62 68 64 65 59 62 70 72 76 96
88 87 84 88 90 90 90 91 92 93 93 92 93 92 93 94 89 72 56 70 73 75 31 28 22 22 30 25 23 20 25 22 31 59 68 63 67 66 68 65 67 69 83 86 84
88 88 87 88 89 89 89 90 92 92 92 92 93 92 93 93 73 41 66 77 73 64 23 23 22 23 26 25 22 22 20 33 50 57 57 61 71 69 64 69 62 65 90 91 84
89 89 89 89 89 88 89 91 92 92 92 91 90 91 91 96 40 27 69 80 74 31 26 26 27 32 30 23 18 18 23 38 52 55 59 65 68 69 71 54 49 56 86 87 87
90 89 89 89 89 88 89 91 92 92 91 89 89 91 84 63 51 33 77 72 38 25 23 25 30 30 25 19 18 21 45 45 46 44 50 49 47 51 65 77 60 69 77 81 80
91 90 90 89 89 88 89 90 92 92 92 89 88 90 85 63 26 42 40 44 28 22 21 23 23 24 23 26 25 35 40 41 43 44 41 42 46 49 62 67 64 68 84 77 76
92 91 90 89 89 88 88 89 92 92 91 88 87 75 74 41 27 27 24 25 29 20 21 20 21 25 27 29 29 33 44 38 41 38 37 43 40 50 54 63 71 66 79 74 73
92 92 91 90 89 88 88 90 92 91 91 89 86 81 72 35 41 33 29 23 22 21 20 22 22 28 32 29 24 28 32 39 38 31 31 34 50 41 61 64 76 79 77 70 73
94 92 92 91 91 90 90 91 90 91 90 88 89 79 68 39 33 30 26 20 19 23 23 14 24 32 28 34 31 29 37 38 44 31 30 33 42 45 67 61 65 83 81 66 66
95 93 92 91 90 90 92 90 86 89 77 64 55 64 49 27 24 21 20 19 21 30 26 28 33 34 31 34 42 34 34 31 37 37 40 39 40 43 51 49 54 71 84 69 71
96 94 92 90 89 90 94 84 66 75 68 51 38 37 26 22 19 19 16 20 25 30 37 32 33 36 32 27 28 28 29 34 30 28 41 38 35 38 43 52 51 63 74 76 71
95 95 92 89 86 89 95 81 57 52 67 51 44 40 30 29 31 22 18 22 31 36 40 39 45 30 31 33 39 37 39 35 25 25 37 33 35 42 49 43 44 46 45 42 50
94 96 93 87 88 93 92 71 49 48 73 55 45 46 41 37 33 24 21 25 33 36 34 45 38 33 34 40 38 38 42 34 31 29 28 27 36 37 38 45 46 42 44 45 49
94 96 92 88 82 80 85 62 63 60 85 54 47 38 34 24 24 18 19 20 32 33 41 42 35 33 41 38 36 45 32 29 30 31 28 31 45 43 33 46 48 50 54 57 57
95 95 92 81 90 80 65 58 62 69 59 36 35 27 29 21 24 23 18 21 31 35 38 37 39 38 36 33 31 40 34 31 36 42 43 41 39 34 35 39 42 45 53 55 55
96 96 93 91 97 82 68 67 76 86 76 46 32 30 24 23 25 20 20 19 23 34 35 30 33 30 32 31 30 27 34 46 51 52 55 43 42 40 37 30 34 44 46 55 57
97 96 90 69 74 78 81 83 91 87 41 35 30 24 28 29 28 25 22 22 25 33 41 34 34 28 31 31 32 34 45 64 64 71 61 40 47 38 35 33 33 40 50 56 65
96 97 93 68 80 81 89 95 92 58 52 34 24 26 30 28 27 25 26 27 29 28 37 42 42 34 30 34 38 46 43 64 59 69 52 46 50 38 35 33 39 45 59 66 76
97 99 94 81 82 76 96 90 78 62 35 32 26 33 34 28 27 29 30 29 23 25 32 48 46 46 34 35 31 47 55 54 61 64 62 48 40 39 37 40 45 51 64 74 74
97 98 90 77 71 78 99 73 67 48 40 41 40 32 37 31 32 32 31 26 22 23 27 41 55 46 41 35 32 33 40 58 68 50 52 44 45 52 44 50 56 56 68 70 66
97 97 79 73 74 86 88 72 57 42 45 53 47 37 31 34 30 35 30 25 23 29 33 47 45 44 45 41 34 39 41 43 45 58 60 70 48 39 42 45 53 56 60 63 59
92 96 79 76 90 94 81 61 58 47 47 53 53 48 36 34 34 35 32 26 30 35 35 45 56 63 44 37 40 38 39 43 66 44 64 70 50 31 40 40 50 50 54 60 51
93 89 84 74 92 80 69 64 55 47 51 51 51 43 37 39 38 38 36 46 37 32 41 46 55 67 54 41 37 46 31 33 52 62 52 75 56 31 34 40 41 52 56 58 59
95 95 99 88 71 60 67 68 73 50 51 50 51 52 46 46 37 37 50 47 54 43 60 47 50 49 64 46 38 43 36 33 40 74 56 62 44 35 31 32 38 39 50 59 56
98 75 74 95 89 59 58 61 64 60 47 48 50 49 55 50 42 41 58 52 52 56 46 43 46 43 39 37 40 42 38 39 40 44 54 43 47 34 32 30 32 34 43 58 56
98 87 78 90 69 73 58 60 58 48 43 40 48 49 48 44 38 40 51 54 48 53 46 48 48 51 52 49 44 45 39 40 39 36 37 39 39 34 31 35 30 31 34 49 56
80 82 83 68 76 84 66 54 48 41 44 34 45 50 53 46 38 36 44 47 44 50 56 57 63 73 68 53 53 67 47 38 36 37 37 42 35 37 36 33 36 38 31 54 62

GFSSW_sfc_rhum_063.txt.gz
RH
89 88 89 90 90 90 89 90 91 91 90 89 90 89 89 93 92 79 64 38 63 69 59 31 30 32 31 30 26 23 28 31 25 35 45 72 73 78 71 64 67 79 79 93 96
89 88 85 88 90 90 89 89 90 91 92 91 92 92 93 94 95 78 57 71 74 74 36 31 26 24 28 31 26 24 29 24 20 51 63 67 71 76 70 68 71 90 96 95 89
90 89 88 89 90 90 90 89 90 90 91 92 92 92 93 95 62 34 66 77 79 74 38 26 24 25 30 31 26 23 24 20 50 54 62 66 73 76 75 75 67 90 94 91 90
90 90 89 89 90 90 89 89 89 89 90 90 88 91 92 94 37 30 69 82 80 55 31 27 28 32 37 31 22 23 17 34 50 61 60 65 74 74 75 64 56 86 86 84 87
92 90 90 89 90 90 89 89 89 90 90 89 88 91 82 59 40 30 72 72 53 32 28 26 32 33 32 26 26 23 50 52 56 58 62 56 62 59 70 84 72 84 82 86 85
93 92 91 90 90 89 89 89 89 90 91 89 88 90 84 49 22 45 41 36 32 30 24 25 24 25 28 29 33 42 46 47 50 48 51 44 58 56 72 74 86 88 91 92 81
95 94 92 91 90 90 90 89 89 90 91 88 87 81 82 37 30 33 32 25 31 24 21 21 22 29 31 30 33 41 45 45 49 49 39 42 53 61 71 68 88 84 81 88 74
96 95 94 93 92 91 90 89 90 89 91 89 84 86 61 36 46 42 37 28 26 29 21 25 24 29 33 31 29 33 43 55 39 38 34 36 56 52 62 74 84 86 79 76 71
95 97 95 94 93 92 90 90 88 90 90 88 91 82 65 43 38 33 29 25 24 27 30 19 29 32 32 38 36 37 42 51 43 34 35 38 50 57 60 72 81 90 83 76 81
89 95 97 95 93 92 91 88 87 88 86 73 61 59 37 28 29 26 31 22 25 30 30 30 37 38 35 38 46 43 40 38 42 34 44 44 45 68 64 70 78 89 85 76 78
90 91 96 96 93 89 93 78 59 74 69 52 39 33 26 27 28 24 21 22 29 31 39 38 36 42 37 34 32 37 41 40 33 30 43 46 43 46 68 69 84 90 86 75 73
91 92 93 97 91 88 94 82 54 58 64 52 48 42 34 35 42 31 21 23 32 36 45 39 42 32 36 36 39 40 47 43 36 31 36 44 44 40 59 58 68 79 87 76 68
91 91 93 97 88 91 89 71 52 58 68 53 49 49 45 42 48 42 22 29 31 38 41 42 38 34 36 43 38 40 45 46 40 33 37 34 42 42 56 51 55 65 70 71 69
90 91 94 93 87 76 89 69 66 68 70 47 59 49 43 40 32 26 21 25 38 34 40 42 38 38 44 38 38 46 37 40 37 33 40 32 44 44 50 50 52 55 56 57 61
90 92 95 88 80 81 74 62 67 72 54 28 46 33 38 23 24 25 22 26 33 37 38 34 44 42 40 33 33 40 37 36 39 45 46 46 41 36 38 53 49 48 51 50 51
90 92 96 97 92 82 73 75 79 88 70 40 37 40 33 29 27 25 23 23 28 37 42 34 35 35 33 35 33 35 42 44 51 52 53 46 44 45 45 36 42 42 44 50 64
89 93 97 75 78 80 79 78 93 90 36 43 41 32 38 32 27 30 24 28 31 39 42 38 36 33 35 40 38 39 46 58 61 67 56 46 50 44 34 33 36 40 44 52 57
91 98 97 82 76 79 83 95 97 61 55 44 32 32 30 31 31 32 27 29 30 32 40 41 43 34 32 36 39 51 43 63 54 63 52 48 55 40 37 36 40 36 49 57 63
90 97 95 90 78 77 97 95 77 61 45 32 32 34 36 33 32 32 32 30 26 28 33 49 44 48 44 39 32 51 56 54 61 67 70 53 40 33 39 49 51 72 71 75 75
98 94 84 78 83 80 99 80 68 54 48 52 39 35 40 37 35 34 36 30 26 27 28 39 44 47 44 40 39 38 44 60 71 56 53 46 48 43 38 44 59 66 79 87 87
96 97 75 79 91 92 93 75 61 45 44 62 60 53 37 37 36 40 33 29 28 30 33 46 42 43 49 44 40 47 49 50 52 59 61 68 51 40 43 43 49 58 69 80 86
94 95 87 82 99 92 82 64 60 46 43 55 60 60 54 37 39 39 36 30 29 39 34 45 50 53 40 39 39 37 40 46 65 49 68 69 54 33 41 41 50 49 60 75 73
94 85 89 75 93 90 71 63 58 46 50 55 61 56 52 42 39 40 40 36 37 38 45 48 56 62 47 40 46 48 43 47 56 65 63 76 57 32 34 38 40 54 61 71 68
94 95 99 93 67 66 72 73 72 55 56 55 59 57 61 54 42 42 43 51 50 40 67 49 54 48 58 42 41 49 41 40 48 76 58 63 44 35 34 35 37 45 56 70 66
94 76 79 92 89 78 62 65 73 67 57 54 58 60 63 67 50 45 56 56 52 61 50 46 52 48 46 40 39 38 40 43 45 47 54 46 50 38 36 34 32 37 46 63 71
93 90 80 88 69 78 66 64 68 62 57 60 57 55 47 59 48 46 52 56 51 54 49 51 52 48 64 52 47 49 41 42 44 43 47 45 44 37 36 35 34 36 40 52 68
86 79 81 75 75 76 67 61 60 52 56 47 47 52 51 54 49 40 46 47 43 50 55 55 66 69 58 59 58 68 54 43 40 39 40 46 39 41 42 42 51 45 41 54 69

GFSSW_sfc_rhum_066.txt.gz
RH
90 90 89 90 90 90 89 89 89 89 88 88 90 90 89 92 89 84 64 42 66 71 60 36 33 36 33 31 27 26 30 36 28 28 29 77 74 78 75 71 83 94 87 92 96
91 90 88 89 90 90 90 90 89 88 89 91 92 91 92 92 97 73 55 69 72 71 32 28 27 26 31 33 28 27 33 27 20 22 65 73 73 76 74 72 90 85 90 93 96
92 91 90 90 90 90 90 90 89 88 88 91 91 91 92 95 53 32 68 76 75 72 40 27 26 25 32 33 30 27 28 22 22 60 60 65 79 82 80 77 84 86 93 93 89
94 92 91 90 90 90 90 90 89 87 87 89 88 90 91 94 34 32 77 83 76 57 35 27 30 35 38 36 26 29 21 22 57 60 58 63 78 77 79 86 75 81 86 89 91
96 94 92 91 91 91 90 90 89 88 87 86 88 90 85 48 32 27 67 79 56 34 32 29 31 33 34 32 31 24 38 54 61 58 59 62 68 67 89 95 84 80 82 85 89
93 97 94 92 92 91 91 90 90 89 88 87 87 90 84 42 21 47 32 38 37 32 30 29 26 27 32 33 38 48 50 57 65 62 62 51 61 64 93 90 82 84 90 88 89
89 96 96 94 93 92 92 91 91 90 88 87 87 85 86 38 33 37 41 34 33 26 25 22 24 30 34 34 40 48 50 47 56 60 52 54 62 76 86 88 81 85 81 88 88
89 91 97 97 95 94 93 92 90 88 89 89 86 87 62 33 49 44 46 37 31 32 25 23 27 32 36 34 31 44 44 57 45 42 42 48 58 74 77 86 76 76 89 89 81
88 89 93 97 97 96 94 90 88 88 89 88 90 78 62 40 33 29 35 30 25 30 32 21 30 36 34 38 37 37 45 52 43 39 37 43 56 63 71 84 93 82 87 88 79
89 89 89 93 98 96 92 87 83 90 87 79 65 69 38 28 30 28 36 29 26 31 33 35 39 40 40 39 46 45 44 41 43 33 43 48 49 74 66 83 91 93 91 86 80
88 89 90 91 97 94 89 74 52 73 75 56 50 42 26 29 35 28 26 25 31 31 41 40 39 44 37 38 35 36 44 45 40 32 39 42 44 69 69 83 92 96 96 91 83
88 90 90 91 96 91 92 76 57 65 80 54 50 48 37 39 44 36 23 25 34 35 46 41 43 35 36 39 39 43 45 44 38 34 39 50 47 42 68 74 74 90 95 88 82
83 90 90 91 95 90 87 68 56 68 90 53 51 50 46 43 47 44 26 29 34 40 45 44 38 36 38 43 45 44 46 49 42 38 44 43 43 46 54 64 61 73 79 81 76
83 90 89 94 94 81 83 69 66 74 73 46 56 52 50 48 46 38 25 28 40 34 41 42 40 38 43 42 41 50 38 43 46 41 42 38 44 43 49 58 60 61 78 80 78
83 89 90 96 88 86 76 68 74 74 49 29 54 40 47 30 26 27 24 28 35 37 40 35 47 44 42 40 38 41 41 45 43 45 57 49 43 35 53 60 57 56 67 71 74
83 90 91 98 95 83 78 76 84 90 76 36 44 47 46 32 28 29 28 25 32 41 48 36 41 40 38 36 35 38 46 44 52 53 55 48 47 45 50 47 46 49 51 59 59
81 86 94 82 86 83 75 85 98 94 40 42 47 42 41 36 29 30 31 31 37 44 49 42 40 37 36 40 40 41 46 58 60 66 57 49 54 46 38 32 39 48 49 51 54
82 87 92 85 75 79 84 96 96 65 60 45 37 44 41 32 31 32 30 37 33 34 45 44 39 36 34 34 37 48 43 61 54 60 51 49 56 38 37 40 42 40 47 50 59
82 94 95 86 80 71 94 98 74 65 49 39 34 39 38 34 31 35 35 36 29 30 34 48 42 46 47 42 37 52 54 46 63 70 73 56 42 27 38 51 58 68 64 62 62
96 95 84 83 87 93 98 78 64 54 52 56 51 38 41 40 37 36 38 32 28 30 31 38 43 48 45 43 44 40 47 56 67 60 57 49 49 40 32 36 54 74 74 80 74
96 96 76 85 96 96 95 79 62 52 50 60 71 68 41 41 40 43 38 32 29 33 32 42 41 42 50 46 42 50 52 53 54 63 59 69 48 41 38 40 45 53 64 83 91
94 95 79 84 96 90 88 70 62 53 51 52 63 66 62 41 44 43 39 32 32 37 34 45 48 48 42 45 40 45 46 51 66 54 70 70 60 34 33 39 48 50 53 79 90
96 89 90 75 91 83 70 67 66 58 55 56 63 59 64 53 44 44 43 36 39 36 42 47 51 54 43 42 51 53 48 50 58 68 66 77 61 33 38 37 41 45 54 65 83
93 98 96 94 65 68 76 74 70 61 60 55 64 63 63 60 48 46 44 48 49 39 64 47 57 46 47 42 44 59 47 52 52 79 62 65 47 36 33 37 38 38 48 65 79
98 89 80 95 90 77 64 65 68 65 59 60 66 65 62 66 57 47 55 58 54 65 55 45 47 51 47 44 39 39 38 47 47 49 54 48 52 39 36 37 35 35 40 65 76
100 91 84 90 71 78 74 67 70 64 67 64 68 58 62 67 54 53 57 59 50 56 54 53 51 52 65 56 51 56 47 48 46 47 48 50 49 39 40 37 37 39 39 47 71
94 93 95 76 72 78 76 64 64 61 58 58 54 51 63 50 41 41 48 51 55 57 58 55 65 66 58 61 59 65 56 47 46 47 46 54 45 39 41 52 72 76 64 55 70

GFSSW_sfc_rhum_069.txt.gz
RH
92 92 91 90 90 89 89 90 90 88 86 85 88 89 90 92 87 77 45 34 51 71 64 30 24 26 24 20 18 17 21 22 20 19 18 57 60 64 59 57 76 79 73 77 93
94 92 91 91 90 90 90 90 90 88 87 87 89 91 91 91 88 59 46 68 75 68 26 22 21 23 23 23 20 19 23 20 17 16 35 55 61 57 57 62 77 78 80 90 92
93 96 93 92 91 90 91 90 90 88 87 87 88 91 90 89 44 24 73 74 73 64 29 20 19 18 20 22 22 20 21 19 15 19 47 51 57 57 55 55 60 71 92 94 96
88 92 95 93 92 91 91 91 90 89 88 86 86 90 90 72 17 24 79 81 76 44 24 22 20 25 26 25 21 22 18 18 22 50 48 45 54 58 54 59 64 64 73 82 90
88 88 94 96 93 92 92 92 91 90 89 85 85 90 69 40 27 32 81 80 49 34 24 23 24 25 25 24 22 21 26 42 42 48 47 50 52 56 78 78 67 72 82 85 87
90 89 90 96 96 93 93 93 92 92 90 86 86 89 59 37 18 34 37 37 30 25 24 23 21 23 24 25 27 32 40 46 50 48 47 39 49 47 72 74 81 83 81 80 87
90 90 90 91 96 96 94 94 93 92 90 86 86 79 69 36 25 32 37 28 29 25 23 20 19 22 25 27 30 36 38 37 42 42 39 38 44 56 72 75 77 81 86 87 86
87 90 89 89 94 97 97 95 93 91 90 88 88 77 49 31 36 38 37 31 31 26 23 21 22 24 26 24 27 34 33 36 32 38 36 34 40 62 72 73 69 74 76 75 76
84 88 90 89 90 96 98 94 91 88 88 89 80 62 42 36 24 23 29 24 26 28 28 20 24 28 27 28 29 28 32 36 30 32 32 34 42 51 68 68 59 68 66 77 76
82 86 89 90 90 95 96 89 84 86 85 78 64 60 40 22 25 27 33 26 23 28 27 28 31 30 31 27 34 33 33 33 32 27 32 31 39 53 66 70 60 67 70 76 74
68 82 89 90 91 95 89 71 45 61 78 60 46 45 30 27 33 28 25 26 25 27 32 32 32 35 30 30 27 30 32 34 31 26 29 32 37 53 62 71 72 69 67 66 78
80 81 86 90 90 94 85 78 50 64 80 59 55 50 40 35 41 33 23 24 28 28 35 32 37 29 27 30 32 33 34 32 30 28 33 34 32 39 54 64 66 65 70 62 61
79 81 83 91 91 93 85 74 56 63 85 66 55 47 44 38 40 35 25 27 28 33 37 38 31 32 34 37 36 35 36 37 33 32 32 35 30 36 44 53 60 61 60 63 63
79 81 82 90 96 84 82 64 65 74 74 44 48 47 48 43 40 33 24 25 30 32 37 35 32 35 37 37 35 39 33 33 36 33 29 28 29 28 35 49 56 59 64 64 67
78 79 83 91 96 82 68 74 73 74 42 27 55 37 46 34 27 38 24 26 35 34 34 31 41 39 39 37 34 35 35 35 34 34 33 35 29 24 38 41 42 49 55 58 58
79 80 84 93 94 84 82 79 80 87 75 36 48 51 52 43 27 27 26 26 29 36 36 31 31 34 32 33 33 34 36 37 40 41 43 37 33 28 26 31 35 36 44 51 56
80 82 85 82 87 83 84 82 93 89 44 35 52 46 46 41 28 30 32 33 35 42 44 32 32 29 31 31 32 33 37 43 48 49 43 40 40 32 30 28 29 30 41 44 51
81 81 85 85 72 78 86 94 98 62 56 42 37 46 42 32 30 31 34 34 29 30 38 36 35 31 31 29 31 37 36 50 40 46 38 42 42 26 29 28 33 39 38 42 47
82 90 92 86 87 82 96 96 69 63 49 43 33 49 46 33 32 33 39 33 28 30 33 44 34 33 36 34 30 42 42 38 54 56 58 42 33 23 27 31 35 37 50 42 46
93 93 82 76 89 98 98 74 70 52 49 52 56 41 52 39 35 35 38 33 30 30 30 37 37 39 39 34 39 35 39 47 52 52 48 36 37 29 25 25 34 37 43 51 54
92 97 69 80 91 99 94 78 60 51 49 54 64 62 41 41 39 41 37 31 27 32 30 36 39 37 39 40 37 44 43 44 41 47 48 49 35 33 28 27 33 34 41 45 55
95 97 77 79 97 90 82 63 57 50 50 55 55 62 61 42 45 43 38 34 33 33 32 39 47 48 38 33 33 35 39 42 58 47 55 52 43 27 30 31 33 36 39 41 53
98 96 90 72 94 83 69 64 56 56 53 56 58 56 58 55 45 46 43 38 35 35 40 45 46 44 34 34 40 40 39 43 49 56 55 68 44 28 29 28 29 33 34 42 57
99 99 98 94 65 66 74 68 68 54 57 52 56 55 56 57 53 46 44 43 46 37 63 45 49 43 39 33 38 49 45 44 45 62 52 49 38 30 27 28 26 30 31 32 50
98 98 86 94 85 72 64 61 62 63 57 60 63 60 59 58 58 49 49 56 51 66 49 46 46 46 38 32 36 38 38 47 43 43 50 39 41 30 28 27 27 28 31 31 35
99 99 82 83 69 75 70 68 66 58 56 62 66 57 52 62 53 54 48 55 54 53 54 49 49 52 47 47 40 42 36 42 43 39 37 38 40 31 30 30 29 36 43 36 36
93 91 87 72 74 75 68 63 67 55 57 49 54 57 64 49 51 53 50 47 48 51 59 54 62 61 53 50 48 65 52 42 40 40 39 44 34 34 31 32 43 51 58 62 61

GFSSW_sfc_rhum_072.txt.gz
RH
95 94 93 92 91 90 90 90 90 89 87 86 85 86 89 91 84 41 23 29 29 66 65 19 18 16 12 10 12 11 13 11 13 17 14 26 36 49 41 39 46 49 49 54 89
89 88 93 94 92 91 90 91 90 90 89 87 86 86 89 90 44 25 39 66 71 74 18 14 15 17 16 13 13 13 13 12 10 10 13 26 43 40 42 48 48 53 56 66 88
83 84 85 93 95 92 92 91 91 90 89 88 87 87 89 74 32 17 74 70 71 56 16 14 13 15 16 16 15 14 14 14 12 13 14 25 33 36 34 30 32 45 57 89 83
83 85 86 87 94 94 93 93 92 91 90 89 87 88 88 42 12 18 76 78 74 28 16 15 14 17 17 16 15 17 15 15 14 25 29 28 30 32 33 39 42 42 53 86 86
87 88 87 85 91 96 95 94 93 93 92 89 87 88 48 24 16 18 78 75 31 22 15 15 18 18 17 17 18 19 17 25 23 30 31 30 32 35 36 50 46 44 64 79 89
83 88 90 88 88 93 96 96 95 94 93 90 87 90 41 26 13 24 28 27 18 17 15 15 16 16 19 19 20 24 27 30 31 31 29 27 31 31 42 60 71 77 74 78 85
79 83 90 89 87 89 94 96 96 95 93 89 86 57 43 25 13 19 25 20 18 17 16 13 14 18 19 21 24 27 29 28 28 27 25 25 30 32 41 50 53 65 78 82 86
76 81 86 89 89 88 90 95 96 94 92 88 86 54 31 19 16 20 16 21 19 18 17 17 16 20 21 20 23 25 25 23 24 24 25 28 24 33 40 46 42 51 60 84 89
70 74 81 88 89 89 90 94 94 91 85 86 62 50 26 28 21 14 13 16 18 21 21 17 20 21 21 20 23 21 19 21 22 21 23 26 22 31 36 35 34 42 46 56 75
73 73 76 84 89 90 94 93 81 82 75 58 47 48 27 16 17 20 17 13 17 22 23 22 20 22 19 19 23 21 20 22 21 19 21 20 21 29 38 35 34 35 39 48 50
76 74 78 80 88 91 82 53 42 47 69 41 32 28 22 19 24 21 20 22 16 20 23 23 24 25 17 17 17 19 20 21 18 18 20 20 19 22 38 41 39 39 39 46 43
77 74 77 81 88 91 80 56 55 53 53 40 39 35 29 26 30 24 18 19 21 22 22 25 27 19 19 20 21 20 23 22 19 21 25 19 19 17 32 39 37 37 36 36 50
80 78 78 81 88 77 65 56 47 46 58 46 41 32 26 28 25 20 20 16 19 21 23 22 21 21 22 23 24 22 25 24 22 22 22 23 20 21 23 32 36 36 34 35 34
83 79 77 83 76 53 60 50 55 58 52 30 39 35 29 23 28 14 19 16 19 20 18 20 18 23 24 22 23 26 20 22 24 26 22 22 19 17 19 27 34 37 38 36 36
78 79 78 82 70 67 56 61 59 64 26 23 38 26 28 21 17 19 16 19 19 21 23 22 23 26 25 24 23 25 23 24 25 25 24 22 18 16 19 20 20 28 35 36 37
76 81 80 72 66 62 58 65 65 65 33 24 40 42 39 28 22 19 20 18 15 19 21 17 21 23 21 23 23 25 28 28 28 26 31 23 22 14 14 16 17 17 22 32 35
76 81 81 64 60 52 62 69 66 56 23 20 43 42 33 28 25 22 23 26 23 30 29 22 22 20 23 24 25 26 29 35 40 36 32 27 26 19 14 16 19 18 19 22 27
78 84 81 69 54 67 84 92 77 22 28 30 31 41 39 23 22 24 23 25 19 19 19 26 29 21 20 20 21 24 26 34 37 37 28 29 25 16 17 18 17 21 23 24 25
81 80 89 72 64 82 97 90 36 24 28 26 27 46 42 25 22 25 25 22 20 19 22 26 22 18 21 21 20 32 31 25 34 42 38 21 20 14 14 15 19 20 25 28 26
70 84 75 70 76 97 96 62 33 23 25 41 28 34 45 28 28 26 27 21 20 19 16 22 26 22 27 24 27 26 23 34 32 42 38 22 23 18 16 16 19 16 16 27 30
92 94 58 62 86 99 88 55 36 27 31 41 44 35 35 34 22 27 24 24 18 22 19 19 24 35 31 30 24 32 30 28 26 30 37 36 24 16 15 15 18 17 21 22 29
89 99 54 65 98 94 81 45 43 30 38 47 47 50 50 32 30 23 24 20 20 20 26 20 25 29 26 22 23 21 24 27 36 33 36 40 30 15 16 18 20 19 19 22 27
96 96 70 65 95 91 62 52 36 38 33 44 48 44 49 50 36 30 27 27 20 22 24 25 29 35 29 26 29 28 25 25 28 35 32 54 32 19 18 20 18 20 18 21 25
92 99 87 93 52 62 59 52 50 38 38 35 41 42 48 47 42 38 36 34 30 22 54 34 25 28 32 22 17 27 22 23 25 39 30 27 23 17 17 18 16 16 19 20 22
96 95 63 95 91 61 54 43 46 46 41 37 45 44 43 48 47 44 37 43 36 56 31 28 29 25 20 16 16 18 17 20 25 24 28 24 20 16 17 17 16 17 21 20 19
97 80 56 55 69 71 63 62 44 40 41 39 45 41 41 45 40 53 42 39 40 42 34 31 30 29 30 23 23 24 20 20 23 22 22 24 21 15 15 18 20 20 22 23 23
73 48 45 64 62 84 73 60 52 37 38 34 37 31 45 45 49 44 42 40 38 40 42 40 34 39 38 31 33 56 35 24 23 25 25 27 20 16 18 20 21 22 30 32 38

GFSSW_sfc_rhum_075.txt.gz
RH
89 89 89 91 95 93 92 91 91 90 89 88 88 87 85 86 82 26 23 27 24 64 60 14 13 12 9 9 7 8 11 12 9 10 30 14 23 31 31 27 28 32 37 54 64
82 81 82 87 91 94 94 92 92 92 91 90 89 89 88 87 40 21 41 63 62 66 16 13 12 12 12 9 10 11 12 11 8 8 10 12 21 26 27 27 28 37 41 68 73
73 74 76 81 86 89 94 94 93 93 92 91 91 90 88 70 29 14 74 66 67 54 15 11 10 12 13 11 11 10 12 11 9 11 12 14 18 23 24 22 27 29 38 57 70
78 78 77 79 84 88 93 96 94 94 93 92 92 90 86 37 18 16 73 69 71 22 15 11 11 13 13 13 10 13 10 11 11 12 18 18 18 19 21 26 31 28 34 57 70
78 80 80 80 83 86 89 93 94 94 94 93 91 91 50 20 16 21 73 69 23 19 16 12 12 13 15 12 12 13 10 11 16 16 20 20 20 22 21 33 43 36 54 75 73
78 80 82 85 86 88 86 88 93 94 94 94 91 92 43 28 10 12 17 27 18 17 13 12 13 13 15 14 14 14 15 15 17 18 20 21 19 20 32 38 47 54 59 71 89
75 76 79 82 86 87 87 87 89 92 94 92 88 56 40 28 10 10 16 16 14 13 13 11 12 14 14 16 13 17 19 17 17 16 17 18 32 61 28 30 41 53 62 73 85
75 72 78 79 85 86 87 88 88 90 93 91 84 46 38 12 11 11 11 17 15 14 14 13 14 16 17 15 16 19 18 24 54 23 17 18 58 56 29 28 32 43 57 80 85
76 73 72 77 80 87 88 89 88 90 88 80 61 46 28 29 16 11 10 14 16 15 16 15 17 18 16 17 18 17 24 26 21 14 16 18 20 25 25 26 31 33 39 50 92
81 76 73 79 80 86 90 88 69 84 67 44 37 43 26 14 11 10 9 11 15 18 20 21 18 20 18 17 22 21 26 16 15 22 15 15 16 16 24 24 25 30 37 38 43
82 80 76 75 80 87 71 36 36 46 47 26 25 23 17 13 15 15 10 12 15 19 23 20 20 21 16 16 14 15 16 16 15 14 16 16 15 15 23 26 31 29 37 40 40
80 83 78 77 79 86 63 39 29 46 39 20 21 22 23 20 24 14 13 17 19 21 19 19 23 16 15 13 14 16 18 18 15 14 18 16 16 15 20 23 28 32 30 34 35
82 81 82 80 81 67 47 35 31 40 44 24 18 21 17 19 27 15 14 16 17 19 18 21 17 14 17 16 18 19 20 21 20 16 16 17 17 14 16 21 24 28 26 30 31
80 78 78 82 74 42 39 32 36 50 40 16 29 27 22 18 24 13 12 13 15 18 16 18 13 18 18 19 18 22 16 18 19 20 33 17 25 24 14 19 23 27 28 26 30
77 81 76 78 65 55 46 44 49 56 28 15 22 18 19 22 10 15 10 14 16 16 16 18 16 19 21 19 17 21 19 20 20 22 19 17 14 16 11 14 17 22 26 26 26
77 79 81 58 60 55 55 58 62 45 30 17 25 29 33 26 21 12 12 14 12 14 14 15 12 14 16 16 17 18 22 21 22 23 31 19 18 17 13 11 13 12 20 24 25
79 78 71 41 68 45 60 77 51 32 12 15 24 29 31 28 26 17 16 21 20 25 25 18 16 15 16 21 19 20 25 36 39 34 35 22 19 15 16 11 13 13 14 18 23
81 80 63 40 47 66 92 94 42 17 16 19 22 33 35 26 26 20 18 22 17 16 19 23 24 17 17 19 22 22 23 34 48 42 31 23 21 15 12 11 11 12 13 14 17
82 63 54 51 56 78 99 93 38 18 11 14 21 32 36 34 24 22 21 20 17 16 21 21 19 13 15 16 17 21 25 19 29 26 33 21 16 13 11 11 11 12 15 17 20
82 78 60 51 61 88 99 82 31 15 10 15 22 20 30 37 32 26 22 16 17 15 14 17 23 14 16 15 16 21 19 30 26 40 49 21 20 16 14 13 14 13 14 19 21
94 98 55 52 73 95 97 70 41 17 11 17 23 23 23 35 33 30 22 17 15 16 15 16 21 20 18 22 20 22 25 24 21 30 41 38 22 19 13 12 14 13 14 14 18
97 100 54 54 97 96 94 52 43 26 20 17 20 25 24 26 36 34 29 19 16 16 20 18 22 25 22 16 14 15 21 21 33 29 27 30 27 14 14 13 14 14 13 13 16
99 94 64 58 91 80 57 47 41 32 24 24 31 30 35 37 42 32 29 22 16 18 21 20 25 31 25 19 20 22 20 19 22 24 30 58 34 12 13 15 14 15 13 13 15
99 99 88 92 47 49 50 47 44 34 33 19 27 24 32 44 40 36 35 30 30 19 45 33 23 27 32 23 20 24 18 17 21 42 34 28 20 14 12 15 15 14 13 13 12
98 80 54 94 89 56 43 35 42 38 32 28 26 28 32 39 39 36 37 35 33 46 28 26 29 22 18 15 14 15 16 16 19 21 29 23 18 13 12 12 13 13 14 14 13
98 56 48 41 58 60 54 45 36 30 28 31 35 27 27 30 37 30 32 45 36 34 29 25 32 26 24 18 16 17 14 15 14 14 15 16 16 12 12 11 12 13 14 16 16
84 43 47 50 53 65 58 48 37 28 28 24 28 32 33 28 38 40 39 39 39 42 37 32 35 32 40 21 22 39 22 17 16 15 17 22 18 14 13 13 14 14 14 19 21

GFSSW_sfc_rhum_078.txt.gz
RH
80 80 80 84 88 89 90 93 95 93 92 92 92 91 90 89 84 27 23 28 30 68 57 16 16 14 12 12 9 7 12 14 15 12 13 16 17 14 22 26 35 49 68 57 60
74 73 73 76 85 87 89 91 95 94 94 94 92 92 92 91 55 26 37 65 62 64 17 15 13 12 13 11 8 10 14 16 11 8 11 11 12 13 21 38 52 76 60 65 64
72 74 74 76 80 86 87 90 92 94 93 94 93 92 92 81 36 21 68 66 61 51 15 13 11 10 13 12 11 10 13 10 10 10 10 13 23 23 19 46 52 59 38 67 69
72 73 75 75 78 84 88 87 89 90 92 94 93 93 91 55 25 21 70 65 66 19 14 15 12 13 14 13 10 13 10 9 10 10 13 14 29 20 19 37 35 36 46 57 68
75 69 68 74 78 84 86 88 87 86 90 92 92 93 64 32 22 27 72 62 21 15 18 15 12 12 13 12 11 12 12 9 9 12 12 15 16 19 58 47 40 40 59 77 90
74 76 76 77 81 83 85 85 87 86 86 90 90 94 53 46 15 11 14 23 18 18 16 13 12 12 15 14 14 12 12 14 12 14 17 18 25 28 68 57 44 53 66 83 90
77 74 74 76 77 80 82 85 86 86 85 86 88 66 52 37 16 10 12 15 18 15 15 11 11 14 14 17 13 14 17 16 27 29 30 25 27 45 39 31 39 50 58 70 83
76 77 75 72 74 77 80 85 85 84 84 86 89 59 43 16 13 14 12 13 14 12 13 11 12 14 17 15 16 17 16 31 40 32 22 20 37 46 39 39 39 43 56 72 85
78 77 79 76 72 78 82 85 82 82 83 88 68 54 35 22 18 13 11 12 15 14 14 12 15 20 18 21 22 16 26 29 22 27 25 17 34 48 39 39 36 36 50 77 94
80 80 79 80 78 77 84 82 69 72 68 46 38 34 25 15 11 12 10 10 14 17 18 18 20 22 20 22 28 26 34 23 23 21 19 18 15 47 50 21 35 39 57 69 78
79 82 81 81 81 80 68 48 24 56 51 38 29 26 19 12 10 13 9 11 12 18 25 20 25 25 20 18 17 16 17 17 15 15 18 18 13 15 22 23 30 38 38 48 60
78 83 82 82 82 82 64 54 24 41 46 20 17 16 15 15 23 16 11 13 19 22 21 22 27 19 15 15 16 15 17 18 15 13 18 16 15 15 21 23 30 36 39 43 55
79 81 81 80 78 65 53 46 29 28 48 26 17 14 13 13 19 20 13 12 17 21 20 25 19 16 16 17 18 17 20 21 20 16 17 18 18 16 18 20 29 28 37 38 45
80 81 81 75 70 52 52 41 29 41 51 15 13 17 12 13 17 12 14 15 16 19 17 18 15 16 18 20 17 22 15 17 18 21 25 30 32 19 18 23 23 31 30 35 38
82 80 82 74 57 54 51 52 56 61 39 9 12 15 16 17 13 14 11 15 21 19 18 20 17 18 19 18 16 20 17 21 20 23 23 27 30 16 17 22 21 27 31 33 34
82 82 82 61 54 48 47 65 76 68 37 15 20 24 24 22 17 12 13 14 15 19 16 16 12 14 15 15 16 16 19 22 22 25 35 23 23 25 26 19 14 21 26 29 32
83 83 75 44 50 40 68 86 75 45 11 11 21 23 24 26 22 19 18 20 25 30 26 17 15 12 13 17 16 18 26 39 54 48 42 24 26 23 23 16 13 14 20 28 29
85 85 72 50 40 52 81 98 78 21 17 11 14 20 29 25 24 22 20 19 20 21 22 24 25 16 14 19 22 22 25 41 57 87 54 39 29 15 14 12 12 12 14 20 26
84 78 70 65 52 66 96 98 65 27 12 15 15 22 31 25 23 24 24 21 18 21 25 24 22 13 14 16 18 24 29 22 32 33 54 39 35 19 12 11 11 11 13 18 21
92 76 71 60 58 84 98 83 49 34 17 13 18 22 31 31 32 27 24 20 19 19 18 22 28 16 14 15 17 20 19 33 29 52 49 24 23 43 25 16 13 14 17 21 25
98 98 68 59 63 96 97 75 46 32 27 26 21 17 18 19 31 28 25 21 21 22 19 20 27 23 15 19 20 20 24 30 26 30 49 57 30 35 25 19 17 16 17 19 25
97 100 74 62 98 88 94 62 46 30 25 30 29 30 20 21 35 37 29 25 26 21 22 21 28 32 22 16 14 16 23 25 40 33 40 54 40 16 20 18 16 17 16 18 18
98 98 75 66 94 85 56 55 46 36 28 28 32 26 24 32 33 34 32 25 22 30 26 25 30 39 28 20 18 21 18 19 24 27 36 60 38 18 15 15 16 19 17 16 18
100 100 92 93 56 57 56 51 50 37 35 25 30 30 40 54 54 36 35 29 45 36 64 50 28 30 38 30 22 25 19 17 25 47 39 36 27 18 16 17 16 18 23 20 17
100 92 67 97 95 67 50 40 43 40 33 33 36 37 48 62 65 38 44 43 42 44 38 40 40 28 22 19 17 19 21 20 21 21 29 27 22 18 15 13 19 18 20 18 15
100 78 54 56 65 76 65 52 41 30 29 34 38 35 33 65 32 32 33 63 57 46 48 35 39 32 34 21 21 21 17 18 18 17 16 18 19 13 12 12 17 14 13 14 17
96 58 58 66 78 71 66 51 40 31 28 24 27 33 40 51 48 46 33 45 53 55 55 55 41 41 49 28 24 37 25 18 15 15 17 22 19 15 16 15 16 17 18 16 16

GFSSW_sfc_rhum_081.txt.gz
RH
79 77 78 80 83 87 88 89 91 92 94 94 94 93 92 91 91 51 38 40 48 74 62 28 20 20 22 26 21 20 23 21 19 21 17 25 30 23 46 60 63 70 56 72 87
71 71 71 76 83 84 87 88 88 89 91 93 93 93 92 92 79 54 46 67 71 74 24 22 23 22 25 22 21 20 26 21 15 18 18 17 30 28 40 51 56 59 48 74 87
67 68 68 72 80 83 85 87 88 86 86 89 92 93 93 90 62 27 64 72 72 62 23 20 19 18 20 19 19 19 20 14 13 13 18 19 26 47 46 55 60 54 60 77 93
73 73 72 72 75 81 84 86 86 85 85 86 88 92 93 86 32 38 71 73 66 28 22 19 22 21 22 21 16 21 15 15 14 12 18 21 31 54 68 65 52 82 88 84 94
66 71 75 71 74 79 82 83 84 85 84 83 84 91 91 60 45 34 72 64 31 20 22 22 25 21 21 17 18 21 18 15 19 28 26 20 44 45 49 57 52 75 83 90 96
77 68 74 74 76 77 77 79 82 84 84 82 82 90 92 66 22 22 40 36 24 21 21 22 22 17 19 20 22 18 18 17 25 28 28 28 36 40 49 47 53 77 89 88 95
80 77 76 76 74 75 76 79 81 82 82 80 78 78 83 61 21 20 19 21 29 24 24 21 18 20 21 24 20 20 24 23 25 28 32 33 44 50 41 45 51 62 80 86 88
79 79 79 78 78 77 77 77 77 79 79 81 79 87 86 29 28 27 22 24 17 23 22 19 18 26 30 23 23 25 25 32 39 30 30 31 44 43 42 55 60 62 86 88 88
81 82 83 82 80 81 81 80 76 75 78 82 90 90 68 30 31 23 22 19 17 17 21 15 21 29 28 36 39 34 37 34 37 29 35 42 52 46 44 41 54 72 93 90 95
81 81 82 84 82 84 83 74 69 74 67 58 62 76 52 27 16 16 18 16 18 23 24 27 28 35 37 41 49 38 37 37 39 35 37 36 42 55 50 51 63 93 97 87 87
80 80 82 84 84 82 80 64 49 69 71 67 57 44 24 22 20 15 16 17 18 21 34 31 37 41 36 31 26 27 26 36 36 26 30 28 37 56 52 53 69 82 95 95 87
82 82 82 85 82 77 82 78 56 59 66 42 42 40 34 30 28 21 17 21 24 25 29 34 37 29 25 23 23 22 26 27 22 20 22 26 24 29 39 49 55 61 68 78 96
84 83 83 85 82 78 75 65 52 63 70 45 36 29 24 16 16 16 18 22 22 24 26 36 31 24 25 25 24 25 26 27 26 23 24 32 33 27 28 42 42 46 57 69 87
84 84 84 82 81 68 65 52 54 59 96 40 26 26 21 18 22 12 14 23 21 21 22 28 24 24 25 26 22 29 22 21 27 29 38 35 46 34 32 40 47 43 53 67 70
80 84 83 81 82 72 51 64 54 84 88 18 15 15 16 20 19 18 13 19 28 20 24 26 25 26 26 23 21 27 24 29 33 34 40 37 45 36 28 36 44 49 47 53 62
80 84 83 80 93 67 58 76 80 90 82 22 26 29 28 19 20 19 18 16 23 22 20 22 18 19 19 19 20 20 27 30 37 39 53 36 38 42 34 30 31 39 48 47 56
82 85 86 66 81 58 78 92 98 97 18 14 22 29 33 32 22 26 25 24 28 38 37 26 24 18 16 22 22 24 32 59 72 73 68 51 50 36 27 24 26 38 39 44 45
83 87 86 74 71 68 88 96 99 48 41 16 14 22 35 30 32 31 30 31 22 29 35 38 39 22 17 19 26 27 31 66 69 89 85 66 61 36 26 21 18 19 32 37 42
84 94 97 83 75 80 95 94 72 50 30 26 21 20 20 31 34 33 34 33 24 23 37 36 31 20 16 19 23 34 40 32 58 71 77 64 46 32 23 20 19 17 16 36 39
97 94 86 76 80 90 98 77 57 43 34 33 47 35 34 36 40 39 38 29 28 20 22 35 40 22 18 18 23 25 29 48 52 77 84 46 50 43 33 27 23 20 29 32 33
99 99 73 71 91 96 92 74 58 40 34 40 41 43 41 46 49 62 53 29 25 24 22 24 35 33 24 24 26 32 32 37 35 52 64 68 53 40 32 27 27 23 22 27 32
98 100 78 68 99 95 90 63 57 45 37 38 38 40 44 42 44 46 53 38 28 29 28 31 40 45 34 23 18 22 29 33 68 54 61 66 57 31 27 25 25 22 22 23 23
99 98 87 81 97 96 70 64 61 61 51 45 47 37 37 41 52 50 56 36 32 39 41 35 46 53 39 28 23 25 26 25 35 48 57 82 64 25 25 23 19 22 20 21 24
100 99 99 98 86 81 87 72 71 54 57 49 45 37 41 47 41 58 76 54 39 40 67 48 44 42 52 39 33 36 26 25 33 62 56 57 44 33 27 24 21 23 26 25 26
100 98 87 98 97 82 69 63 70 64 48 44 49 49 49 49 51 61 71 80 48 60 53 46 57 42 36 27 26 28 27 26 28 35 42 41 37 31 26 22 22 25 24 25 23
100 97 78 74 80 93 84 75 74 54 48 46 51 43 44 52 49 62 77 87 84 54 59 55 56 54 46 36 29 29 27 26 24 25 25 27 31 22 22 20 20 20 26 25 24
97 81 76 81 84 93 85 71 68 55 48 36 37 41 44 43 46 59 83 86 82 64 66 64 73 60 64 42 41 56 34 27 28 24 27 32 26 23 22 21 22 22 20 24 25

GFSSW_sfc_rhum_084.txt.gz
RH
73 71 74 76 81 84 84 85 87 87 84 84 88 90 91 91 90 60 53 43 57 73 70 27 25 26 27 30 29 23 32 34 26 21 20 20 30 49 61 64 63 66 61 65 90
68 67 68 70 77 80 82 85 86 86 86 85 86 86 89 91 87 63 50 68 75 78 26 24 28 29 34 32 27 26 31 26 18 16 18 20 38 39 54 62 58 63 61 69 86
66 66 66 68 75 78 80 84 85 82 84 85 84 85 88 90 76 36 74 74 78 67 25 24 23 26 29 26 24 27 27 19 17 16 17 21 57 62 55 79 71 66 66 80 92
69 67 70 70 74 76 78 81 80 79 80 82 81 84 88 96 12 38 66 66 69 34 24 25 28 33 28 26 23 26 19 19 17 24 26 28 56 55 72 72 80 90 84 94 89
77 78 73 69 73 74 77 78 78 79 79 77 79 84 90 76 60 31 72 66 45 23 21 22 30 33 30 22 21 24 23 19 24 31 31 32 44 44 62 66 82 84 84 95 90
81 82 80 76 72 76 77 77 78 78 78 76 77 84 91 78 25 23 48 42 28 22 22 26 27 26 25 23 29 23 25 24 23 27 30 33 43 46 49 62 82 86 95 96 94
80 82 83 80 80 80 79 80 80 79 77 73 73 75 80 56 32 22 22 25 32 25 26 24 25 26 27 26 23 26 28 26 23 28 34 37 46 43 45 51 80 88 94 95 95
80 82 84 84 84 84 83 82 81 79 74 75 75 78 82 38 43 38 38 33 26 26 24 24 26 27 30 26 28 31 34 36 30 32 31 29 42 40 46 56 79 91 95 98 93
82 83 84 84 84 84 83 80 77 75 75 77 87 88 78 44 44 35 28 24 22 24 26 22 30 31 32 40 45 44 45 38 32 32 36 37 39 41 48 56 74 97 89 82 95
83 83 84 84 84 84 82 76 70 78 72 61 70 85 56 32 24 25 25 24 24 25 26 31 32 35 41 45 52 48 45 37 42 35 41 44 40 44 55 54 79 99 92 81 86
83 83 84 84 84 83 78 66 63 69 70 77 69 63 33 27 31 30 21 24 22 23 35 37 42 42 38 37 33 34 36 37 32 28 37 39 40 45 57 74 95 98 89 79 81
82 85 84 85 84 83 80 76 65 70 93 62 53 46 46 40 52 42 24 24 28 28 30 39 44 32 30 33 33 33 36 34 26 23 32 31 32 39 60 69 81 94 94 85 77
82 82 86 86 85 78 75 67 56 56 97 61 42 38 40 37 46 46 23 27 27 28 28 32 36 28 31 32 34 34 35 33 27 25 28 34 36 40 47 56 63 74 84 90 86
81 82 87 84 71 76 68 46 54 65 96 56 46 35 32 27 28 21 14 17 32 28 25 28 23 30 35 33 31 38 27 26 29 36 41 36 48 40 49 60 60 62 73 89 88
80 81 86 81 90 85 49 52 56 84 41 19 25 23 26 24 21 21 13 15 28 26 26 29 27 31 35 31 28 34 27 28 32 39 45 39 50 40 46 62 60 59 66 80 90
79 80 84 85 97 84 71 75 87 92 77 38 24 29 29 27 23 23 19 23 21 33 29 24 21 26 28 26 26 23 29 34 42 44 58 57 56 49 43 41 53 49 59 70 79
81 82 86 77 91 77 79 92 93 94 34 22 24 34 35 30 26 26 27 26 33 45 42 32 23 21 23 29 25 27 35 55 64 65 65 64 61 47 34 30 42 48 48 65 68
82 86 89 84 90 86 91 96 99 52 45 27 31 29 30 22 34 26 29 38 26 32 42 41 44 27 24 27 29 32 34 63 62 81 74 64 57 45 31 28 27 37 44 48 65
84 98 99 96 91 90 91 97 55 45 38 39 36 35 29 35 47 56 42 32 32 23 44 48 39 26 21 21 23 32 42 35 63 74 80 67 54 36 30 25 24 37 40 52 51
97 92 79 88 92 96 94 70 56 32 30 37 51 44 46 43 48 68 81 41 36 28 24 41 47 27 22 22 22 28 32 50 60 80 80 65 61 50 34 26 28 26 46 47 49
99 99 80 78 94 98 92 76 51 34 30 44 41 44 41 43 43 50 74 61 45 36 29 27 46 42 31 32 29 37 42 46 44 62 77 74 54 41 32 30 27 27 35 41 45
96 99 88 78 99 92 94 61 56 49 45 46 49 43 48 37 48 46 47 52 38 48 48 31 37 45 38 28 26 29 31 39 65 59 64 68 55 34 30 28 29 25 24 34 40
98 97 93 83 96 95 75 75 64 56 59 58 54 48 50 50 56 47 52 42 54 76 43 39 42 63 41 35 32 35 32 33 47 58 59 82 61 35 34 30 28 27 25 26 29
100 99 99 99 86 70 79 86 84 54 63 57 58 52 61 63 48 58 52 48 66 60 76 51 54 37 45 41 39 45 35 28 36 56 52 61 44 37 32 31 29 28 24 28 29
100 99 86 98 98 86 77 64 77 72 57 57 66 66 65 75 63 56 46 73 63 71 71 56 59 50 41 35 34 33 34 32 32 38 44 40 42 38 35 32 28 24 28 27 27
100 98 92 86 75 96 81 80 74 61 63 61 67 55 54 66 57 52 58 80 78 78 86 63 62 56 57 42 35 46 36 31 35 33 33 38 39 29 24 33 24 25 27 29 27
96 88 85 76 81 87 85 85 68 64 59 54 56 56 61 53 45 44 56 77 84 88 94 90 77 64 67 48 44 66 53 40 37 34 33 40 34 28 27 24 23 24 24 29 28

GFSSW_sfc_rhum_087.txt.gz
RH
70 69 69 72 77 77 76 78 84 80 78 79 80 84 85 86 88 71 48 37 64 79 60 27 27 28 29 34 33 29 36 41 32 27 20 18 32 57 63 61 67 71 64 74 88
65 67 67 68 76 77 78 79 80 80 78 78 82 84 85 86 88 75 51 69 79 74 28 28 29 30 36 38 32 30 37 31 23 21 20 20 34 52 64 63 65 64 67 72 92
68 64 64 65 73 76 77 79 80 76 77 80 81 82 85 86 75 21 68 76 84 71 26 24 24 26 37 33 30 31 32 25 20 20 21 21 56 55 62 74 71 67 76 77 97
71 71 70 70 70 72 75 78 79 76 75 74 74 80 85 94 8 30 71 71 74 45 25 25 28 35 32 28 24 28 21 22 20 20 30 30 54 58 68 68 78 91 79 92 90
79 76 74 72 72 76 79 80 80 79 77 73 72 79 83 82 53 35 68 65 46 24 21 22 28 32 34 30 27 25 23 24 22 25 33 41 44 46 73 90 90 87 93 86 91
82 82 81 76 74 75 81 83 83 82 79 74 71 76 83 72 20 25 34 49 30 24 24 26 25 29 31 30 31 28 27 28 27 26 30 34 45 49 55 85 91 91 96 97 84
82 83 83 78 78 78 80 81 81 80 77 73 70 70 90 43 27 32 31 25 34 28 26 26 27 32 33 32 28 29 31 30 25 26 30 36 44 52 51 90 90 93 95 95 86
80 84 85 85 85 83 82 80 79 78 76 70 71 74 85 42 45 44 44 39 32 26 28 29 28 31 32 31 32 34 40 43 32 32 32 34 40 43 59 91 96 97 97 87 86
83 86 86 85 85 84 83 82 79 77 71 72 86 88 72 45 49 41 37 31 26 28 32 25 33 37 40 42 46 48 50 45 36 30 34 40 39 49 56 72 95 97 95 83 90
79 82 86 86 86 86 85 80 76 77 71 69 70 72 45 28 28 32 34 29 27 28 32 31 37 41 48 46 54 52 50 43 44 39 45 47 44 48 58 70 92 93 86 94 96
78 79 84 86 86 86 80 75 69 69 73 76 73 71 56 36 35 38 33 33 28 31 36 38 45 45 41 41 38 41 44 46 35 28 40 35 43 35 52 65 95 92 89 95 94
78 80 82 83 88 83 76 74 68 71 91 64 63 64 53 46 53 38 36 31 33 34 35 41 48 34 34 36 38 40 45 43 36 29 36 37 38 35 61 65 80 92 98 94 88
81 80 82 84 88 77 79 68 51 56 95 68 58 56 47 42 47 41 42 30 31 35 36 36 34 30 35 39 39 40 44 43 41 32 32 38 38 33 52 68 77 90 91 91 90
80 80 82 86 74 86 71 56 59 60 96 65 57 41 33 34 41 32 29 24 31 33 32 33 24 27 39 37 37 44 35 35 38 42 46 40 52 40 44 69 76 82 96 95 89
77 78 79 84 94 92 62 67 66 82 48 23 33 28 32 26 22 25 26 27 27 33 30 35 29 28 31 37 34 38 34 38 39 42 50 47 52 44 62 69 71 72 82 90 93
77 79 80 85 96 91 83 78 94 90 66 33 27 36 36 32 28 24 20 19 19 22 34 31 26 26 25 24 31 30 37 39 49 49 62 54 55 57 51 50 56 60 62 71 89
80 83 84 80 93 88 87 91 97 87 42 33 37 33 30 33 31 26 26 26 33 34 28 31 33 30 29 33 32 37 45 62 65 63 66 59 74 56 40 36 40 52 56 60 75
82 85 88 86 93 90 94 86 96 56 57 37 37 33 34 40 43 50 34 33 27 37 42 24 36 32 25 28 35 38 39 66 61 77 63 67 70 48 38 33 34 44 45 54 70
84 98 96 97 93 94 94 95 57 53 42 41 34 46 46 42 46 56 68 60 36 27 44 52 43 29 23 23 24 35 43 34 56 79 84 66 57 42 36 34 30 48 52 57 69
99 96 77 91 95 97 92 72 59 40 34 36 47 46 55 44 44 55 69 63 60 47 39 39 48 33 27 26 27 29 34 51 66 77 85 69 66 55 41 31 29 44 55 54 62
98 98 76 95 94 98 92 75 56 40 36 42 51 40 39 44 49 57 66 57 55 52 54 62 48 41 34 35 36 41 34 47 46 66 59 76 62 45 44 37 30 29 47 56 55
97 99 94 80 99 94 88 58 55 53 49 56 56 48 56 54 52 49 52 53 44 57 66 69 54 49 36 29 30 30 31 38 60 64 70 71 57 33 39 34 31 32 28 46 54
96 92 96 89 95 93 69 64 59 54 52 63 66 58 57 61 70 58 53 38 41 61 75 82 87 66 50 37 29 33 35 38 53 65 71 75 63 34 38 36 35 33 30 28 46
99 98 96 97 86 85 77 77 80 67 62 56 58 58 67 66 58 71 63 52 52 64 78 79 94 86 57 46 37 44 34 35 46 68 63 60 50 39 35 37 31 31 31 28 31
99 98 89 98 97 95 70 69 76 74 69 69 76 72 74 77 74 70 58 48 50 77 66 86 97 75 53 32 30 40 40 39 43 46 52 46 47 37 36 34 31 31 30 29 28
100 99 97 90 78 97 97 88 70 67 63 70 72 60 68 80 67 65 52 52 75 84 84 83 98 93 63 49 32 32 31 40 45 44 40 40 39 34 31 34 34 28 26 29 28
97 94 98 91 80 90 86 84 77 62 59 60 60 68 72 67 56 53 53 54 61 71 90 97 98 92 78 53 54 68 50 38 34 42 40 45 41 35 37 32 32 30 29 30 30

GFSSW_sfc_rhum_090.txt.gz
RH
66 65 66 70 75 76 75 79 81 77 74 75 76 77 78 86 87 76 49 34 62 76 53 35 29 29 32 33 34 33 39 44 36 32 22 20 30 57 64 64 69 75 72 79 96
72 70 68 68 75 76 76 76 78 80 77 76 77 78 82 85 92 82 55 70 78 77 31 26 32 31 37 39 36 35 43 34 27 24 22 22 28 50 60 66 65 66 71 96 98
70 70 70 71 71 72 77 80 79 74 77 78 78 79 82 88 54 15 76 78 80 69 28 26 27 28 38 40 35 35 36 30 24 22 25 25 37 56 64 67 65 66 68 82 98
73 73 72 71 71 72 78 82 77 75 75 74 73 76 82 90 7 23 70 73 80 55 28 26 29 34 37 33 28 32 25 24 21 24 33 34 53 62 66 56 71 78 85 85 98
78 78 77 75 74 75 80 81 78 74 74 75 74 74 88 46 35 30 59 64 54 29 24 24 32 33 35 32 30 28 25 25 24 27 30 42 47 55 69 84 92 95 91 94 94
82 82 80 78 77 77 80 82 81 80 74 72 70 72 95 27 14 27 30 49 37 29 25 23 24 28 34 33 31 30 28 29 30 28 30 39 46 62 54 93 94 95 97 83 92
82 86 86 82 80 81 82 81 81 80 77 75 69 69 91 24 17 27 31 27 31 31 28 28 30 35 37 35 34 33 36 34 31 30 29 35 46 59 52 96 96 96 98 84 85
74 78 86 87 88 87 85 83 80 80 80 77 70 74 91 41 49 47 47 40 33 27 29 31 32 34 35 32 35 41 41 47 34 34 32 35 42 38 63 95 98 97 85 86 90
74 79 83 85 86 88 87 82 79 79 74 71 82 94 59 39 53 42 38 36 33 34 31 25 34 40 44 46 51 50 54 48 38 35 39 43 44 39 70 94 97 99 86 80 90
73 76 81 83 84 87 86 78 76 79 74 71 67 73 32 20 33 34 44 34 32 36 37 40 48 51 55 52 56 54 54 48 48 40 39 52 46 36 52 68 92 98 87 82 86
73 75 79 83 83 86 82 76 70 75 69 79 73 74 59 47 39 42 42 38 34 35 38 40 49 53 40 48 42 43 48 50 43 34 39 38 39 32 43 67 82 98 93 89 98
74 74 80 82 83 82 73 78 65 68 92 62 64 66 53 44 54 37 35 41 35 36 37 50 48 35 38 41 42 43 47 47 40 31 36 38 37 32 47 58 64 83 98 97 98
75 74 77 83 82 79 88 70 59 63 95 67 57 59 53 48 49 38 36 34 34 38 39 38 37 34 38 44 44 45 45 47 43 35 39 44 44 35 44 65 76 90 94 93 96
78 77 80 83 77 95 73 68 72 79 95 64 66 54 40 44 47 34 25 29 34 37 36 38 28 29 41 41 40 49 39 38 40 50 57 43 60 43 37 53 76 84 95 95 93
78 77 79 80 98 95 76 79 75 82 54 26 39 31 35 36 28 29 30 37 35 38 33 41 33 34 33 42 39 42 38 44 46 53 62 50 60 48 61 48 50 69 85 93 91
78 77 80 85 90 91 92 89 95 88 81 40 35 39 35 38 32 27 29 26 29 34 32 36 31 29 29 26 37 38 45 46 54 58 72 52 53 57 47 46 46 56 73 81 94
80 79 82 84 92 91 93 92 93 93 44 44 45 37 37 41 40 46 29 32 28 34 37 23 26 32 30 33 38 41 48 66 69 73 72 54 74 54 40 37 41 40 60 71 80
82 84 88 89 94 92 94 78 99 56 64 40 32 42 43 36 43 47 54 34 28 37 35 23 24 23 30 31 37 42 46 71 65 71 60 72 79 54 41 38 39 37 47 65 76
82 98 92 94 94 96 93 84 48 59 40 37 29 49 51 42 32 42 61 72 59 56 48 53 32 28 24 24 25 38 52 40 53 76 82 68 62 42 39 32 36 34 57 66 73
99 98 77 92 96 97 86 70 52 46 38 39 41 41 52 33 28 36 48 60 58 60 58 65 64 36 31 29 28 28 32 48 68 75 80 70 72 52 39 35 33 34 59 62 72
97 97 79 96 95 97 90 79 62 41 47 43 59 40 41 44 45 53 55 49 57 58 61 79 71 52 38 39 38 42 39 50 47 64 64 69 64 51 38 35 39 31 40 61 67
95 100 96 88 98 97 83 69 56 54 52 57 56 52 49 52 59 52 55 48 32 31 55 88 96 80 49 32 32 36 37 35 49 58 76 68 47 38 39 39 38 31 29 46 63
96 94 98 95 95 93 67 63 60 61 56 63 73 62 68 72 76 66 57 49 55 64 77 65 96 91 62 43 39 40 37 38 53 62 50 69 57 38 40 37 35 37 32 35 55
99 99 99 99 94 79 81 78 76 66 62 58 64 62 66 74 65 76 71 57 53 46 75 71 82 84 93 86 73 69 39 34 45 71 55 53 53 43 36 37 33 34 34 33 32
98 98 88 94 97 94 84 71 75 76 70 68 76 67 67 75 78 76 64 62 54 52 76 78 91 70 76 74 83 88 52 34 38 45 55 51 49 41 38 36 34 33 34 32 28
99 98 96 82 84 85 86 83 77 66 61 83 90 69 75 90 77 77 66 66 62 79 77 92 90 86 89 70 74 76 46 41 46 46 51 49 49 40 36 40 37 33 31 31 32
95 95 95 80 82 87 82 80 75 65 71 57 68 82 85 75 64 61 64 65 64 66 68 90 99 96 89 78 88 77 49 37 38 48 46 52 44 41 36 38 38 33 35 31 30

GFSSW_sfc_rhum_096.txt.gz
RH
68 69 69 71 73 74 74 74 77 75 74 73 73 73 75 81 76 21 13 21 35 69 68 25 19 15 14 12 13 13 13 12 10 11 10 11 15 14 18 20 24 26 26 29 43
71 71 72 72 74 74 75 76 80 76 74 73 74 74 78 80 45 16 32 59 66 75 21 19 15 14 11 12 12 13 13 10 9 9 10 12 15 14 17 17 22 23 25 36 46
75 76 75 75 74 75 76 80 80 76 74 74 74 76 80 66 21 7 68 75 72 63 16 14 13 13 14 14 14 13 14 9 11 10 11 12 12 12 15 15 14 14 16 28 46
81 80 77 75 73 74 80 83 79 74 74 74 75 76 79 43 5 12 56 70 73 28 18 18 18 19 17 17 13 18 14 11 10 10 13 13 11 14 13 15 12 22 23 36 45
77 76 74 73 71 71 76 78 77 73 75 76 76 74 49 19 8 6 54 56 27 26 21 19 19 18 16 13 13 20 13 12 11 12 12 13 15 14 13 11 12 23 43 42 43
74 74 75 75 75 74 76 79 78 79 78 78 79 73 48 20 4 7 15 27 19 16 16 19 17 14 13 14 15 12 14 12 11 12 13 16 14 12 14 11 23 38 41 46 49
72 73 75 76 76 74 75 80 79 81 81 78 78 59 52 18 8 12 17 13 16 11 9 9 13 17 16 18 15 16 18 13 13 13 13 12 15 13 12 19 26 36 42 45 45
70 72 78 79 79 80 82 80 81 80 77 75 74 52 37 17 15 16 10 10 10 11 9 9 15 17 18 17 20 20 18 20 14 13 13 17 14 15 17 22 19 25 36 45 48
65 73 78 80 82 82 81 82 81 74 74 72 56 52 25 25 19 18 21 22 24 23 13 15 21 20 21 23 20 18 20 17 17 14 12 19 15 15 20 21 21 21 29 36 44
68 71 76 80 81 81 81 78 70 74 55 51 45 53 21 12 22 24 22 30 27 26 18 18 24 26 24 22 27 22 21 20 19 14 19 16 18 14 13 16 18 19 26 33 39
70 73 73 79 79 80 66 34 27 36 31 28 18 28 21 18 23 18 28 29 26 28 23 14 25 30 21 23 20 17 20 19 15 16 21 18 14 12 12 13 16 19 26 31 37
72 74 73 78 79 78 50 44 52 57 60 36 34 36 32 30 37 21 19 32 32 26 26 24 21 14 18 20 22 22 23 20 16 15 20 18 15 13 13 14 15 16 22 28 34
73 73 73 81 78 56 51 54 48 51 65 34 36 39 37 38 40 27 22 19 32 25 29 33 20 17 14 23 27 24 24 22 21 17 18 20 19 13 11 15 18 22 22 24 30
72 71 79 83 64 51 40 44 46 64 52 21 31 32 36 36 40 22 20 15 20 28 26 29 19 20 22 22 21 27 19 22 22 21 24 20 20 13 14 16 14 14 23 28 30
68 70 77 77 56 43 47 50 49 77 18 22 30 25 20 33 26 24 23 22 20 16 31 30 28 27 25 24 22 26 22 20 25 24 23 22 24 17 15 20 16 14 15 27 33
72 71 74 58 56 49 51 55 67 61 20 23 24 23 23 26 25 25 25 23 22 21 18 26 18 23 24 20 22 23 29 29 29 30 38 29 23 17 15 18 15 15 19 27 33
74 75 66 50 48 54 55 44 53 28 14 27 28 23 26 22 28 17 33 32 26 34 28 18 21 17 21 28 24 28 35 41 46 44 40 22 27 21 18 17 16 16 15 26 33
78 75 65 47 48 57 52 36 62 19 23 27 24 21 30 18 16 13 36 31 31 32 23 22 23 18 18 21 24 33 35 38 39 37 31 27 31 22 18 15 15 19 19 23 33
73 64 62 53 59 58 49 37 17 20 23 25 15 14 14 23 16 17 16 43 37 31 40 41 30 23 15 17 18 26 36 26 32 28 39 28 27 24 19 19 18 17 16 21 29
73 72 53 57 64 64 50 34 18 24 28 26 19 16 16 19 20 19 16 30 43 23 26 34 50 28 24 20 18 20 18 37 34 44 39 24 25 24 21 19 15 17 16 18 24
82 74 55 61 73 75 61 27 24 22 27 27 22 24 22 25 21 18 16 14 24 25 21 36 44 38 33 26 21 21 26 28 25 30 38 36 24 20 20 18 17 17 17 19 25
82 91 83 66 88 71 53 39 42 29 30 27 27 31 29 24 22 18 18 14 14 21 24 36 44 49 42 31 31 35 28 23 32 31 32 34 28 18 19 20 18 19 20 19 24
100 69 90 83 77 64 47 46 42 39 34 28 28 26 24 28 27 22 24 24 30 41 43 40 52 50 43 38 40 42 38 41 42 38 40 48 32 17 17 21 23 21 17 19 22
100 95 89 97 80 53 48 46 50 43 44 37 37 36 38 43 36 38 41 41 42 40 59 48 43 40 35 39 34 44 42 38 45 60 41 34 28 21 18 18 18 16 17 17 21
99 79 57 87 85 91 55 50 48 51 46 42 47 43 39 39 36 40 38 38 34 42 41 41 53 38 36 31 27 29 29 29 39 39 50 42 35 24 22 19 18 17 17 19 18
98 87 64 44 46 59 68 65 55 49 48 47 53 42 47 58 41 45 58 51 53 45 52 60 57 58 55 40 38 38 28 26 28 32 32 33 36 28 22 18 18 17 16 16 18
91 67 67 51 51 58 56 61 52 46 49 43 45 52 54 56 72 88 74 65 59 57 60 64 61 64 56 44 51 63 43 31 25 23 36 45 33 24 22 20 18 21 20 18 19

GFSSW_sfc_rhum_099.txt.gz
RH
71 71 71 72 74 75 76 77 81 78 76 75 74 78 79 83 78 17 10 19 26 65 67 17 17 12 10 10 9 8 11 11 10 9 8 6 10 9 9 12 10 11 15 15 25
74 74 74 74 77 77 76 77 82 77 75 75 76 77 81 83 44 14 44 54 58 69 22 16 18 12 11 10 9 10 11 10 8 7 7 7 9 10 10 12 11 12 11 15 28
76 76 74 72 70 70 71 74 77 71 71 76 78 78 81 70 28 10 65 73 70 58 18 13 12 11 12 9 9 10 12 9 8 7 7 8 8 7 9 11 11 11 12 14 21
76 75 74 72 72 73 75 79 74 71 70 71 74 77 80 44 14 13 51 68 70 27 17 14 13 14 14 12 10 12 10 9 9 7 8 8 8 8 8 9 8 9 10 18 23
74 73 73 73 74 74 76 79 76 74 73 74 76 79 51 19 14 20 49 47 19 21 17 15 16 16 16 13 11 12 11 11 9 9 9 8 9 9 9 8 8 8 12 21 28
72 72 73 73 74 73 75 79 79 80 78 78 80 79 49 24 5 4 8 7 12 9 13 15 16 14 15 13 12 10 10 11 11 10 9 10 10 9 9 8 9 11 17 24 31
68 72 72 72 74 74 75 79 80 82 79 80 75 57 35 19 6 6 8 8 8 11 10 11 13 15 14 16 12 11 14 12 11 11 10 9 12 11 8 7 8 15 18 26 28
64 69 78 78 78 80 80 79 80 80 79 76 76 42 33 10 10 8 7 7 7 8 9 8 6 8 15 15 16 17 16 18 13 11 10 11 15 10 9 10 14 14 14 24 30
66 71 78 80 81 80 79 78 80 75 73 70 55 42 27 21 11 13 17 10 11 6 9 5 7 13 13 17 20 18 20 18 15 11 11 12 15 9 11 14 14 13 13 16 26
70 70 75 80 81 80 78 80 61 69 62 37 35 42 25 11 10 14 11 19 25 23 21 12 12 14 16 17 29 23 19 17 18 12 12 14 13 11 9 11 12 12 11 14 19
69 71 73 79 79 77 62 25 21 36 26 17 13 15 11 9 12 13 11 19 24 24 24 17 14 14 13 18 18 20 17 16 14 12 13 15 15 11 9 9 11 11 11 13 18
72 72 73 76 79 75 53 29 38 41 44 23 19 19 17 19 27 17 12 22 22 24 18 20 18 13 10 12 19 21 22 21 16 13 14 16 16 13 10 9 9 11 11 12 15
71 72 71 77 77 61 34 38 31 36 43 20 18 23 25 26 26 18 14 13 16 20 18 24 19 14 17 18 16 20 24 24 21 16 14 16 18 16 12 10 9 9 12 12 14
70 67 74 80 63 36 32 31 32 47 44 20 25 25 28 27 31 15 16 17 13 15 15 17 15 20 19 19 14 19 17 19 20 20 22 16 23 16 12 9 9 12 13 14 14
69 64 69 72 47 34 35 34 36 65 23 14 24 19 16 27 21 18 17 19 19 13 18 19 21 24 23 20 20 18 16 19 20 22 22 20 20 17 14 13 10 11 12 11 16
70 69 66 48 52 38 36 41 51 52 24 17 17 22 16 20 19 16 21 19 18 22 17 13 12 22 23 20 19 18 20 21 23 23 32 24 23 19 15 13 14 12 11 13 16
74 70 61 37 43 41 45 41 43 29 8 12 18 17 17 17 18 15 19 26 27 30 27 19 14 12 18 23 21 22 27 39 38 39 39 21 23 22 15 11 13 12 13 17 19
74 75 59 40 35 42 45 37 53 15 15 19 19 16 17 18 15 16 14 22 23 27 26 23 21 13 13 19 21 26 29 44 43 38 36 22 24 18 13 12 12 12 14 14 19
72 52 60 53 45 45 46 39 22 18 13 14 16 14 9 16 18 16 16 22 26 22 33 32 27 17 12 14 18 19 33 23 36 33 42 39 23 17 18 17 14 13 13 14 19
64 80 58 48 50 48 50 42 17 12 19 19 18 10 12 8 14 14 14 21 34 27 23 33 41 21 18 14 17 21 15 31 29 50 44 24 24 24 20 19 15 14 14 14 15
92 94 48 41 51 48 60 34 20 14 20 20 17 16 15 16 14 18 14 14 11 23 19 21 38 30 26 27 21 22 26 24 22 24 37 42 30 20 15 19 18 14 15 14 16
94 99 60 48 80 61 52 29 37 20 18 22 20 20 21 18 20 20 18 12 10 12 17 21 39 46 31 20 23 27 20 22 37 33 26 32 30 17 16 16 18 18 15 16 16
98 74 62 69 83 62 41 31 26 29 23 22 23 19 20 23 26 22 20 14 10 20 32 39 33 39 33 25 24 33 27 24 22 25 29 42 32 15 15 16 16 20 16 15 18
99 97 94 90 68 60 55 42 36 30 32 28 27 25 25 27 23 28 24 21 26 29 56 46 39 34 35 34 44 39 34 33 34 46 36 28 21 16 16 16 16 17 16 15 17
99 78 60 91 80 72 50 46 37 34 33 31 33 32 32 35 30 29 26 25 22 32 33 41 51 31 25 22 21 28 26 24 28 29 42 34 27 22 20 18 16 16 16 16 15
100 75 49 47 44 47 56 55 55 32 35 37 38 30 36 35 28 28 23 29 34 24 28 31 55 38 34 25 23 27 22 20 18 20 22 24 26 18 17 17 20 19 16 15 14
86 47 66 68 52 54 53 43 40 35 37 33 37 47 47 40 47 55 64 56 61 74 56 79 56 48 57 27 26 42 27 20 16 13 16 24 22 18 22 20 20 20 17 15 15

GFSSW_sfc_rhum_102.txt.gz
RH
74 75 75 74 74 72 72 73 78 74 72 71 73 75 78 83 83 28 19 21 27 67 58 19 21 18 12 12 10 9 14 14 12 10 9 6 8 8 8 9 10 10 11 14 25
74 73 73 73 73 72 74 74 78 74 73 74 74 75 81 84 58 25 30 55 61 63 14 16 17 16 16 12 11 12 15 13 8 8 8 8 8 7 9 10 10 12 11 15 26
72 73 73 72 72 73 75 77 77 74 72 76 76 78 82 76 35 16 70 70 63 55 18 12 13 15 17 13 12 11 14 11 9 8 8 8 8 7 8 9 10 10 11 14 26
72 72 72 72 72 73 75 79 74 72 72 73 75 78 83 56 16 19 67 68 67 28 19 18 15 18 17 16 12 13 10 9 9 8 9 10 8 8 9 9 8 8 8 11 20
72 69 70 71 70 71 75 78 77 73 73 75 76 81 53 26 19 13 55 52 18 18 14 18 17 17 18 15 13 14 11 10 10 9 10 10 10 10 10 8 7 7 9 15 23
70 70 70 69 70 71 74 77 78 78 75 76 80 80 54 31 8 6 7 7 6 10 10 13 15 15 17 17 18 15 13 11 10 10 11 12 11 10 10 9 10 9 13 15 22
69 72 70 69 71 72 75 77 77 77 75 77 78 54 44 25 9 10 9 8 7 8 11 8 10 16 18 20 14 14 17 13 12 11 11 10 13 12 10 9 10 9 10 15 22
67 72 73 77 80 79 78 77 75 76 74 79 75 49 45 14 11 8 7 7 6 7 10 10 10 11 12 12 16 19 19 23 16 13 12 12 17 13 9 9 9 9 13 16 23
74 75 77 80 81 78 76 74 74 75 74 72 64 54 35 22 10 10 13 18 8 8 7 5 7 11 10 14 18 18 25 23 20 14 13 13 15 11 9 10 12 14 13 13 23
77 76 77 80 80 75 73 74 64 63 57 42 38 43 29 14 8 8 9 11 18 20 21 18 13 10 8 13 23 21 23 21 23 17 15 14 14 12 11 10 13 15 14 13 14
75 75 77 80 77 74 63 46 22 44 37 26 22 31 16 8 7 10 9 10 19 24 29 20 16 14 12 12 13 15 18 25 28 23 22 17 15 13 12 12 12 12 12 13 14
76 76 75 77 76 74 56 36 33 37 46 24 18 15 12 11 17 15 11 14 23 27 20 23 26 16 12 11 11 12 20 26 24 22 24 20 17 14 13 13 13 12 11 12 14
76 72 72 78 76 61 37 34 26 32 47 22 14 15 15 16 20 18 13 13 17 20 19 21 16 12 15 17 18 15 17 28 32 27 24 24 21 17 13 13 13 12 11 11 14
75 69 72 78 64 44 37 30 29 42 51 13 18 16 20 22 26 16 14 13 14 16 12 14 12 14 16 20 18 24 16 17 18 24 36 24 30 20 15 14 14 13 13 12 14
78 69 68 67 51 46 33 34 34 53 39 15 19 16 17 24 19 17 13 17 22 14 12 13 12 14 17 16 17 22 17 18 22 26 27 24 26 21 16 16 14 13 12 15 16
76 72 68 50 48 45 34 42 47 62 32 13 18 21 19 19 18 14 19 18 17 19 17 16 10 10 15 16 18 17 21 23 23 26 38 28 26 24 20 17 15 12 11 14 15
77 74 65 40 50 44 45 48 55 40 8 10 14 15 16 14 17 16 16 22 26 29 28 18 16 12 10 17 20 23 29 42 46 46 43 24 27 25 18 16 16 13 14 18 23
77 75 61 42 39 52 48 55 64 19 16 11 16 16 18 12 11 13 16 14 11 18 22 24 22 14 13 13 19 23 30 49 67 56 49 47 60 26 16 14 14 13 14 18 22
74 56 55 48 56 66 60 63 35 20 12 13 12 18 18 11 15 13 15 14 11 34 36 32 22 17 14 12 14 22 32 26 43 41 53 51 34 22 18 18 16 14 15 20 23
76 77 60 49 66 79 88 68 31 17 12 16 23 16 14 10 9 16 15 10 17 27 24 28 42 24 18 12 13 17 16 33 38 62 67 40 37 45 36 28 21 18 18 19 20
91 97 52 54 70 92 85 49 32 21 18 19 22 20 15 14 11 13 13 11 14 17 18 19 30 29 21 26 23 20 25 27 30 40 56 58 39 31 29 26 23 24 19 22 20
98 100 56 75 98 74 65 39 37 22 16 17 21 20 21 18 18 18 16 15 10 12 15 16 25 39 27 28 26 35 26 26 38 39 39 42 37 20 29 29 26 24 21 20 20
100 80 68 81 97 79 48 38 30 26 22 22 23 20 20 20 24 21 20 16 13 15 16 31 37 40 29 19 17 26 27 28 26 30 37 55 44 21 24 28 23 23 22 20 22
100 95 79 97 71 64 80 52 32 25 24 22 23 22 24 25 21 24 23 18 18 17 55 43 42 49 47 27 35 48 38 35 32 80 44 32 25 20 29 29 23 20 24 20 20
100 89 54 83 81 63 53 71 75 43 29 26 28 28 29 33 29 27 23 22 19 34 33 36 46 35 30 24 21 25 29 32 34 33 60 45 34 28 28 32 25 21 20 18 16
100 99 56 61 79 73 57 52 47 39 30 50 33 26 28 32 29 29 24 27 28 24 26 30 41 33 37 27 23 23 20 25 26 24 23 24 25 18 17 17 18 18 17 18 19
96 83 96 63 51 55 51 65 39 30 40 34 39 61 54 40 49 51 52 49 50 57 64 63 49 40 50 33 28 38 23 21 22 20 21 26 21 17 18 18 19 21 21 19 18

GFSSW_sfc_rhum_105.txt.gz
RH
74 73 73 74 74 74 75 76 80 76 74 73 74 76 78 82 85 53 36 36 50 69 67 28 28 29 30 28 20 20 25 26 22 18 14 11 14 14 12 12 13 13 14 18 49
71 71 72 72 73 74 74 75 79 75 73 73 75 77 82 84 85 52 45 69 73 73 24 19 23 28 34 27 22 22 25 23 16 14 14 12 14 11 14 16 15 18 16 37 50
69 70 70 71 71 71 72 74 76 73 71 75 76 78 82 86 68 25 74 62 66 62 24 22 17 20 29 27 24 21 22 17 15 13 12 13 13 12 12 14 14 15 16 45 52
70 69 65 66 69 70 73 78 73 70 69 70 71 77 85 85 24 35 67 71 67 46 27 23 22 26 28 30 24 24 18 15 13 12 11 12 14 14 16 13 12 12 12 18 43
75 70 65 62 66 69 74 77 76 72 70 70 70 78 83 56 45 21 69 66 46 34 28 25 28 27 28 25 22 22 18 16 14 12 13 13 14 17 16 12 12 11 12 16 34
76 77 73 66 66 68 74 75 76 77 71 69 71 81 93 64 17 24 28 20 17 12 15 18 20 18 23 24 26 22 20 19 18 18 15 14 16 19 16 14 13 12 16 17 25
75 76 77 73 71 72 76 75 73 74 72 69 73 73 68 51 18 17 17 11 12 11 12 15 13 19 20 26 20 21 26 23 20 18 17 15 17 17 14 13 13 12 12 17 26
77 76 78 80 80 80 78 75 73 71 73 72 77 73 73 28 28 20 14 10 9 9 11 11 13 17 23 17 16 17 22 33 23 21 19 18 23 16 13 14 13 13 12 17 27
76 79 82 81 83 80 76 73 73 71 74 75 80 80 68 31 23 17 13 17 15 12 11 7 14 17 16 20 25 23 26 27 24 19 20 19 23 19 22 13 14 14 16 18 23
79 78 79 82 83 78 75 73 67 72 62 48 52 71 54 25 12 9 11 12 16 20 23 15 17 17 18 18 23 27 28 23 25 22 26 29 30 25 24 18 16 19 20 20 21
76 78 77 81 80 75 71 67 44 52 39 49 40 49 38 18 9 10 12 14 15 26 44 34 39 32 20 14 12 14 18 20 17 20 28 29 32 27 23 21 17 19 22 21 20
79 78 78 80 77 71 73 64 40 43 63 38 34 29 21 17 18 14 13 21 21 35 36 39 40 26 15 13 13 14 18 19 16 22 23 29 36 33 30 25 21 19 18 17 23
80 80 78 79 74 72 54 51 37 49 75 40 24 23 22 19 20 17 16 20 22 28 34 38 32 24 23 23 21 20 24 24 20 19 24 33 41 38 28 21 17 17 17 16 28
77 80 78 78 72 56 59 42 45 58 98 44 24 17 15 21 27 15 16 18 20 24 25 25 19 22 22 22 20 27 23 23 23 27 34 33 48 45 33 24 19 15 16 16 23
76 78 78 75 75 66 50 51 48 71 92 19 19 14 19 27 25 24 19 22 25 23 22 24 18 18 17 15 18 23 27 26 27 33 36 30 33 37 25 22 18 17 18 15 16
74 78 78 71 73 58 44 54 70 86 83 19 25 27 27 28 28 20 22 21 24 28 26 25 19 19 18 16 16 26 34 31 32 37 46 32 33 34 27 22 19 16 15 18 16
76 79 76 58 77 49 51 76 91 97 16 12 19 24 24 29 28 23 27 33 40 45 43 29 24 18 17 21 19 29 41 61 63 60 52 30 34 32 28 20 18 17 16 22 25
77 80 75 62 62 64 73 88 93 38 24 14 14 16 24 20 19 19 22 28 24 30 36 37 39 24 19 20 20 34 37 68 70 73 51 41 63 48 26 24 21 15 16 26 46
76 82 81 73 68 78 93 99 59 33 24 22 20 22 22 20 21 19 24 24 18 36 49 49 37 28 26 23 16 23 37 29 51 49 62 54 43 33 44 42 34 18 17 28 40
96 96 88 66 78 88 98 80 51 32 27 32 39 23 28 22 21 19 17 19 24 39 30 36 50 28 22 25 25 22 23 40 50 76 81 51 43 47 50 55 43 29 26 25 36
96 97 74 70 88 98 96 80 48 36 35 38 37 28 29 28 23 24 22 16 18 37 24 22 35 37 27 32 54 64 35 31 34 56 74 78 57 44 65 66 61 40 26 25 30
94 99 77 85 99 99 94 61 50 41 36 37 31 31 33 31 29 29 29 25 19 20 22 27 33 44 31 23 44 59 68 57 40 47 56 55 51 27 42 42 54 42 32 36 32
98 87 80 90 98 96 66 54 47 46 41 38 33 28 31 34 39 32 31 26 22 25 32 31 56 75 50 29 25 46 49 61 70 41 44 64 55 27 30 57 53 44 36 30 23
99 100 94 97 94 95 96 81 81 51 41 32 32 29 35 39 32 39 33 29 32 30 60 49 49 56 70 59 43 44 32 36 78 96 90 68 52 35 36 53 54 46 38 28 23
100 96 76 96 95 90 82 72 74 87 62 39 34 34 37 44 43 42 36 32 28 34 42 47 60 48 41 36 34 32 31 26 29 36 83 66 71 51 40 46 46 46 31 20 19
99 99 92 94 74 78 88 77 64 52 98 83 80 56 55 46 40 60 69 67 67 61 61 51 61 50 50 35 30 35 31 28 26 24 28 29 33 26 18 22 21 28 22 23 22
97 88 98 79 95 84 90 63 63 79 60 37 60 66 64 58 65 64 67 67 67 70 73 76 70 70 67 43 39 51 39 30 25 20 24 31 26 22 17 14 49 61 58 58 58

GFSSW_sfc_rhum_108.txt.gz
RH
70 71 71 71 73 74 73 73 74 74 72 71 71 74 75 82 86 67 51 37 60 71 72 35 38 35 38 39 30 26 36 40 30 26 21 15 16 15 14 14 16 16 18 20 48
67 67 67 66 69 71 72 72 75 71 70 70 72 75 79 85 84 70 51 64 74 78 33 26 28 33 43 38 31 29 37 31 23 20 19 16 19 14 14 16 17 19 22 58 58
68 68 67 64 65 68 70 76 77 70 69 72 73 74 80 86 71 31 64 76 76 74 28 24 24 28 40 40 32 31 27 23 19 18 18 17 18 15 15 17 16 15 18 63 59
70 69 68 66 65 66 74 77 76 70 69 69 69 72 83 89 11 27 69 69 65 45 34 28 27 28 32 37 32 35 26 23 20 17 18 17 14 15 16 15 13 14 15 61 62
76 72 70 68 68 70 76 77 76 75 70 69 68 70 86 70 57 30 68 71 54 40 39 36 34 35 37 32 29 29 27 23 20 20 20 17 19 17 18 16 15 14 15 50 60
79 79 78 72 72 73 78 79 77 76 74 68 67 73 94 64 21 25 24 26 35 30 21 22 24 24 27 28 32 26 26 26 26 26 23 20 19 21 18 16 16 16 19 19 46
78 80 80 76 77 78 78 78 75 74 73 70 70 72 85 52 23 19 23 20 13 13 14 15 18 18 23 22 24 20 23 22 26 27 25 21 23 22 17 17 18 16 14 17 20
74 78 79 80 83 82 79 76 74 74 75 72 72 79 82 33 36 36 31 19 12 10 13 13 14 16 22 19 19 20 24 33 27 27 24 28 29 24 22 25 26 23 19 14 18
72 80 80 79 81 81 78 75 75 75 71 73 89 89 81 44 35 30 28 16 16 18 14 8 14 13 17 22 25 27 33 35 28 19 21 24 24 26 26 25 24 24 23 17 16
74 77 80 80 81 80 76 74 73 72 66 58 57 85 59 27 20 11 11 12 18 19 24 15 16 17 20 22 32 30 31 26 26 25 26 32 32 29 28 28 30 27 26 21 23
71 76 80 80 79 78 71 72 47 51 45 48 51 57 44 31 16 11 12 15 20 25 34 38 28 30 15 19 19 22 21 20 17 14 25 28 33 27 28 27 26 26 27 25 22
68 73 79 81 79 75 68 62 51 52 70 41 39 39 28 23 31 20 13 20 25 24 33 43 50 30 23 20 18 17 17 17 14 15 20 24 24 18 30 29 26 28 26 22 25
70 73 78 82 77 65 59 55 47 56 82 49 28 26 26 24 22 17 15 23 26 28 36 44 39 31 30 29 21 18 18 18 20 21 22 30 29 28 27 33 29 27 23 20 21
71 72 82 82 65 63 64 47 47 65 95 48 30 29 18 22 28 12 11 19 26 26 30 36 29 32 34 34 30 36 26 25 28 32 36 28 38 27 23 26 29 26 22 19 36
72 70 81 79 82 75 56 49 50 72 44 21 23 16 17 28 26 26 15 24 26 23 26 32 23 30 31 28 26 29 27 30 31 37 42 36 44 25 29 25 22 22 19 17 20
71 73 78 76 78 68 58 60 70 72 63 27 24 25 35 30 27 26 25 25 23 27 28 30 26 24 23 19 20 22 31 38 41 42 51 38 41 32 33 27 22 18 17 17 20
74 76 75 68 84 67 71 83 76 95 30 21 22 20 20 36 35 33 32 32 38 47 47 33 29 26 22 26 23 28 43 60 64 64 50 33 41 33 29 24 25 26 26 29 25
76 79 82 67 76 78 82 84 96 38 36 22 31 21 22 20 33 33 32 37 35 36 42 47 49 30 25 27 28 30 31 50 65 64 49 38 53 52 35 33 44 43 41 34 27
78 95 95 87 80 83 97 86 61 45 23 37 37 29 29 25 24 23 26 24 26 30 44 52 45 32 30 34 31 32 45 30 50 60 65 54 41 31 26 59 55 53 46 39 62
98 98 96 76 87 92 97 73 65 40 36 41 52 40 48 36 29 27 23 23 29 35 37 32 50 30 25 26 40 38 30 41 56 70 59 60 58 53 56 68 63 63 58 46 48
96 93 75 76 89 96 96 79 58 44 43 42 52 54 47 42 33 34 30 27 20 22 22 24 39 41 31 40 44 61 62 66 43 66 58 77 64 69 71 69 73 82 63 53 47
96 93 76 86 98 97 93 66 61 56 49 49 47 46 51 36 34 38 35 32 28 28 29 34 36 40 34 24 30 47 58 66 91 70 77 66 53 28 62 61 74 83 60 45 36
99 91 80 88 98 97 88 74 61 59 55 53 49 46 46 37 42 37 43 33 30 34 39 32 46 69 36 36 45 56 44 40 75 91 88 87 55 36 40 62 69 79 75 48 45
99 99 94 97 89 92 89 82 74 53 70 59 58 49 51 44 41 46 44 40 37 30 58 49 51 51 56 61 48 41 34 34 75 95 89 76 73 46 40 52 66 68 70 53 54
99 96 90 98 95 93 88 87 84 76 47 61 65 60 57 47 48 46 44 60 52 61 54 49 57 53 48 44 40 39 37 33 34 44 79 59 46 30 36 47 56 63 68 48 46
99 100 94 97 82 83 79 78 77 68 76 84 85 74 74 73 50 56 70 76 75 65 68 69 69 58 58 49 44 49 41 38 32 30 29 31 34 23 39 33 45 44 55 61 67
97 94 97 84 90 92 83 79 87 56 60 64 94 98 89 61 73 70 69 71 75 77 74 74 73 74 63 56 58 66 48 41 35 29 29 35 33 65 64 49 68 76 72 74 71

GFSSW_sfc_rhum_114.txt.gz
RH
68 69 69 70 71 72 72 73 74 74 72 71 71 71 71 78 82 77 54 31 63 67 67 53 44 47 45 46 40 40 50 56 35 35 29 22 24 23 20 19 20 19 30 34 60
70 70 70 70 72 72 72 72 76 74 72 71 71 71 72 79 93 80 49 56 72 69 38 36 39 41 47 49 43 39 53 47 33 30 25 26 26 21 21 23 21 24 20 52 80
71 72 72 71 71 71 71 73 74 71 70 70 70 71 77 84 60 10 70 68 74 74 41 32 31 36 45 49 45 42 44 36 28 26 25 26 26 22 25 26 22 20 18 58 75
74 74 73 72 72 70 73 77 72 70 69 70 72 72 77 90 7 16 67 69 75 72 36 31 29 33 41 45 40 42 34 28 27 24 28 29 31 26 24 22 18 18 19 34 70
76 75 74 73 73 73 77 78 77 72 73 75 74 73 87 49 27 22 52 64 56 40 37 36 34 32 34 34 36 41 37 31 31 30 31 30 30 28 26 19 18 19 23 25 53
75 75 76 75 73 72 77 77 77 78 75 75 74 72 92 39 13 24 27 25 43 46 37 40 37 32 37 37 38 36 32 31 31 30 30 28 29 32 27 24 23 22 25 29 42
73 73 75 76 76 75 78 78 79 80 78 79 76 75 92 27 35 42 42 33 29 35 29 21 19 21 26 25 24 24 25 24 25 27 29 30 34 32 25 24 24 28 28 29 32
69 70 74 78 80 82 83 81 81 80 78 74 75 83 78 44 54 54 48 42 36 34 25 18 19 20 21 19 20 24 29 31 28 27 27 28 36 29 23 26 27 26 28 30 32
70 70 74 79 82 83 83 82 79 73 73 77 86 92 59 45 52 40 45 43 28 27 20 12 17 19 22 25 30 30 30 30 26 27 31 29 28 23 26 19 22 30 32 29 30
70 70 72 78 82 83 82 78 71 71 67 70 71 87 46 38 37 27 30 38 19 20 24 18 20 22 25 30 35 34 33 34 34 26 28 27 27 23 16 21 25 27 33 31 27
70 71 72 76 79 82 77 71 68 65 67 61 51 60 55 29 25 24 20 22 19 22 26 29 30 30 22 19 21 31 31 32 32 21 19 19 19 17 16 18 22 25 28 27 26
71 73 72 72 80 75 69 72 68 69 91 63 58 55 41 35 44 24 18 21 23 23 25 32 48 33 18 17 21 25 28 26 21 17 19 20 19 18 18 21 21 21 28 30 30
73 73 74 79 78 80 87 68 62 70 98 69 44 42 41 39 49 37 20 21 23 27 27 24 26 29 30 26 23 25 25 27 22 22 22 26 32 29 26 26 27 29 32 34 29
74 74 76 81 78 94 69 66 67 77 94 39 36 32 25 30 39 24 15 20 25 22 21 26 21 20 40 40 31 38 30 28 31 34 48 34 46 29 28 29 27 24 26 26 27
74 74 74 74 94 88 66 69 66 84 25 17 31 25 22 29 21 26 12 17 21 30 30 29 37 32 24 30 38 48 36 34 35 42 49 45 46 35 24 24 24 26 27 35 55
74 74 73 83 96 84 80 77 68 17 19 27 27 29 22 19 19 20 20 18 16 20 28 26 28 34 35 32 31 32 36 37 48 49 60 39 40 27 30 29 32 34 52 61 63
75 77 79 80 78 89 87 77 26 27 19 32 40 31 23 36 28 25 25 31 37 43 47 36 32 31 27 32 31 32 38 46 39 65 49 37 45 28 29 29 60 68 67 71 69
77 78 84 85 93 91 91 60 48 28 40 39 40 31 37 40 37 33 30 35 29 32 49 52 49 37 31 31 34 37 38 52 43 46 38 44 53 42 36 54 64 67 73 72 72
80 96 95 89 91 93 86 76 41 58 51 56 43 45 56 44 41 40 39 34 30 31 45 59 49 31 26 34 37 42 44 38 45 49 58 45 42 32 46 59 63 63 72 81 72
97 96 84 84 90 92 93 62 66 56 53 56 57 62 70 62 51 41 44 36 36 31 35 45 59 33 28 40 29 44 50 48 59 61 53 49 58 50 70 74 71 73 76 72 59
95 90 70 91 91 95 97 82 74 54 60 72 75 73 65 67 54 57 47 36 34 33 30 36 42 42 36 35 37 48 63 71 66 73 76 81 51 65 61 78 79 78 74 78 68
94 91 74 90 89 94 95 81 64 67 61 67 69 71 72 68 68 65 61 41 32 38 39 41 47 46 34 38 41 68 78 80 83 94 85 89 82 48 46 52 52 80 76 78 76
100 98 86 81 97 98 88 81 72 69 60 73 72 63 62 73 77 77 67 43 40 41 46 50 53 45 44 50 42 53 41 62 80 89 87 93 70 43 35 32 35 76 75 82 80
98 95 89 95 81 89 97 88 83 65 69 66 68 66 71 76 70 79 74 52 53 52 61 56 56 47 44 44 44 37 40 40 76 94 71 71 51 30 34 35 30 35 72 82 80
97 94 87 99 95 95 90 82 81 81 71 73 77 75 76 95 84 82 67 57 52 59 59 62 57 50 50 47 48 47 48 48 49 54 67 36 35 26 28 24 27 26 67 69 70
98 98 93 97 89 91 82 85 70 63 85 89 93 76 87 96 86 96 65 81 62 65 69 64 67 68 61 55 54 58 58 57 55 49 48 43 43 28 26 24 25 42 62 69 71
98 94 94 85 89 95 85 78 81 81 80 88 98 98 98 84 92 79 71 73 71 71 76 73 70 75 58 60 58 57 45 48 50 49 48 53 41 33 33 35 75 80 81 82 81

GFSSW_sfc_rhum_117.txt.gz
RH
70 70 70 70 71 72 72 72 73 72 72 71 71 72 72 75 81 68 27 23 49 65 64 46 34 35 32 30 28 26 24 24 16 21 14 16 18 16 14 14 14 13 16 15 32
70 70 70 71 72 72 72 72 73 72 70 70 71 72 73 79 79 66 46 62 68 71 42 35 36 35 32 34 29 27 28 24 20 16 17 17 20 17 16 19 17 19 18 20 41
72 72 72 71 71 72 73 74 74 71 70 72 74 75 78 78 50 8 72 67 69 64 35 29 32 30 30 36 33 30 26 29 24 21 20 20 19 16 17 18 20 19 17 21 28
74 74 73 72 72 72 73 79 73 71 72 73 74 76 78 78 6 20 60 71 70 60 34 26 30 33 32 35 32 32 30 25 22 20 22 21 19 20 20 20 18 17 16 17 20
75 74 73 72 72 72 74 78 75 75 76 75 75 74 74 27 14 12 43 40 59 48 28 28 27 28 28 29 30 36 29 26 23 21 23 23 24 25 24 19 18 16 19 22 22
72 70 71 71 70 72 73 77 81 79 77 77 77 72 78 26 8 24 35 27 28 38 32 31 27 24 26 29 30 29 29 26 24 25 25 26 24 24 22 21 22 22 22 23 25
69 70 71 71 71 73 74 79 82 80 78 78 76 72 80 27 25 36 43 27 23 27 30 27 27 19 23 22 21 22 24 21 22 23 25 24 26 27 20 20 22 23 24 21 22
70 70 71 74 73 75 79 82 82 78 76 73 74 73 58 38 40 45 45 39 34 26 24 19 16 18 18 16 16 18 20 24 21 20 21 23 27 21 20 18 14 13 16 21 21
70 70 72 77 79 80 82 82 77 71 76 77 78 81 50 38 39 32 39 38 34 32 31 16 18 18 17 18 19 24 26 26 23 22 24 26 27 20 19 14 12 13 15 17 20
72 72 73 76 78 80 82 74 68 61 61 70 69 64 37 29 33 32 24 40 22 22 24 21 19 19 20 19 21 23 27 27 23 18 21 22 25 19 16 12 13 15 16 20 20
73 73 72 74 77 82 74 60 63 56 62 58 31 43 33 27 24 22 20 20 18 19 25 23 24 26 21 20 15 22 26 25 23 18 18 19 18 15 13 13 16 16 17 18 20
74 74 73 73 78 73 65 68 69 67 90 57 60 56 47 42 50 34 24 20 23 23 21 29 39 28 18 18 18 19 23 25 22 17 20 17 18 17 16 16 16 17 18 20 22
74 73 74 75 72 79 73 67 57 66 90 61 51 45 36 43 48 39 23 20 21 26 23 24 23 25 24 21 20 20 24 24 19 17 19 21 23 22 20 18 20 22 22 22 22
72 73 75 79 66 85 61 67 67 74 55 22 33 30 17 29 32 24 20 19 20 20 23 24 20 20 28 31 24 30 20 18 19 29 32 26 27 22 21 22 21 21 24 33 44
73 73 74 75 85 74 63 72 69 79 10 16 26 20 16 20 17 16 14 17 25 21 25 31 31 25 23 22 26 26 32 26 29 33 34 32 33 26 22 17 20 23 37 48 50
74 74 73 80 87 78 79 78 61 11 10 22 28 27 24 27 23 21 18 15 18 28 27 27 24 30 22 21 27 34 35 34 38 38 40 32 26 20 19 23 24 40 47 55 54
72 75 79 78 71 80 85 55 16 11 19 41 41 29 31 36 30 25 25 26 27 39 43 31 22 23 27 29 31 30 33 36 43 48 29 29 33 24 24 34 49 52 51 55 50
75 79 80 77 84 90 70 29 27 31 46 43 41 32 42 42 33 26 25 30 25 26 34 47 48 31 27 27 30 36 33 32 25 28 24 35 30 30 48 50 49 50 53 50 45
78 87 80 76 87 82 67 31 29 57 51 56 44 45 51 46 44 36 35 31 28 30 37 45 49 28 28 30 27 38 39 28 29 37 40 33 31 37 45 46 39 40 49 53 52
92 86 82 86 91 88 80 48 58 54 58 59 60 59 61 51 52 45 42 31 33 30 33 32 41 33 31 31 34 38 36 43 44 49 45 36 36 42 42 40 32 32 43 52 52
93 89 72 84 88 90 85 70 66 52 57 64 69 62 58 61 55 52 42 34 32 31 29 35 39 35 30 46 41 42 52 62 51 59 38 39 34 45 42 39 28 25 28 47 58
92 92 69 87 91 94 81 76 63 63 54 54 66 71 71 63 62 60 55 46 38 37 32 37 46 46 35 41 44 58 72 68 57 68 68 57 44 39 39 31 26 25 25 40 58
98 91 80 80 94 88 75 74 65 66 59 63 67 61 58 60 67 61 63 50 44 46 39 45 53 52 57 47 38 38 30 59 66 64 69 64 35 38 26 21 20 24 25 28 63
96 92 84 94 76 83 91 79 73 59 57 54 60 61 66 68 61 75 65 51 54 45 57 53 46 48 58 50 38 38 33 32 56 56 47 41 34 21 20 20 20 20 22 25 60
96 92 84 97 85 82 78 72 74 74 60 69 74 73 81 91 73 70 62 65 53 47 56 52 47 40 36 37 40 39 36 35 36 32 39 26 25 20 19 18 20 22 24 24 51
99 94 91 82 82 81 76 72 68 70 84 83 91 73 82 92 93 95 95 66 58 50 65 56 47 52 52 42 37 43 41 44 42 39 38 35 35 25 23 23 25 25 28 48 60
97 89 90 81 82 82 77 70 72 88 71 76 100 99 93 88 78 76 83 79 73 76 63 62 56 49 44 37 42 51 40 38 36 34 36 35 27 22 28 26 28 35 50 68 71

GFSSW_sfc_rhum_120.txt.gz
RH
70 70 69 70 71 72 73 74 74 73 72 71 73 74 75 78 77 23 15 21 26 65 63 25 22 19 17 16 15 13 15 15 12 11 9 9 11 10 10 11 10 10 11 11 13
70 70 70 70 71 72 72 73 74 73 72 72 74 75 77 80 44 21 30 59 62 68 21 19 18 19 17 17 17 16 16 15 10 10 9 10 12 11 11 11 11 12 12 13 12
71 71 70 70 70 71 72 74 75 73 73 75 75 76 79 67 28 5 60 64 71 59 19 16 15 17 16 16 18 17 18 13 13 11 9 10 10 9 10 10 10 11 11 12 14
73 72 70 69 68 69 71 73 74 73 75 76 76 76 78 43 7 17 55 65 68 31 26 20 18 20 17 18 16 22 16 16 13 13 13 13 11 12 12 11 9 11 12 13 14
71 69 70 69 68 68 70 72 74 74 76 76 76 76 54 20 7 8 43 40 33 30 22 20 21 19 19 16 16 22 18 15 16 16 15 14 15 15 14 12 12 11 14 16 15
69 70 70 71 70 69 70 73 76 77 77 76 78 72 44 18 5 12 18 14 18 20 15 17 16 15 16 16 17 14 18 17 15 16 16 17 17 15 15 14 16 16 17 16 17
70 70 71 72 71 70 72 74 78 77 76 77 74 54 46 17 10 11 14 10 7 13 19 12 14 17 15 18 15 15 18 14 15 16 17 16 20 20 15 14 15 16 16 16 14
70 71 73 74 73 74 77 82 81 76 75 73 76 52 32 20 16 22 22 19 23 18 11 14 15 17 16 13 14 16 16 18 13 13 14 16 17 15 14 16 16 14 10 10 11
71 72 73 77 79 80 82 80 73 70 75 75 59 57 28 29 22 15 20 20 16 25 17 13 18 16 13 15 14 11 16 14 15 14 14 17 17 14 14 14 12 10 8 8 10
72 73 72 73 78 82 80 71 56 65 49 46 44 43 25 13 13 15 11 14 17 17 24 19 17 19 16 14 16 14 13 14 14 12 15 16 16 12 12 12 12 10 9 11 11
72 73 71 73 76 78 49 28 22 23 25 30 28 28 22 20 20 16 13 14 14 15 21 18 17 18 13 14 13 12 11 12 10 12 14 14 13 11 10 10 9 10 10 11 12
72 71 72 73 74 69 36 42 53 52 46 35 36 38 29 30 30 13 17 17 13 14 13 21 21 10 8 11 15 14 14 12 10 12 18 14 12 9 8 9 9 10 11 12 13
71 71 72 73 68 52 43 49 43 51 49 25 28 28 14 28 24 11 17 17 19 17 13 18 14 15 18 21 20 18 18 16 14 11 12 13 12 10 9 10 11 13 13 14 19
71 72 74 76 43 44 40 40 43 58 27 12 27 17 10 9 20 10 11 18 21 21 15 16 14 15 19 25 23 26 15 15 15 19 18 11 16 13 13 13 14 13 16 23 28
72 72 73 75 47 30 42 45 50 64 9 16 19 12 8 12 12 9 11 16 23 23 22 21 20 20 22 18 18 22 17 24 26 20 18 15 20 12 13 15 14 17 28 33 36
70 72 72 52 48 40 49 54 58 23 9 20 20 18 11 15 12 11 11 13 15 20 21 26 19 18 19 15 16 16 22 29 28 24 31 21 20 12 13 13 15 27 35 35 32
72 74 54 49 50 54 57 44 15 8 11 27 29 19 13 23 15 15 11 16 21 27 27 23 24 20 21 22 27 22 32 37 43 37 32 12 16 15 12 21 28 36 35 34 33
75 69 67 50 53 63 50 19 15 21 31 28 28 17 23 27 20 21 16 8 18 23 23 27 38 30 22 29 29 32 33 34 42 33 24 18 20 21 33 33 32 32 35 36 35
69 53 56 60 64 56 32 14 24 34 38 38 23 22 24 23 30 27 22 18 21 24 34 30 26 27 29 33 26 36 48 27 33 29 28 20 33 38 32 27 25 25 27 33 34
46 53 53 61 67 50 31 39 36 38 39 38 37 35 34 29 34 30 26 16 20 24 24 29 39 24 34 42 40 35 28 35 34 43 30 16 25 24 34 22 14 12 13 20 26
55 50 48 58 62 39 51 40 41 37 35 41 39 39 36 40 38 37 33 23 23 30 25 22 36 29 25 54 75 75 54 51 41 31 32 29 21 24 30 26 19 15 14 14 20
59 86 50 56 60 55 40 46 51 36 37 39 44 46 47 41 41 37 38 32 27 32 34 24 34 40 30 27 37 50 91 94 78 50 35 31 29 24 31 28 16 17 14 16 15
77 44 49 60 77 62 51 50 48 47 42 41 41 38 37 40 48 37 39 32 31 34 41 39 35 36 27 35 50 57 36 44 62 69 51 50 30 28 30 22 14 16 14 16 16
80 86 49 55 46 59 64 52 43 38 40 37 41 45 50 50 40 51 46 40 38 38 52 48 36 38 38 60 45 43 50 35 36 54 45 34 25 22 17 13 12 14 14 17 17
92 74 55 76 63 51 49 47 45 58 46 44 49 53 58 77 51 48 45 50 46 44 39 38 38 27 24 24 25 36 39 32 32 28 36 28 20 15 13 13 13 14 15 17 20
98 72 60 47 53 51 57 50 53 49 62 66 69 81 70 78 97 96 71 67 55 38 42 34 43 34 34 26 27 33 26 26 24 26 22 20 22 14 12 12 15 17 15 20 27
67 57 58 65 55 52 53 54 60 72 52 58 95 90 59 53 52 54 55 57 61 67 60 56 47 43 42 25 25 35 26 23 22 19 22 27 19 14 15 16 19 20 20 32 43

GFSSW_sfc_rhum_126.txt.gz
RH
69 70 70 70 70 70 70 72 73 74 74 73 74 77 78 82 81 29 18 23 23 58 48 8 6 14 14 16 14 12 18 19 16 14 12 8 7 6 5 6 5 9 9 10 12
69 70 68 67 69 68 69 70 72 73 73 73 74 77 81 84 55 26 43 66 65 51 16 12 9 10 15 13 13 16 20 18 13 11 10 8 8 7 8 8 7 10 9 10 10
70 69 68 68 68 70 70 71 72 72 72 73 75 77 82 74 36 19 63 63 62 51 20 17 12 10 14 13 14 15 18 14 12 11 10 10 10 7 8 9 9 9 10 10 10
69 68 68 67 69 70 70 72 72 72 73 74 76 77 82 52 19 18 58 59 61 25 16 17 16 16 16 15 12 16 14 13 13 12 12 12 10 10 10 9 8 8 8 9 11
68 70 69 69 71 69 71 73 75 75 75 76 76 77 60 29 20 15 44 43 16 15 13 14 17 16 16 14 13 15 13 11 11 12 12 12 13 13 12 10 9 8 10 13 13
70 71 71 72 70 70 72 76 77 76 75 76 76 80 49 30 9 7 7 7 6 5 8 12 14 14 16 16 15 13 12 11 11 12 12 14 14 14 14 12 12 12 14 14 14
70 71 73 73 72 72 73 76 79 78 77 76 76 56 36 21 10 10 9 10 11 11 7 6 9 12 15 18 14 14 18 16 14 12 12 12 16 15 12 11 12 12 13 14 14
70 71 74 74 73 73 75 80 79 76 72 73 71 46 40 14 9 10 10 9 8 12 13 13 10 9 12 12 13 17 17 21 15 13 12 13 20 14 12 12 13 12 12 14 15
70 73 73 73 75 78 80 80 76 69 71 72 65 50 26 22 15 10 10 11 10 9 8 11 16 14 9 16 20 17 24 22 18 12 12 13 16 12 10 10 11 11 12 13 14
72 71 70 72 77 79 81 79 60 64 63 37 28 30 20 14 12 12 9 10 12 11 12 14 18 14 12 15 22 20 18 17 18 13 12 12 14 11 10 10 11 12 13 14 14
70 69 70 72 75 79 64 29 29 36 19 17 16 16 13 12 12 8 9 11 12 12 17 14 21 21 13 14 14 15 16 15 13 10 12 20 18 15 11 11 13 13 15 13 13
68 69 70 71 73 75 48 25 34 39 34 15 16 19 9 10 13 7 5 10 15 19 15 14 19 15 15 13 12 13 15 16 13 11 14 14 19 15 12 12 11 11 14 13 12
68 69 70 72 73 60 29 29 25 30 43 20 16 15 9 7 9 10 6 6 10 14 15 19 16 12 12 13 16 17 17 16 14 11 12 16 20 17 11 10 11 10 9 11 11
68 68 71 74 60 26 32 24 28 41 52 19 21 15 7 5 10 6 5 7 7 13 12 13 14 14 15 15 13 17 13 15 15 16 20 14 24 18 13 12 11 10 10 11 14
66 68 70 68 55 26 29 30 32 53 45 12 14 8 6 6 6 7 5 7 9 8 8 12 10 12 15 17 15 19 15 16 19 22 23 21 26 22 15 15 12 11 10 13 18
66 69 68 50 48 33 32 38 47 67 34 16 11 12 11 7 8 8 8 8 7 8 7 8 8 10 11 11 14 16 18 20 22 28 38 27 26 24 18 13 14 12 15 20 28
68 69 59 39 43 38 44 49 53 36 9 16 16 12 12 10 13 13 14 14 12 14 13 8 11 10 9 14 19 19 24 36 62 54 50 26 30 27 18 15 16 14 18 29 29
69 68 56 32 39 47 47 49 44 14 17 15 14 14 14 13 14 15 16 16 13 11 11 12 19 12 24 30 40 33 48 46 44 46 40 27 40 26 17 14 20 16 27 28 30
70 53 48 48 47 47 52 46 30 21 19 19 16 14 14 13 16 18 20 18 12 12 20 23 22 13 12 16 27 50 51 39 56 39 44 45 29 23 20 17 26 27 28 30 32
52 42 34 43 47 58 58 28 22 19 20 18 24 18 23 20 21 22 21 16 16 14 15 21 31 17 14 12 18 37 36 65 66 79 59 37 35 40 34 26 29 31 30 31 29
59 46 43 40 53 60 60 28 21 20 20 22 22 24 25 28 26 26 24 18 15 20 22 20 30 32 24 17 18 46 55 46 59 86 55 54 33 30 50 60 36 28 22 20 19
51 83 42 47 58 31 32 24 39 20 24 26 29 30 29 27 28 27 26 21 19 22 27 21 41 46 30 18 23 27 89 98 86 88 66 55 46 33 37 54 54 18 16 18 19
59 34 40 55 78 52 30 30 26 26 23 24 26 23 25 32 45 34 34 35 34 48 29 37 70 80 49 30 29 56 48 49 80 90 84 94 56 46 46 46 28 21 17 15 18
62 90 40 38 29 39 41 34 30 27 26 22 26 26 38 41 33 40 44 40 40 63 66 57 42 42 50 38 62 43 35 30 60 78 63 55 66 90 85 71 57 35 15 15 16
93 66 43 74 48 36 35 34 40 37 28 27 31 37 43 58 44 42 40 36 31 40 65 64 54 35 30 30 22 19 19 19 26 50 57 49 51 69 89 74 61 48 11 11 12
97 48 41 38 37 39 45 36 31 30 38 47 45 43 45 55 67 60 46 47 47 38 62 60 91 92 84 40 26 29 27 19 16 22 29 32 39 26 33 32 24 14 13 16 18
39 40 44 45 43 43 44 36 36 50 40 32 48 54 42 40 39 40 42 42 44 49 48 48 52 56 61 34 36 41 24 19 14 14 18 31 28 23 20 27 36 34 30 27 23

GFSSW_sfc_rhum_129.txt.gz
RH
70 70 70 68 70 70 71 72 73 74 74 74 74 75 77 83 85 49 44 38 44 54 52 17 12 10 21 25 26 25 32 32 28 23 20 14 13 12 8 10 10 11 14 23 27
70 70 68 68 69 70 72 72 74 74 73 73 74 76 80 86 75 49 40 62 60 58 23 17 14 12 19 24 25 29 33 30 22 19 18 14 15 15 10 12 12 20 14 21 23
71 69 68 68 68 70 71 72 74 73 73 75 75 76 83 83 55 25 61 66 66 56 29 25 23 21 16 21 22 22 25 21 19 17 16 16 16 15 14 14 13 15 15 14 19
71 69 70 68 69 71 71 73 74 74 75 75 75 76 82 81 32 32 55 55 60 39 22 18 23 27 26 25 20 23 18 18 18 16 16 17 18 17 22 15 13 12 14 14 13
69 71 72 70 71 70 71 74 74 75 74 74 74 76 84 52 41 20 56 50 41 28 21 18 19 23 28 22 20 20 17 16 15 15 15 16 17 18 16 16 15 14 15 18 18
69 72 72 73 72 70 71 74 77 75 76 76 75 76 86 45 16 13 21 11 11 11 12 10 17 16 20 21 24 21 20 19 18 16 15 16 16 20 16 17 16 14 18 20 21
71 73 73 74 73 71 71 74 80 78 76 77 75 68 58 44 18 16 12 13 14 15 18 15 13 15 14 18 18 18 20 19 19 19 19 18 19 18 17 16 14 15 14 14 18
72 72 75 76 74 74 75 80 81 77 75 75 72 61 64 24 16 17 13 12 11 10 15 14 17 23 24 14 14 20 21 27 20 19 18 18 24 17 16 16 16 14 13 13 14
72 73 74 77 79 80 81 82 80 78 74 75 78 76 50 30 16 12 14 13 14 14 14 8 15 29 27 20 20 27 32 27 22 17 19 19 21 16 16 15 14 14 14 14 14
72 73 71 72 79 80 82 81 72 69 68 48 48 69 33 15 14 15 14 14 16 17 16 18 28 34 26 23 25 29 31 23 24 19 19 19 19 19 18 16 17 14 13 15 14
71 70 70 72 77 79 80 61 45 56 48 35 22 21 15 12 12 14 7 8 15 20 23 20 28 42 28 18 16 18 20 21 18 15 17 16 25 24 21 18 18 15 12 13 19
68 69 69 71 74 78 69 41 42 48 54 22 17 21 17 14 12 11 7 10 12 18 17 25 29 21 17 20 22 21 21 21 17 16 18 17 15 20 19 14 14 13 13 13 11
66 67 69 72 73 75 41 37 36 46 64 32 17 19 14 9 10 10 9 10 11 11 11 20 18 13 18 20 20 19 24 26 24 19 16 14 17 21 19 15 13 12 10 11 12
66 67 70 77 76 50 48 38 43 56 84 28 20 18 11 9 13 6 7 10 12 12 11 14 12 9 13 14 16 22 20 22 22 22 29 25 31 20 21 19 16 13 11 13 13
65 66 70 69 81 53 48 44 48 75 90 23 17 10 10 11 9 10 8 11 16 15 14 14 10 10 11 12 12 16 15 20 26 31 33 28 34 26 20 21 17 14 12 12 15
63 68 68 66 81 56 53 57 67 88 73 16 12 15 16 13 12 12 14 13 13 15 13 12 8 8 12 14 16 15 16 20 28 34 42 33 38 33 27 22 19 15 13 11 22
66 69 67 52 68 60 65 75 87 91 14 20 18 16 17 17 16 16 18 20 24 28 26 16 12 10 16 26 24 28 53 63 56 51 50 32 41 35 26 22 19 18 34 27 31
68 72 71 51 60 66 74 79 80 19 23 17 18 18 21 18 18 20 21 27 19 18 24 28 32 18 15 18 24 34 66 94 89 70 52 38 48 34 24 20 18 18 35 34 37
68 80 84 78 59 71 83 84 50 27 20 21 21 23 20 19 22 24 28 27 20 19 30 34 26 19 17 18 19 31 52 69 93 81 90 56 39 28 24 25 23 19 33 44 50
81 82 70 60 59 82 92 46 32 22 20 20 27 23 30 27 30 32 31 23 22 24 31 38 48 24 21 28 26 40 51 81 85 96 89 61 49 50 35 57 63 52 46 47 52
84 80 63 52 73 92 97 42 26 21 23 25 30 32 34 36 32 34 30 25 37 43 33 34 41 38 29 35 40 40 59 72 84 80 76 90 64 85 91 75 73 64 58 40 36
83 97 63 69 96 86 57 34 38 20 27 28 34 33 34 34 38 42 41 46 42 48 56 44 58 61 55 38 39 39 74 100 98 93 87 87 87 73 86 76 65 70 43 42 18
89 60 62 73 96 89 41 33 27 26 25 26 30 29 35 45 58 47 46 43 40 54 60 57 75 90 51 54 44 60 48 47 91 97 95 98 86 52 71 90 63 66 47 20 17
94 92 66 74 53 62 58 46 37 34 28 25 27 35 47 55 47 54 51 42 45 40 55 70 72 77 84 53 46 83 63 33 57 84 79 71 60 66 74 86 86 60 54 47 16
100 87 65 92 78 55 51 42 49 45 32 32 39 48 56 70 63 60 53 50 44 45 63 73 92 80 66 59 50 47 39 28 33 39 75 49 51 52 57 78 82 68 55 40 25
99 84 61 60 51 51 58 48 37 36 52 55 57 54 61 73 76 76 63 63 67 55 62 77 90 88 78 58 56 43 37 33 32 28 27 34 37 35 48 64 72 61 56 62 61
62 59 78 64 58 71 67 47 57 63 49 42 58 73 69 58 54 52 53 54 59 62 91 98 77 77 74 49 53 60 58 48 46 28 36 49 81 60 62 58 77 77 69 67 63

GFSSW_sfc_rhum_132.txt.gz
RH
71 71 70 68 71 71 73 74 75 75 75 74 75 75 75 80 84 62 45 36 54 64 52 18 16 14 20 31 32 32 47 54 46 35 29 19 19 17 14 15 11 12 18 20 32
70 70 68 68 70 71 73 74 75 75 75 75 76 76 80 85 87 60 51 57 59 54 24 24 19 18 15 28 28 35 49 42 30 26 25 20 20 20 17 17 15 16 29 34 32
70 70 68 69 69 71 73 73 74 74 74 75 75 75 82 86 50 31 60 61 65 57 31 30 27 30 24 21 26 31 33 30 25 23 23 21 20 17 21 19 17 21 17 31 33
71 69 70 70 70 72 72 75 74 73 73 74 73 76 82 85 20 30 60 62 65 42 26 22 25 37 34 30 23 27 21 22 22 19 20 21 18 19 21 18 15 17 16 17 18
72 70 72 72 71 72 72 74 73 73 74 75 76 77 84 53 46 30 64 55 44 33 24 23 23 26 31 30 27 27 23 20 19 18 19 19 20 20 17 18 16 16 18 20 21
71 72 73 74 73 73 71 75 77 76 76 76 77 77 88 36 16 16 23 21 26 15 16 16 16 16 17 23 28 25 24 24 25 23 22 22 21 22 18 18 18 17 21 23 23
71 73 73 74 74 73 71 73 77 78 77 75 76 73 72 46 25 23 16 16 17 17 16 20 19 25 23 23 19 16 21 20 20 23 24 23 24 23 20 17 20 19 18 17 20
73 73 74 76 75 73 73 78 80 78 76 75 75 80 74 32 39 20 15 14 13 13 15 14 14 24 28 23 17 16 20 31 24 21 20 25 27 21 18 18 18 16 14 17 16
74 72 74 76 76 77 81 81 80 77 77 75 82 84 67 34 18 13 18 16 15 15 16 11 17 27 30 35 25 25 26 26 21 19 21 24 24 23 18 18 20 20 18 16 16
72 72 72 72 77 80 82 80 77 67 67 50 54 75 41 17 15 15 17 17 20 20 17 22 26 38 34 30 33 27 32 29 29 24 18 22 22 17 19 22 21 21 19 18 15
72 72 70 71 74 78 86 67 43 56 51 54 38 41 20 15 13 13 9 10 11 17 27 23 29 38 36 29 21 19 22 22 19 16 23 20 19 16 15 22 20 22 21 18 15
71 69 69 69 71 74 83 46 46 49 49 33 31 21 21 18 14 10 9 10 13 14 14 19 28 23 21 28 28 23 22 22 19 18 22 22 21 16 15 21 17 16 19 17 15
69 66 68 72 73 71 42 41 48 50 61 42 25 21 17 12 14 10 9 14 14 14 15 20 15 12 10 13 15 18 29 30 29 25 25 25 24 21 17 20 18 17 17 17 14
66 66 68 74 78 67 52 44 50 62 79 43 25 22 15 14 16 7 9 12 14 16 16 17 13 11 13 12 13 17 18 18 19 23 30 25 36 24 24 22 20 18 17 19 14
66 65 69 65 74 54 47 49 51 75 46 32 22 13 11 14 12 14 13 15 23 20 23 23 17 15 15 12 14 24 28 27 27 25 39 26 46 29 28 26 24 21 18 18 15
63 64 68 74 83 59 55 64 71 52 45 26 15 17 18 16 15 15 16 15 17 22 21 20 14 13 16 18 20 24 36 40 40 36 47 32 35 40 26 28 24 18 18 18 16
63 66 68 57 69 64 69 74 62 67 22 22 22 19 21 20 19 19 20 22 28 31 30 21 21 19 18 22 23 23 54 84 75 56 43 26 34 31 27 28 26 25 23 22 25
66 73 71 56 65 67 73 67 68 42 26 19 21 22 24 21 22 23 26 32 24 24 30 35 34 25 21 27 31 32 65 88 98 74 84 60 60 35 37 58 61 57 22 31 42
67 81 81 76 65 73 73 73 54 32 23 24 25 29 29 27 25 32 33 32 26 35 43 48 39 28 25 25 32 39 49 45 77 64 78 62 54 38 71 79 74 59 42 49 58
81 88 82 69 70 86 86 51 35 25 23 26 33 32 42 39 38 36 36 41 44 49 43 42 50 31 28 27 27 40 36 70 84 90 83 84 86 93 77 90 87 81 78 65 64
82 78 64 66 80 91 93 44 31 23 26 33 40 39 40 39 37 38 35 48 48 49 49 51 51 45 37 40 53 60 59 66 73 90 82 75 80 81 88 89 95 88 76 77 58
87 94 65 74 93 94 54 41 40 28 32 34 38 35 37 38 45 52 49 50 49 55 60 58 69 74 55 41 50 51 66 94 98 93 95 91 87 68 79 77 81 95 92 76 74
90 62 64 78 92 85 44 37 33 29 30 29 35 32 36 51 58 53 51 47 45 50 60 65 78 94 51 48 44 50 46 49 74 95 86 96 67 55 69 80 90 90 82 71 67
93 90 70 77 66 58 61 53 42 38 32 26 30 42 50 57 55 60 63 51 52 50 52 66 79 76 79 77 69 73 48 44 50 80 62 62 68 62 79 91 94 82 74 73 61
99 88 66 88 75 59 52 46 53 52 37 36 50 55 62 69 68 67 60 59 52 48 67 69 92 75 72 64 58 59 57 46 45 45 65 42 55 71 75 75 81 74 77 68 66
95 79 69 66 56 55 61 56 47 42 53 58 57 54 63 75 76 77 69 67 70 64 67 80 95 92 87 60 50 51 80 79 85 87 62 66 86 68 67 63 74 78 72 71 68
76 67 71 66 64 64 64 54 57 58 54 48 60 68 70 59 55 56 58 60 61 70 87 96 92 85 78 58 62 77 89 85 92 92 93 87 89 76 76 82 85 83 79 78 71